<?xml version="1.0" encoding="UTF-8" standalone="no" ?>
<gpx xmlns="http://www.topografix.com/GPX/1/1" xmlns:xsi="http://www.w3.org/2001/XMLSchema-instance" xsi:schemaLocation="http://www.topografix.com/GPX/1/1 http://www.topografix.com/GPX/1/1/gpx.xsd" version="1.1" creator="VisuGPX - https://www.visugpx.com">
  <metadata>
    <name>Foire des agnelles - tour du Trièves</name>
    <desc><![CDATA[Foire des agnelles à Mens - Tour du Trièves ]]></desc>
  </metadata>
  <wpt lat="44.81705" lon="5.75045">
    <ele>778</ele>
    <name><![CDATA[Tour du Trièves - 1]]></name>
    <type><![CDATA[Generic]]></type>
  </wpt>
  <trk>
    <name><![CDATA[Tour du Trièves - 1 on edp-parcours.com]]></name>
    <trkseg>
      <trkpt lat="44.81705" lon="5.75045">
        <ele>778</ele>
        <time>2017-08-08T17:25:21Z</time>
      </trkpt>
      <trkpt lat="44.81696" lon="5.75047">
        <ele>778</ele>
        <time>2017-08-08T17:25:23Z</time>
      </trkpt>
      <trkpt lat="44.81691" lon="5.75051">
        <ele>778</ele>
        <time>2017-08-08T17:25:41Z</time>
      </trkpt>
      <trkpt lat="44.81701" lon="5.75073">
        <ele>778</ele>
        <time>2017-08-08T17:25:50Z</time>
      </trkpt>
      <trkpt lat="44.81723" lon="5.7519">
        <ele>781</ele>
        <time>2017-08-08T17:26:08Z</time>
      </trkpt>
      <trkpt lat="44.8175" lon="5.7527">
        <ele>784</ele>
        <time>2017-08-08T17:26:26Z</time>
      </trkpt>
      <trkpt lat="44.81776" lon="5.75344">
        <ele>785</ele>
        <time>2017-08-08T17:26:44Z</time>
      </trkpt>
      <trkpt lat="44.81803" lon="5.754">
        <ele>786</ele>
        <time>2017-08-08T17:26:50Z</time>
      </trkpt>
      <trkpt lat="44.81808" lon="5.7544">
        <ele>788</ele>
        <time>2017-08-08T17:26:55Z</time>
      </trkpt>
      <trkpt lat="44.81809" lon="5.75467">
        <ele>788</ele>
        <time>2017-08-08T17:27:03Z</time>
      </trkpt>
      <trkpt lat="44.81807" lon="5.75496">
        <ele>788</ele>
        <time>2017-08-08T17:27:13Z</time>
      </trkpt>
      <trkpt lat="44.81794" lon="5.75577">
        <ele>791</ele>
        <time>2017-08-08T17:27:33Z</time>
      </trkpt>
      <trkpt lat="44.81787" lon="5.7563">
        <ele>793</ele>
        <time>2017-08-08T17:27:43Z</time>
      </trkpt>
      <trkpt lat="44.81784" lon="5.75658">
        <ele>793</ele>
        <time>2017-08-08T17:28:00Z</time>
      </trkpt>
      <trkpt lat="44.81794" lon="5.7567">
        <ele>794</ele>
        <time>2017-08-08T17:28:15Z</time>
      </trkpt>
      <trkpt lat="44.81821" lon="5.75688">
        <ele>794</ele>
        <time>2017-08-08T17:28:19Z</time>
      </trkpt>
      <trkpt lat="44.81841" lon="5.757">
        <ele>793</ele>
        <time>2017-08-08T17:28:35Z</time>
      </trkpt>
      <trkpt lat="44.81872" lon="5.75715">
        <ele>793</ele>
        <time>2017-08-08T17:28:42Z</time>
      </trkpt>
      <trkpt lat="44.81896" lon="5.75733">
        <ele>793</ele>
        <time>2017-08-08T17:28:46Z</time>
      </trkpt>
      <trkpt lat="44.81905" lon="5.75743">
        <ele>793</ele>
        <time>2017-08-08T17:28:51Z</time>
      </trkpt>
      <trkpt lat="44.81933" lon="5.75775">
        <ele>793</ele>
        <time>2017-08-08T17:29:08Z</time>
      </trkpt>
      <trkpt lat="44.81953" lon="5.75797">
        <ele>792</ele>
        <time>2017-08-08T17:29:23Z</time>
      </trkpt>
      <trkpt lat="44.81995" lon="5.75844">
        <ele>792</ele>
        <time>2017-08-08T17:29:42Z</time>
      </trkpt>
      <trkpt lat="44.8232" lon="5.76202">
        <ele>805</ele>
        <time>2017-08-08T17:29:44Z</time>
      </trkpt>
      <trkpt lat="44.82382" lon="5.7627">
        <ele>809</ele>
        <time>2017-08-08T17:29:57Z</time>
      </trkpt>
      <trkpt lat="44.82446" lon="5.7634">
        <ele>816</ele>
        <time>2017-08-08T17:30:00Z</time>
      </trkpt>
      <trkpt lat="44.82479" lon="5.76378">
        <ele>818</ele>
        <time>2017-08-08T17:30:03Z</time>
      </trkpt>
      <trkpt lat="44.82509" lon="5.76412">
        <ele>821</ele>
        <time>2017-08-08T17:30:17Z</time>
      </trkpt>
      <trkpt lat="44.82562" lon="5.76471">
        <ele>823</ele>
        <time>2017-08-08T17:30:20Z</time>
      </trkpt>
      <trkpt lat="44.82624" lon="5.76538">
        <ele>823</ele>
        <time>2017-08-08T17:30:40Z</time>
      </trkpt>
      <trkpt lat="44.82748" lon="5.76675">
        <ele>829</ele>
        <time>2017-08-08T17:30:49Z</time>
      </trkpt>
      <trkpt lat="44.82866" lon="5.76804">
        <ele>834</ele>
        <time>2017-08-08T17:30:56Z</time>
      </trkpt>
      <trkpt lat="44.82967" lon="5.76912">
        <ele>835</ele>
        <time>2017-08-08T17:31:11Z</time>
      </trkpt>
      <trkpt lat="44.83022" lon="5.76971">
        <ele>836</ele>
        <time>2017-08-08T17:31:20Z</time>
      </trkpt>
      <trkpt lat="44.83082" lon="5.77033">
        <ele>839</ele>
        <time>2017-08-08T17:31:38Z</time>
      </trkpt>
      <trkpt lat="44.83113" lon="5.77061">
        <ele>842</ele>
        <time>2017-08-08T17:31:44Z</time>
      </trkpt>
      <trkpt lat="44.83129" lon="5.77073">
        <ele>842</ele>
        <time>2017-08-08T17:32:04Z</time>
      </trkpt>
      <trkpt lat="44.83145" lon="5.77083">
        <ele>843</ele>
        <time>2017-08-08T17:32:08Z</time>
      </trkpt>
      <trkpt lat="44.83163" lon="5.77089">
        <ele>845</ele>
        <time>2017-08-08T17:32:10Z</time>
      </trkpt>
      <trkpt lat="44.83181" lon="5.77092">
        <ele>846</ele>
        <time>2017-08-08T17:32:29Z</time>
      </trkpt>
      <trkpt lat="44.83219" lon="5.77093">
        <ele>847</ele>
        <time>2017-08-08T17:32:35Z</time>
      </trkpt>
      <trkpt lat="44.83254" lon="5.77093">
        <ele>850</ele>
        <time>2017-08-08T17:32:53Z</time>
      </trkpt>
      <trkpt lat="44.83275" lon="5.77097">
        <ele>852</ele>
        <time>2017-08-08T17:33:02Z</time>
      </trkpt>
      <trkpt lat="44.83287" lon="5.77101">
        <ele>854</ele>
        <time>2017-08-08T17:33:09Z</time>
      </trkpt>
      <trkpt lat="44.83297" lon="5.77109">
        <ele>855</ele>
        <time>2017-08-08T17:33:23Z</time>
      </trkpt>
      <trkpt lat="44.83315" lon="5.77134">
        <ele>856</ele>
        <time>2017-08-08T17:33:36Z</time>
      </trkpt>
      <trkpt lat="44.83349" lon="5.77193">
        <ele>866</ele>
        <time>2017-08-08T17:33:38Z</time>
      </trkpt>
      <trkpt lat="44.83395" lon="5.7727">
        <ele>868</ele>
        <time>2017-08-08T17:33:41Z</time>
      </trkpt>
      <trkpt lat="44.83478" lon="5.77397">
        <ele>880</ele>
        <time>2017-08-08T17:33:46Z</time>
      </trkpt>
      <trkpt lat="44.83518" lon="5.77465">
        <ele>889</ele>
        <time>2017-08-08T17:34:00Z</time>
      </trkpt>
      <trkpt lat="44.83536" lon="5.77499">
        <ele>890</ele>
        <time>2017-08-08T17:34:04Z</time>
      </trkpt>
      <trkpt lat="44.83543" lon="5.77523">
        <ele>889</ele>
        <time>2017-08-08T17:34:19Z</time>
      </trkpt>
      <trkpt lat="44.83542" lon="5.77566">
        <ele>888</ele>
        <time>2017-08-08T17:34:27Z</time>
      </trkpt>
      <trkpt lat="44.83545" lon="5.77584">
        <ele>888</ele>
        <time>2017-08-08T17:34:44Z</time>
      </trkpt>
      <trkpt lat="44.83559" lon="5.77611">
        <ele>890</ele>
        <time>2017-08-08T17:34:56Z</time>
      </trkpt>
      <trkpt lat="44.83568" lon="5.77631">
        <ele>890</ele>
        <time>2017-08-08T17:35:11Z</time>
      </trkpt>
      <trkpt lat="44.83571" lon="5.77651">
        <ele>892</ele>
        <time>2017-08-08T17:35:15Z</time>
      </trkpt>
      <trkpt lat="44.83576" lon="5.77668">
        <ele>894</ele>
        <time>2017-08-08T17:35:33Z</time>
      </trkpt>
      <trkpt lat="44.83591" lon="5.77697">
        <ele>901</ele>
        <time>2017-08-08T17:35:53Z</time>
      </trkpt>
      <trkpt lat="44.83607" lon="5.77718">
        <ele>901</ele>
        <time>2017-08-08T17:36:11Z</time>
      </trkpt>
      <trkpt lat="44.83646" lon="5.77756">
        <ele>902</ele>
        <time>2017-08-08T17:36:22Z</time>
      </trkpt>
      <trkpt lat="44.83659" lon="5.77774">
        <ele>902</ele>
        <time>2017-08-08T17:36:28Z</time>
      </trkpt>
      <trkpt lat="44.83662" lon="5.77784">
        <ele>901</ele>
        <time>2017-08-08T17:36:43Z</time>
      </trkpt>
      <trkpt lat="44.83666" lon="5.77806">
        <ele>901</ele>
        <time>2017-08-08T17:36:48Z</time>
      </trkpt>
      <trkpt lat="44.83677" lon="5.77846">
        <ele>909</ele>
        <time>2017-08-08T17:36:51Z</time>
      </trkpt>
      <trkpt lat="44.83715" lon="5.77929">
        <ele>910</ele>
        <time>2017-08-08T17:36:56Z</time>
      </trkpt>
      <trkpt lat="44.83737" lon="5.77969">
        <ele>911</ele>
        <time>2017-08-08T17:37:08Z</time>
      </trkpt>
      <trkpt lat="44.8375" lon="5.77984">
        <ele>912</ele>
        <time>2017-08-08T17:37:26Z</time>
      </trkpt>
      <trkpt lat="44.83761" lon="5.7799">
        <ele>919</ele>
        <time>2017-08-08T17:37:45Z</time>
      </trkpt>
      <trkpt lat="44.83774" lon="5.77992">
        <ele>921</ele>
        <time>2017-08-08T17:37:49Z</time>
      </trkpt>
      <trkpt lat="44.83783" lon="5.77989">
        <ele>922</ele>
        <time>2017-08-08T17:38:03Z</time>
      </trkpt>
      <trkpt lat="44.8381" lon="5.77979">
        <ele>924</ele>
        <time>2017-08-08T17:38:15Z</time>
      </trkpt>
      <trkpt lat="44.8383" lon="5.77976">
        <ele>925</ele>
        <time>2017-08-08T17:38:19Z</time>
      </trkpt>
      <trkpt lat="44.83854" lon="5.77977">
        <ele>933</ele>
        <time>2017-08-08T17:38:23Z</time>
      </trkpt>
      <trkpt lat="44.83901" lon="5.77992">
        <ele>933</ele>
        <time>2017-08-08T17:38:43Z</time>
      </trkpt>
      <trkpt lat="44.83924" lon="5.78011">
        <ele>933</ele>
        <time>2017-08-08T17:38:49Z</time>
      </trkpt>
      <trkpt lat="44.83969" lon="5.78057">
        <ele>937</ele>
        <time>2017-08-08T17:39:04Z</time>
      </trkpt>
      <trkpt lat="44.84015" lon="5.78099">
        <ele>942</ele>
        <time>2017-08-08T17:39:11Z</time>
      </trkpt>
      <trkpt lat="44.84058" lon="5.78135">
        <ele>945</ele>
        <time>2017-08-08T17:39:18Z</time>
      </trkpt>
      <trkpt lat="44.84114" lon="5.78178">
        <ele>951</ele>
        <time>2017-08-08T17:39:30Z</time>
      </trkpt>
      <trkpt lat="44.84187" lon="5.78228">
        <ele>965</ele>
        <time>2017-08-08T17:39:41Z</time>
      </trkpt>
      <trkpt lat="44.842" lon="5.78243">
        <ele>966</ele>
        <time>2017-08-08T17:39:50Z</time>
      </trkpt>
      <trkpt lat="44.84215" lon="5.78265">
        <ele>964</ele>
        <time>2017-08-08T17:40:03Z</time>
      </trkpt>
      <trkpt lat="44.84229" lon="5.783">
        <ele>965</ele>
        <time>2017-08-08T17:40:16Z</time>
      </trkpt>
      <trkpt lat="44.84235" lon="5.78331">
        <ele>966</ele>
        <time>2017-08-08T17:40:33Z</time>
      </trkpt>
      <trkpt lat="44.84236" lon="5.78358">
        <ele>967</ele>
        <time>2017-08-08T17:40:48Z</time>
      </trkpt>
      <trkpt lat="44.84233" lon="5.78387">
        <ele>968</ele>
        <time>2017-08-08T17:41:00Z</time>
      </trkpt>
      <trkpt lat="44.84227" lon="5.78404">
        <ele>969</ele>
        <time>2017-08-08T17:41:10Z</time>
      </trkpt>
      <trkpt lat="44.84219" lon="5.78419">
        <ele>976</ele>
        <time>2017-08-08T17:41:15Z</time>
      </trkpt>
      <trkpt lat="44.84199" lon="5.78445">
        <ele>976</ele>
        <time>2017-08-08T17:41:21Z</time>
      </trkpt>
      <trkpt lat="44.84187" lon="5.78459">
        <ele>976</ele>
        <time>2017-08-08T17:41:35Z</time>
      </trkpt>
      <trkpt lat="44.84173" lon="5.7847">
        <ele>977</ele>
        <time>2017-08-08T17:41:55Z</time>
      </trkpt>
      <trkpt lat="44.84158" lon="5.78477">
        <ele>969</ele>
        <time>2017-08-08T17:42:06Z</time>
      </trkpt>
      <trkpt lat="44.84138" lon="5.78485">
        <ele>967</ele>
        <time>2017-08-08T17:42:23Z</time>
      </trkpt>
      <trkpt lat="44.84128" lon="5.78492">
        <ele>966</ele>
        <time>2017-08-08T17:42:35Z</time>
      </trkpt>
      <trkpt lat="44.84118" lon="5.78504">
        <ele>973</ele>
        <time>2017-08-08T17:42:40Z</time>
      </trkpt>
      <trkpt lat="44.84112" lon="5.78514">
        <ele>972</ele>
        <time>2017-08-08T17:42:51Z</time>
      </trkpt>
      <trkpt lat="44.84109" lon="5.78526">
        <ele>973</ele>
        <time>2017-08-08T17:43:02Z</time>
      </trkpt>
      <trkpt lat="44.84109" lon="5.78541">
        <ele>974</ele>
        <time>2017-08-08T17:43:13Z</time>
      </trkpt>
      <trkpt lat="44.84116" lon="5.78565">
        <ele>976</ele>
        <time>2017-08-08T17:43:26Z</time>
      </trkpt>
      <trkpt lat="44.84126" lon="5.78584">
        <ele>982</ele>
        <time>2017-08-08T17:43:46Z</time>
      </trkpt>
      <trkpt lat="44.84152" lon="5.78622">
        <ele>985</ele>
        <time>2017-08-08T17:44:05Z</time>
      </trkpt>
      <trkpt lat="44.84155" lon="5.78643">
        <ele>985</ele>
        <time>2017-08-08T17:44:08Z</time>
      </trkpt>
      <trkpt lat="44.84154" lon="5.78662">
        <ele>987</ele>
        <time>2017-08-08T17:44:26Z</time>
      </trkpt>
      <trkpt lat="44.84155" lon="5.78678">
        <ele>990</ele>
        <time>2017-08-08T17:44:39Z</time>
      </trkpt>
      <trkpt lat="44.84161" lon="5.78694">
        <ele>991</ele>
        <time>2017-08-08T17:44:59Z</time>
      </trkpt>
      <trkpt lat="44.84209" lon="5.78745">
        <ele>991</ele>
        <time>2017-08-08T17:45:05Z</time>
      </trkpt>
      <trkpt lat="44.84215" lon="5.78759">
        <ele>991</ele>
        <time>2017-08-08T17:45:07Z</time>
      </trkpt>
      <trkpt lat="44.84219" lon="5.78781">
        <ele>991</ele>
        <time>2017-08-08T17:45:12Z</time>
      </trkpt>
      <trkpt lat="44.84225" lon="5.78904">
        <ele>988</ele>
        <time>2017-08-08T17:45:25Z</time>
      </trkpt>
      <trkpt lat="44.84221" lon="5.78958">
        <ele>987</ele>
        <time>2017-08-08T17:45:33Z</time>
      </trkpt>
      <trkpt lat="44.84208" lon="5.79021">
        <ele>978</ele>
        <time>2017-08-08T17:45:43Z</time>
      </trkpt>
      <trkpt lat="44.84198" lon="5.79055">
        <ele>976</ele>
        <time>2017-08-08T17:45:57Z</time>
      </trkpt>
      <trkpt lat="44.84173" lon="5.79094">
        <ele>971</ele>
        <time>2017-08-08T17:46:05Z</time>
      </trkpt>
      <trkpt lat="44.84162" lon="5.79115">
        <ele>983</ele>
        <time>2017-08-08T17:46:16Z</time>
      </trkpt>
      <trkpt lat="44.8415" lon="5.79149">
        <ele>976</ele>
        <time>2017-08-08T17:46:21Z</time>
      </trkpt>
      <trkpt lat="44.84137" lon="5.79181">
        <ele>965</ele>
        <time>2017-08-08T17:46:25Z</time>
      </trkpt>
      <trkpt lat="44.84119" lon="5.79213">
        <ele>965</ele>
        <time>2017-08-08T17:46:35Z</time>
      </trkpt>
      <trkpt lat="44.84082" lon="5.79267">
        <ele>969</ele>
        <time>2017-08-08T17:46:55Z</time>
      </trkpt>
      <trkpt lat="44.84034" lon="5.79334">
        <ele>956</ele>
        <time>2017-08-08T17:47:01Z</time>
      </trkpt>
      <trkpt lat="44.83945" lon="5.7946">
        <ele>956</ele>
        <time>2017-08-08T17:47:10Z</time>
      </trkpt>
      <trkpt lat="44.83919" lon="5.79512">
        <ele>949</ele>
        <time>2017-08-08T17:47:21Z</time>
      </trkpt>
      <trkpt lat="44.83897" lon="5.79564">
        <ele>954</ele>
        <time>2017-08-08T17:47:39Z</time>
      </trkpt>
      <trkpt lat="44.83888" lon="5.79591">
        <ele>945</ele>
        <time>2017-08-08T17:47:42Z</time>
      </trkpt>
      <trkpt lat="44.83883" lon="5.79618">
        <ele>946</ele>
        <time>2017-08-08T17:47:53Z</time>
      </trkpt>
      <trkpt lat="44.83869" lon="5.79703">
        <ele>938</ele>
        <time>2017-08-08T17:48:00Z</time>
      </trkpt>
      <trkpt lat="44.83862" lon="5.79782">
        <ele>934</ele>
        <time>2017-08-08T17:48:04Z</time>
      </trkpt>
      <trkpt lat="44.83866" lon="5.79805">
        <ele>933</ele>
        <time>2017-08-08T17:48:20Z</time>
      </trkpt>
      <trkpt lat="44.83873" lon="5.79822">
        <ele>932</ele>
        <time>2017-08-08T17:48:40Z</time>
      </trkpt>
      <trkpt lat="44.83887" lon="5.79844">
        <ele>933</ele>
        <time>2017-08-08T17:48:58Z</time>
      </trkpt>
      <trkpt lat="44.83913" lon="5.79883">
        <ele>932</ele>
        <time>2017-08-08T17:49:05Z</time>
      </trkpt>
      <trkpt lat="44.83923" lon="5.79908">
        <ele>924</ele>
        <time>2017-08-08T17:49:07Z</time>
      </trkpt>
      <trkpt lat="44.83927" lon="5.79931">
        <ele>924</ele>
        <time>2017-08-08T17:49:17Z</time>
      </trkpt>
      <trkpt lat="44.83933" lon="5.79965">
        <ele>924</ele>
        <time>2017-08-08T17:49:33Z</time>
      </trkpt>
      <trkpt lat="44.83944" lon="5.79983">
        <ele>924</ele>
        <time>2017-08-08T17:49:43Z</time>
      </trkpt>
      <trkpt lat="44.83964" lon="5.80006">
        <ele>926</ele>
        <time>2017-08-08T17:49:54Z</time>
      </trkpt>
      <trkpt lat="44.84038" lon="5.80074">
        <ele>915</ele>
        <time>2017-08-08T17:50:04Z</time>
      </trkpt>
      <trkpt lat="44.84119" lon="5.8015">
        <ele>912</ele>
        <time>2017-08-08T17:50:08Z</time>
      </trkpt>
      <trkpt lat="44.84174" lon="5.80207">
        <ele>909</ele>
        <time>2017-08-08T17:50:10Z</time>
      </trkpt>
      <trkpt lat="44.84186" lon="5.80221">
        <ele>909</ele>
        <time>2017-08-08T17:50:26Z</time>
      </trkpt>
      <trkpt lat="44.84196" lon="5.80232">
        <ele>909</ele>
        <time>2017-08-08T17:50:34Z</time>
      </trkpt>
      <trkpt lat="44.84204" lon="5.80233">
        <ele>908</ele>
        <time>2017-08-08T17:50:39Z</time>
      </trkpt>
      <trkpt lat="44.84225" lon="5.80244">
        <ele>907</ele>
        <time>2017-08-08T17:50:54Z</time>
      </trkpt>
      <trkpt lat="44.84241" lon="5.8025">
        <ele>907</ele>
        <time>2017-08-08T17:51:09Z</time>
      </trkpt>
      <trkpt lat="44.84256" lon="5.80259">
        <ele>903</ele>
        <time>2017-08-08T17:51:21Z</time>
      </trkpt>
      <trkpt lat="44.8429" lon="5.80283">
        <ele>902</ele>
        <time>2017-08-08T17:51:35Z</time>
      </trkpt>
      <trkpt lat="44.84317" lon="5.8031">
        <ele>901</ele>
        <time>2017-08-08T17:51:39Z</time>
      </trkpt>
      <trkpt lat="44.84348" lon="5.80321">
        <ele>895</ele>
        <time>2017-08-08T17:51:51Z</time>
      </trkpt>
      <trkpt lat="44.84385" lon="5.80336">
        <ele>896</ele>
        <time>2017-08-08T17:52:00Z</time>
      </trkpt>
      <trkpt lat="44.84399" lon="5.80341">
        <ele>894</ele>
        <time>2017-08-08T17:52:19Z</time>
      </trkpt>
      <trkpt lat="44.84414" lon="5.80341">
        <ele>892</ele>
        <time>2017-08-08T17:52:35Z</time>
      </trkpt>
      <trkpt lat="44.84447" lon="5.80346">
        <ele>889</ele>
        <time>2017-08-08T17:52:40Z</time>
      </trkpt>
      <trkpt lat="44.84473" lon="5.80356">
        <ele>888</ele>
        <time>2017-08-08T17:52:48Z</time>
      </trkpt>
      <trkpt lat="44.84529" lon="5.80355">
        <ele>882</ele>
        <time>2017-08-08T17:52:53Z</time>
      </trkpt>
      <trkpt lat="44.84573" lon="5.80354">
        <ele>880</ele>
        <time>2017-08-08T17:53:10Z</time>
      </trkpt>
      <trkpt lat="44.84601" lon="5.80358">
        <ele>877</ele>
        <time>2017-08-08T17:53:14Z</time>
      </trkpt>
      <trkpt lat="44.84617" lon="5.8035">
        <ele>876</ele>
        <time>2017-08-08T17:53:28Z</time>
      </trkpt>
      <trkpt lat="44.84612" lon="5.80272">
        <ele>873</ele>
        <time>2017-08-08T17:53:39Z</time>
      </trkpt>
      <trkpt lat="44.84615" lon="5.80227">
        <ele>872</ele>
        <time>2017-08-08T17:53:56Z</time>
      </trkpt>
      <trkpt lat="44.84625" lon="5.80182">
        <ele>872</ele>
        <time>2017-08-08T17:54:01Z</time>
      </trkpt>
      <trkpt lat="44.84662" lon="5.80087">
        <ele>872</ele>
        <time>2017-08-08T17:54:07Z</time>
      </trkpt>
      <trkpt lat="44.84678" lon="5.80037">
        <ele>871</ele>
        <time>2017-08-08T17:54:14Z</time>
      </trkpt>
      <trkpt lat="44.8469" lon="5.80007">
        <ele>871</ele>
        <time>2017-08-08T17:54:31Z</time>
      </trkpt>
      <trkpt lat="44.84716" lon="5.79957">
        <ele>870</ele>
        <time>2017-08-08T17:54:45Z</time>
      </trkpt>
      <trkpt lat="44.84726" lon="5.79944">
        <ele>870</ele>
        <time>2017-08-08T17:54:52Z</time>
      </trkpt>
      <trkpt lat="44.84735" lon="5.79942">
        <ele>870</ele>
        <time>2017-08-08T17:55:05Z</time>
      </trkpt>
      <trkpt lat="44.84743" lon="5.79943">
        <ele>870</ele>
        <time>2017-08-08T17:55:20Z</time>
      </trkpt>
      <trkpt lat="44.84751" lon="5.79948">
        <ele>869</ele>
        <time>2017-08-08T17:55:31Z</time>
      </trkpt>
      <trkpt lat="44.84769" lon="5.79954">
        <ele>869</ele>
        <time>2017-08-08T17:55:39Z</time>
      </trkpt>
      <trkpt lat="44.84778" lon="5.79953">
        <ele>869</ele>
        <time>2017-08-08T17:55:52Z</time>
      </trkpt>
      <trkpt lat="44.84791" lon="5.79945">
        <ele>869</ele>
        <time>2017-08-08T17:55:55Z</time>
      </trkpt>
      <trkpt lat="44.84804" lon="5.79927">
        <ele>868</ele>
        <time>2017-08-08T17:56:04Z</time>
      </trkpt>
      <trkpt lat="44.8481" lon="5.79905">
        <ele>867</ele>
        <time>2017-08-08T17:56:08Z</time>
      </trkpt>
      <trkpt lat="44.84809" lon="5.79883">
        <ele>867</ele>
        <time>2017-08-08T17:56:28Z</time>
      </trkpt>
      <trkpt lat="44.84801" lon="5.79849">
        <ele>866</ele>
        <time>2017-08-08T17:56:31Z</time>
      </trkpt>
      <trkpt lat="44.84799" lon="5.79831">
        <ele>865</ele>
        <time>2017-08-08T17:56:33Z</time>
      </trkpt>
      <trkpt lat="44.84803" lon="5.79793">
        <ele>865</ele>
        <time>2017-08-08T17:56:53Z</time>
      </trkpt>
      <trkpt lat="44.84813" lon="5.79734">
        <ele>865</ele>
        <time>2017-08-08T17:57:05Z</time>
      </trkpt>
      <trkpt lat="44.84822" lon="5.7969">
        <ele>865</ele>
        <time>2017-08-08T17:57:11Z</time>
      </trkpt>
      <trkpt lat="44.84828" lon="5.79671">
        <ele>865</ele>
        <time>2017-08-08T17:57:27Z</time>
      </trkpt>
      <trkpt lat="44.8484" lon="5.79657">
        <ele>865</ele>
        <time>2017-08-08T17:57:40Z</time>
      </trkpt>
      <trkpt lat="44.84852" lon="5.7965">
        <ele>865</ele>
        <time>2017-08-08T17:57:50Z</time>
      </trkpt>
      <trkpt lat="44.84912" lon="5.79629">
        <ele>865</ele>
        <time>2017-08-08T17:58:00Z</time>
      </trkpt>
      <trkpt lat="44.84956" lon="5.79602">
        <ele>863</ele>
        <time>2017-08-08T17:58:02Z</time>
      </trkpt>
      <trkpt lat="44.84967" lon="5.7959">
        <ele>863</ele>
        <time>2017-08-08T17:58:15Z</time>
      </trkpt>
      <trkpt lat="44.84973" lon="5.79593">
        <ele>863</ele>
        <time>2017-08-08T17:58:34Z</time>
      </trkpt>
      <trkpt lat="44.84997" lon="5.79588">
        <ele>862</ele>
        <time>2017-08-08T17:58:44Z</time>
      </trkpt>
      <trkpt lat="44.85211" lon="5.79553">
        <ele>861</ele>
        <time>2017-08-08T17:58:50Z</time>
      </trkpt>
      <trkpt lat="44.85312" lon="5.79537">
        <ele>859</ele>
        <time>2017-08-08T17:58:53Z</time>
      </trkpt>
      <trkpt lat="44.85353" lon="5.79526">
        <ele>858</ele>
        <time>2017-08-08T17:59:13Z</time>
      </trkpt>
      <trkpt lat="44.85488" lon="5.79475">
        <ele>861</ele>
        <time>2017-08-08T17:59:32Z</time>
      </trkpt>
      <trkpt lat="44.85561" lon="5.79453">
        <ele>861</ele>
        <time>2017-08-08T17:59:34Z</time>
      </trkpt>
      <trkpt lat="44.85644" lon="5.79421">
        <ele>858</ele>
        <time>2017-08-08T17:59:43Z</time>
      </trkpt>
      <trkpt lat="44.85712" lon="5.79393">
        <ele>862</ele>
        <time>2017-08-08T17:59:54Z</time>
      </trkpt>
      <trkpt lat="44.85726" lon="5.79388">
        <ele>861</ele>
        <time>2017-08-08T18:00:01Z</time>
      </trkpt>
      <trkpt lat="44.85745" lon="5.79388">
        <ele>860</ele>
        <time>2017-08-08T18:00:10Z</time>
      </trkpt>
      <trkpt lat="44.85772" lon="5.7939">
        <ele>857</ele>
        <time>2017-08-08T18:00:14Z</time>
      </trkpt>
      <trkpt lat="44.85781" lon="5.79384">
        <ele>858</ele>
        <time>2017-08-08T18:00:22Z</time>
      </trkpt>
      <trkpt lat="44.858" lon="5.79366">
        <ele>859</ele>
        <time>2017-08-08T18:00:38Z</time>
      </trkpt>
      <trkpt lat="44.85811" lon="5.79357">
        <ele>861</ele>
        <time>2017-08-08T18:00:58Z</time>
      </trkpt>
      <trkpt lat="44.8582" lon="5.79353">
        <ele>862</ele>
        <time>2017-08-08T18:01:07Z</time>
      </trkpt>
      <trkpt lat="44.85837" lon="5.79352">
        <ele>863</ele>
        <time>2017-08-08T18:01:16Z</time>
      </trkpt>
      <trkpt lat="44.85849" lon="5.79354">
        <ele>862</ele>
        <time>2017-08-08T18:01:19Z</time>
      </trkpt>
      <trkpt lat="44.85863" lon="5.79364">
        <ele>860</ele>
        <time>2017-08-08T18:01:37Z</time>
      </trkpt>
      <trkpt lat="44.8587" lon="5.79374">
        <ele>859</ele>
        <time>2017-08-08T18:01:42Z</time>
      </trkpt>
      <trkpt lat="44.85873" lon="5.79388">
        <ele>857</ele>
        <time>2017-08-08T18:01:50Z</time>
      </trkpt>
      <trkpt lat="44.85874" lon="5.79413">
        <ele>855</ele>
        <time>2017-08-08T18:01:52Z</time>
      </trkpt>
      <trkpt lat="44.85874" lon="5.79441">
        <ele>843</ele>
        <time>2017-08-08T18:01:55Z</time>
      </trkpt>
      <trkpt lat="44.85877" lon="5.79455">
        <ele>842</ele>
        <time>2017-08-08T18:02:04Z</time>
      </trkpt>
      <trkpt lat="44.85883" lon="5.79465">
        <ele>842</ele>
        <time>2017-08-08T18:02:20Z</time>
      </trkpt>
      <trkpt lat="44.85891" lon="5.79473">
        <ele>841</ele>
        <time>2017-08-08T18:02:28Z</time>
      </trkpt>
      <trkpt lat="44.85907" lon="5.79479">
        <ele>840</ele>
        <time>2017-08-08T18:02:31Z</time>
      </trkpt>
      <trkpt lat="44.8595" lon="5.79486">
        <ele>841</ele>
        <time>2017-08-08T18:02:45Z</time>
      </trkpt>
      <trkpt lat="44.85985" lon="5.79493">
        <ele>839</ele>
        <time>2017-08-08T18:02:53Z</time>
      </trkpt>
      <trkpt lat="44.8603" lon="5.79513">
        <ele>832</ele>
        <time>2017-08-08T18:03:01Z</time>
      </trkpt>
      <trkpt lat="44.86107" lon="5.79554">
        <ele>833</ele>
        <time>2017-08-08T18:03:05Z</time>
      </trkpt>
      <trkpt lat="44.86124" lon="5.7957">
        <ele>832</ele>
        <time>2017-08-08T18:03:25Z</time>
      </trkpt>
      <trkpt lat="44.86147" lon="5.79603">
        <ele>824</ele>
        <time>2017-08-08T18:03:39Z</time>
      </trkpt>
      <trkpt lat="44.86172" lon="5.79647">
        <ele>822</ele>
        <time>2017-08-08T18:03:58Z</time>
      </trkpt>
      <trkpt lat="44.86189" lon="5.79672">
        <ele>817</ele>
        <time>2017-08-08T18:04:10Z</time>
      </trkpt>
      <trkpt lat="44.86201" lon="5.79683">
        <ele>817</ele>
        <time>2017-08-08T18:04:12Z</time>
      </trkpt>
      <trkpt lat="44.86223" lon="5.79696">
        <ele>817</ele>
        <time>2017-08-08T18:04:24Z</time>
      </trkpt>
      <trkpt lat="44.86247" lon="5.79705">
        <ele>816</ele>
        <time>2017-08-08T18:04:37Z</time>
      </trkpt>
      <trkpt lat="44.86265" lon="5.79707">
        <ele>815</ele>
        <time>2017-08-08T18:04:44Z</time>
      </trkpt>
      <trkpt lat="44.863" lon="5.79711">
        <ele>814</ele>
        <time>2017-08-08T18:04:54Z</time>
      </trkpt>
      <trkpt lat="44.86323" lon="5.79719">
        <ele>813</ele>
        <time>2017-08-08T18:04:56Z</time>
      </trkpt>
      <trkpt lat="44.86342" lon="5.79723">
        <ele>811</ele>
        <time>2017-08-08T18:05:11Z</time>
      </trkpt>
      <trkpt lat="44.86365" lon="5.79721">
        <ele>811</ele>
        <time>2017-08-08T18:05:16Z</time>
      </trkpt>
      <trkpt lat="44.86384" lon="5.79715">
        <ele>811</ele>
        <time>2017-08-08T18:05:21Z</time>
      </trkpt>
      <trkpt lat="44.86436" lon="5.79702">
        <ele>809</ele>
        <time>2017-08-08T18:05:39Z</time>
      </trkpt>
      <trkpt lat="44.86508" lon="5.79683">
        <ele>807</ele>
        <time>2017-08-08T18:05:46Z</time>
      </trkpt>
      <trkpt lat="44.8652" lon="5.79676">
        <ele>806</ele>
        <time>2017-08-08T18:05:57Z</time>
      </trkpt>
      <trkpt lat="44.86531" lon="5.79664">
        <ele>813</ele>
        <time>2017-08-08T18:06:16Z</time>
      </trkpt>
      <trkpt lat="44.8655" lon="5.79644">
        <ele>813</ele>
        <time>2017-08-08T18:06:30Z</time>
      </trkpt>
      <trkpt lat="44.86571" lon="5.79637">
        <ele>813</ele>
        <time>2017-08-08T18:06:41Z</time>
      </trkpt>
      <trkpt lat="44.86595" lon="5.79637">
        <ele>808</ele>
        <time>2017-08-08T18:06:54Z</time>
      </trkpt>
      <trkpt lat="44.86622" lon="5.79647">
        <ele>807</ele>
        <time>2017-08-08T18:06:57Z</time>
      </trkpt>
      <trkpt lat="44.86653" lon="5.79665">
        <ele>802</ele>
        <time>2017-08-08T18:07:04Z</time>
      </trkpt>
      <trkpt lat="44.8668" lon="5.79682">
        <ele>790</ele>
        <time>2017-08-08T18:07:07Z</time>
      </trkpt>
      <trkpt lat="44.86694" lon="5.79685">
        <ele>788</ele>
        <time>2017-08-08T18:07:22Z</time>
      </trkpt>
      <trkpt lat="44.86705" lon="5.79682">
        <ele>787</ele>
        <time>2017-08-08T18:07:42Z</time>
      </trkpt>
      <trkpt lat="44.86715" lon="5.79672">
        <ele>787</ele>
        <time>2017-08-08T18:07:56Z</time>
      </trkpt>
      <trkpt lat="44.86723" lon="5.79657">
        <ele>797</ele>
        <time>2017-08-08T18:08:02Z</time>
      </trkpt>
      <trkpt lat="44.86731" lon="5.79603">
        <ele>801</ele>
        <time>2017-08-08T18:08:18Z</time>
      </trkpt>
      <trkpt lat="44.86738" lon="5.79587">
        <ele>801</ele>
        <time>2017-08-08T18:08:33Z</time>
      </trkpt>
      <trkpt lat="44.86745" lon="5.79582">
        <ele>804</ele>
        <time>2017-08-08T18:08:38Z</time>
      </trkpt>
      <trkpt lat="44.86753" lon="5.79584">
        <ele>801</ele>
        <time>2017-08-08T18:08:46Z</time>
      </trkpt>
      <trkpt lat="44.86766" lon="5.79603">
        <ele>799</ele>
        <time>2017-08-08T18:09:03Z</time>
      </trkpt>
      <trkpt lat="44.86782" lon="5.79661">
        <ele>795</ele>
        <time>2017-08-08T18:09:11Z</time>
      </trkpt>
      <trkpt lat="44.86791" lon="5.79678">
        <ele>787</ele>
        <time>2017-08-08T18:09:26Z</time>
      </trkpt>
      <trkpt lat="44.86805" lon="5.79687">
        <ele>788</ele>
        <time>2017-08-08T18:09:28Z</time>
      </trkpt>
      <trkpt lat="44.86816" lon="5.79688">
        <ele>789</ele>
        <time>2017-08-08T18:09:35Z</time>
      </trkpt>
      <trkpt lat="44.86849" lon="5.79685">
        <ele>792</ele>
        <time>2017-08-08T18:09:45Z</time>
      </trkpt>
      <trkpt lat="44.86885" lon="5.79688">
        <ele>792</ele>
        <time>2017-08-08T18:09:52Z</time>
      </trkpt>
      <trkpt lat="44.8693" lon="5.79699">
        <ele>795</ele>
        <time>2017-08-08T18:09:59Z</time>
      </trkpt>
      <trkpt lat="44.86963" lon="5.79716">
        <ele>794</ele>
        <time>2017-08-08T18:10:15Z</time>
      </trkpt>
      <trkpt lat="44.87014" lon="5.79746">
        <ele>794</ele>
        <time>2017-08-08T18:10:25Z</time>
      </trkpt>
      <trkpt lat="44.87046" lon="5.79758">
        <ele>784</ele>
        <time>2017-08-08T18:10:43Z</time>
      </trkpt>
      <trkpt lat="44.8707" lon="5.79763">
        <ele>787</ele>
        <time>2017-08-08T18:10:45Z</time>
      </trkpt>
      <trkpt lat="44.87086" lon="5.79762">
        <ele>790</ele>
        <time>2017-08-08T18:10:56Z</time>
      </trkpt>
      <trkpt lat="44.87101" lon="5.79759">
        <ele>788</ele>
        <time>2017-08-08T18:11:09Z</time>
      </trkpt>
      <trkpt lat="44.87115" lon="5.79757">
        <ele>787</ele>
        <time>2017-08-08T18:11:24Z</time>
      </trkpt>
      <trkpt lat="44.87128" lon="5.79758">
        <ele>786</ele>
        <time>2017-08-08T18:11:36Z</time>
      </trkpt>
      <trkpt lat="44.87145" lon="5.79765">
        <ele>787</ele>
        <time>2017-08-08T18:11:55Z</time>
      </trkpt>
      <trkpt lat="44.87176" lon="5.79781">
        <ele>784</ele>
        <time>2017-08-08T18:12:03Z</time>
      </trkpt>
      <trkpt lat="44.87197" lon="5.79784">
        <ele>782</ele>
        <time>2017-08-08T18:12:11Z</time>
      </trkpt>
      <trkpt lat="44.8722" lon="5.79782">
        <ele>782</ele>
        <time>2017-08-08T18:12:19Z</time>
      </trkpt>
      <trkpt lat="44.87243" lon="5.79773">
        <ele>786</ele>
        <time>2017-08-08T18:12:39Z</time>
      </trkpt>
      <trkpt lat="44.8726" lon="5.79762">
        <ele>782</ele>
        <time>2017-08-08T18:12:49Z</time>
      </trkpt>
      <trkpt lat="44.87284" lon="5.79742">
        <ele>793</ele>
        <time>2017-08-08T18:13:08Z</time>
      </trkpt>
      <trkpt lat="44.87304" lon="5.79721">
        <ele>791</ele>
        <time>2017-08-08T18:13:25Z</time>
      </trkpt>
      <trkpt lat="44.87338" lon="5.79686">
        <ele>783</ele>
        <time>2017-08-08T18:13:40Z</time>
      </trkpt>
      <trkpt lat="44.87349" lon="5.7967">
        <ele>785</ele>
        <time>2017-08-08T18:13:54Z</time>
      </trkpt>
      <trkpt lat="44.87355" lon="5.79657">
        <ele>794</ele>
        <time>2017-08-08T18:14:00Z</time>
      </trkpt>
      <trkpt lat="44.87358" lon="5.79631">
        <ele>796</ele>
        <time>2017-08-08T18:14:11Z</time>
      </trkpt>
      <trkpt lat="44.8736" lon="5.7961">
        <ele>798</ele>
        <time>2017-08-08T18:14:25Z</time>
      </trkpt>
      <trkpt lat="44.87369" lon="5.79589">
        <ele>798</ele>
        <time>2017-08-08T18:14:29Z</time>
      </trkpt>
      <trkpt lat="44.8738" lon="5.79579">
        <ele>809</ele>
        <time>2017-08-08T18:14:39Z</time>
      </trkpt>
      <trkpt lat="44.87392" lon="5.79575">
        <ele>807</ele>
        <time>2017-08-08T18:14:49Z</time>
      </trkpt>
      <trkpt lat="44.87402" lon="5.79576">
        <ele>804</ele>
        <time>2017-08-08T18:15:03Z</time>
      </trkpt>
      <trkpt lat="44.8741" lon="5.7958">
        <ele>800</ele>
        <time>2017-08-08T18:15:08Z</time>
      </trkpt>
      <trkpt lat="44.87421" lon="5.79595">
        <ele>798</ele>
        <time>2017-08-08T18:15:27Z</time>
      </trkpt>
      <trkpt lat="44.87434" lon="5.7963">
        <ele>796</ele>
        <time>2017-08-08T18:15:39Z</time>
      </trkpt>
      <trkpt lat="44.87461" lon="5.79683">
        <ele>782</ele>
        <time>2017-08-08T18:15:43Z</time>
      </trkpt>
      <trkpt lat="44.87482" lon="5.79733">
        <ele>781</ele>
        <time>2017-08-08T18:15:57Z</time>
      </trkpt>
      <trkpt lat="44.87494" lon="5.79774">
        <ele>767</ele>
        <time>2017-08-08T18:16:07Z</time>
      </trkpt>
      <trkpt lat="44.875" lon="5.79795">
        <ele>775</ele>
        <time>2017-08-08T18:16:18Z</time>
      </trkpt>
      <trkpt lat="44.87507" lon="5.79803">
        <ele>778</ele>
        <time>2017-08-08T18:16:33Z</time>
      </trkpt>
      <trkpt lat="44.87516" lon="5.79807">
        <ele>778</ele>
        <time>2017-08-08T18:16:44Z</time>
      </trkpt>
      <trkpt lat="44.87532" lon="5.79811">
        <ele>779</ele>
        <time>2017-08-08T18:16:54Z</time>
      </trkpt>
      <trkpt lat="44.87578" lon="5.79825">
        <ele>780</ele>
        <time>2017-08-08T18:17:01Z</time>
      </trkpt>
      <trkpt lat="44.876" lon="5.79828">
        <ele>777</ele>
        <time>2017-08-08T18:17:06Z</time>
      </trkpt>
      <trkpt lat="44.87612" lon="5.79824">
        <ele>776</ele>
        <time>2017-08-08T18:17:16Z</time>
      </trkpt>
      <trkpt lat="44.87625" lon="5.79811">
        <ele>774</ele>
        <time>2017-08-08T18:17:27Z</time>
      </trkpt>
      <trkpt lat="44.87646" lon="5.79782">
        <ele>776</ele>
        <time>2017-08-08T18:17:35Z</time>
      </trkpt>
      <trkpt lat="44.87666" lon="5.7975">
        <ele>779</ele>
        <time>2017-08-08T18:17:51Z</time>
      </trkpt>
      <trkpt lat="44.87668" lon="5.79745">
        <ele>773</ele>
        <time>2017-08-08T18:18:06Z</time>
      </trkpt>
      <trkpt lat="44.87693" lon="5.79691">
        <ele>760</ele>
        <time>2017-08-08T18:18:23Z</time>
      </trkpt>
      <trkpt lat="44.87725" lon="5.7964">
        <ele>768</ele>
        <time>2017-08-08T18:18:31Z</time>
      </trkpt>
      <trkpt lat="44.87738" lon="5.79609">
        <ele>770</ele>
        <time>2017-08-08T18:18:44Z</time>
      </trkpt>
      <trkpt lat="44.87751" lon="5.79569">
        <ele>752</ele>
        <time>2017-08-08T18:18:53Z</time>
      </trkpt>
      <trkpt lat="44.87771" lon="5.79502">
        <ele>755</ele>
        <time>2017-08-08T18:19:05Z</time>
      </trkpt>
      <trkpt lat="44.87784" lon="5.79469">
        <ele>755</ele>
        <time>2017-08-08T18:19:16Z</time>
      </trkpt>
      <trkpt lat="44.87802" lon="5.79432">
        <ele>749</ele>
        <time>2017-08-08T18:19:22Z</time>
      </trkpt>
      <trkpt lat="44.87807" lon="5.79418">
        <ele>746</ele>
        <time>2017-08-08T18:19:41Z</time>
      </trkpt>
      <trkpt lat="44.8781" lon="5.79392">
        <ele>756</ele>
        <time>2017-08-08T18:19:58Z</time>
      </trkpt>
      <trkpt lat="44.87814" lon="5.79373">
        <ele>758</ele>
        <time>2017-08-08T18:20:14Z</time>
      </trkpt>
      <trkpt lat="44.8783" lon="5.79335">
        <ele>742</ele>
        <time>2017-08-08T18:20:20Z</time>
      </trkpt>
      <trkpt lat="44.87839" lon="5.79309">
        <ele>722</ele>
        <time>2017-08-08T18:20:30Z</time>
      </trkpt>
      <trkpt lat="44.87843" lon="5.79303">
        <ele>720</ele>
        <time>2017-08-08T18:20:49Z</time>
      </trkpt>
      <trkpt lat="44.87846" lon="5.79304">
        <ele>719</ele>
        <time>2017-08-08T18:20:54Z</time>
      </trkpt>
      <trkpt lat="44.87848" lon="5.79307">
        <ele>719</ele>
        <time>2017-08-08T18:21:14Z</time>
      </trkpt>
      <trkpt lat="44.87847" lon="5.79315">
        <ele>721</ele>
        <time>2017-08-08T18:21:17Z</time>
      </trkpt>
      <trkpt lat="44.87822" lon="5.79363">
        <ele>755</ele>
        <time>2017-08-08T18:21:22Z</time>
      </trkpt>
      <trkpt lat="44.87815" lon="5.7938">
        <ele>757</ele>
        <time>2017-08-08T18:21:24Z</time>
      </trkpt>
      <trkpt lat="44.87811" lon="5.79414">
        <ele>750</ele>
        <time>2017-08-08T18:21:26Z</time>
      </trkpt>
      <trkpt lat="44.87806" lon="5.79431">
        <ele>747</ele>
        <time>2017-08-08T18:21:31Z</time>
      </trkpt>
      <trkpt lat="44.87786" lon="5.79484">
        <ele>754</ele>
        <time>2017-08-08T18:21:51Z</time>
      </trkpt>
      <trkpt lat="44.87783" lon="5.79509">
        <ele>745</ele>
        <time>2017-08-08T18:22:10Z</time>
      </trkpt>
      <trkpt lat="44.87779" lon="5.79591">
        <ele>725</ele>
        <time>2017-08-08T18:22:18Z</time>
      </trkpt>
      <trkpt lat="44.87769" lon="5.79658">
        <ele>717</ele>
        <time>2017-08-08T18:22:24Z</time>
      </trkpt>
      <trkpt lat="44.87773" lon="5.79667">
        <ele>695</ele>
        <time>2017-08-08T18:22:36Z</time>
      </trkpt>
      <trkpt lat="44.87779" lon="5.79664">
        <ele>712</ele>
        <time>2017-08-08T18:22:42Z</time>
      </trkpt>
      <trkpt lat="44.87783" lon="5.79656">
        <ele>710</ele>
        <time>2017-08-08T18:22:44Z</time>
      </trkpt>
      <trkpt lat="44.87793" lon="5.79625">
        <ele>710</ele>
        <time>2017-08-08T18:22:53Z</time>
      </trkpt>
      <trkpt lat="44.87815" lon="5.79562">
        <ele>722</ele>
        <time>2017-08-08T18:23:01Z</time>
      </trkpt>
      <trkpt lat="44.87863" lon="5.79354">
        <ele>706</ele>
        <time>2017-08-08T18:23:08Z</time>
      </trkpt>
      <trkpt lat="44.87868" lon="5.7934">
        <ele>705</ele>
        <time>2017-08-08T18:23:22Z</time>
      </trkpt>
      <trkpt lat="44.87872" lon="5.79334">
        <ele>703</ele>
        <time>2017-08-08T18:23:31Z</time>
      </trkpt>
      <trkpt lat="44.87875" lon="5.79334">
        <ele>701</ele>
        <time>2017-08-08T18:23:50Z</time>
      </trkpt>
      <trkpt lat="44.8788" lon="5.79335">
        <ele>698</ele>
        <time>2017-08-08T18:24:02Z</time>
      </trkpt>
      <trkpt lat="44.87881" lon="5.79338">
        <ele>697</ele>
        <time>2017-08-08T18:24:18Z</time>
      </trkpt>
      <trkpt lat="44.87883" lon="5.79348">
        <ele>696</ele>
        <time>2017-08-08T18:24:30Z</time>
      </trkpt>
      <trkpt lat="44.8788" lon="5.79367">
        <ele>697</ele>
        <time>2017-08-08T18:24:40Z</time>
      </trkpt>
      <trkpt lat="44.87857" lon="5.79539">
        <ele>675</ele>
        <time>2017-08-08T18:24:58Z</time>
      </trkpt>
      <trkpt lat="44.8786" lon="5.79589">
        <ele>657</ele>
        <time>2017-08-08T18:25:09Z</time>
      </trkpt>
      <trkpt lat="44.87867" lon="5.79633">
        <ele>642</ele>
        <time>2017-08-08T18:25:13Z</time>
      </trkpt>
      <trkpt lat="44.87868" lon="5.79669">
        <ele>615</ele>
        <time>2017-08-08T18:25:18Z</time>
      </trkpt>
      <trkpt lat="44.87866" lon="5.79684">
        <ele>613</ele>
        <time>2017-08-08T18:25:28Z</time>
      </trkpt>
      <trkpt lat="44.87862" lon="5.79707">
        <ele>608</ele>
        <time>2017-08-08T18:25:37Z</time>
      </trkpt>
      <trkpt lat="44.87864" lon="5.79713">
        <ele>605</ele>
        <time>2017-08-08T18:25:56Z</time>
      </trkpt>
      <trkpt lat="44.87866" lon="5.79713">
        <ele>604</ele>
        <time>2017-08-08T18:26:00Z</time>
      </trkpt>
      <trkpt lat="44.8787" lon="5.79703">
        <ele>605</ele>
        <time>2017-08-08T18:26:05Z</time>
      </trkpt>
      <trkpt lat="44.87879" lon="5.79626">
        <ele>638</ele>
        <time>2017-08-08T18:26:13Z</time>
      </trkpt>
      <trkpt lat="44.87883" lon="5.79544">
        <ele>665</ele>
        <time>2017-08-08T18:26:26Z</time>
      </trkpt>
      <trkpt lat="44.87887" lon="5.79504">
        <ele>666</ele>
        <time>2017-08-08T18:26:38Z</time>
      </trkpt>
      <trkpt lat="44.87895" lon="5.79457">
        <ele>679</ele>
        <time>2017-08-08T18:26:47Z</time>
      </trkpt>
      <trkpt lat="44.87894" lon="5.79426">
        <ele>678</ele>
        <time>2017-08-08T18:27:02Z</time>
      </trkpt>
      <trkpt lat="44.87899" lon="5.79386">
        <ele>688</ele>
        <time>2017-08-08T18:27:05Z</time>
      </trkpt>
      <trkpt lat="44.87905" lon="5.79354">
        <ele>687</ele>
        <time>2017-08-08T18:27:12Z</time>
      </trkpt>
      <trkpt lat="44.87916" lon="5.79311">
        <ele>692</ele>
        <time>2017-08-08T18:27:21Z</time>
      </trkpt>
      <trkpt lat="44.87919" lon="5.79284">
        <ele>659</ele>
        <time>2017-08-08T18:27:26Z</time>
      </trkpt>
      <trkpt lat="44.87921" lon="5.79279">
        <ele>660</ele>
        <time>2017-08-08T18:27:43Z</time>
      </trkpt>
      <trkpt lat="44.87924" lon="5.79278">
        <ele>660</ele>
        <time>2017-08-08T18:28:02Z</time>
      </trkpt>
      <trkpt lat="44.87927" lon="5.7928">
        <ele>658</ele>
        <time>2017-08-08T18:28:21Z</time>
      </trkpt>
      <trkpt lat="44.87927" lon="5.79288">
        <ele>657</ele>
        <time>2017-08-08T18:28:35Z</time>
      </trkpt>
      <trkpt lat="44.87918" lon="5.79319">
        <ele>663</ele>
        <time>2017-08-08T18:28:52Z</time>
      </trkpt>
      <trkpt lat="44.87911" lon="5.79354">
        <ele>686</ele>
        <time>2017-08-08T18:29:08Z</time>
      </trkpt>
      <trkpt lat="44.87907" lon="5.79417">
        <ele>669</ele>
        <time>2017-08-08T18:29:25Z</time>
      </trkpt>
      <trkpt lat="44.87905" lon="5.79513">
        <ele>658</ele>
        <time>2017-08-08T18:29:29Z</time>
      </trkpt>
      <trkpt lat="44.87905" lon="5.79559">
        <ele>652</ele>
        <time>2017-08-08T18:29:47Z</time>
      </trkpt>
      <trkpt lat="44.87905" lon="5.79576">
        <ele>642</ele>
        <time>2017-08-08T18:29:51Z</time>
      </trkpt>
      <trkpt lat="44.87907" lon="5.79582">
        <ele>638</ele>
        <time>2017-08-08T18:30:09Z</time>
      </trkpt>
      <trkpt lat="44.8791" lon="5.79582">
        <ele>634</ele>
        <time>2017-08-08T18:30:24Z</time>
      </trkpt>
      <trkpt lat="44.87912" lon="5.7958">
        <ele>632</ele>
        <time>2017-08-08T18:30:39Z</time>
      </trkpt>
      <trkpt lat="44.87914" lon="5.79573">
        <ele>638</ele>
        <time>2017-08-08T18:30:57Z</time>
      </trkpt>
      <trkpt lat="44.87913" lon="5.79553">
        <ele>653</ele>
        <time>2017-08-08T18:31:13Z</time>
      </trkpt>
      <trkpt lat="44.87914" lon="5.79531">
        <ele>658</ele>
        <time>2017-08-08T18:31:33Z</time>
      </trkpt>
      <trkpt lat="44.87922" lon="5.79493">
        <ele>644</ele>
        <time>2017-08-08T18:31:42Z</time>
      </trkpt>
      <trkpt lat="44.8794" lon="5.79408">
        <ele>649</ele>
        <time>2017-08-08T18:31:51Z</time>
      </trkpt>
      <trkpt lat="44.87953" lon="5.79349">
        <ele>647</ele>
        <time>2017-08-08T18:31:56Z</time>
      </trkpt>
      <trkpt lat="44.87965" lon="5.79319">
        <ele>645</ele>
        <time>2017-08-08T18:32:00Z</time>
      </trkpt>
      <trkpt lat="44.87976" lon="5.79294">
        <ele>642</ele>
        <time>2017-08-08T18:32:17Z</time>
      </trkpt>
      <trkpt lat="44.87981" lon="5.79294">
        <ele>641</ele>
        <time>2017-08-08T18:32:20Z</time>
      </trkpt>
      <trkpt lat="44.87983" lon="5.79301">
        <ele>640</ele>
        <time>2017-08-08T18:32:37Z</time>
      </trkpt>
      <trkpt lat="44.8797" lon="5.79331">
        <ele>643</ele>
        <time>2017-08-08T18:32:40Z</time>
      </trkpt>
      <trkpt lat="44.87967" lon="5.79348">
        <ele>642</ele>
        <time>2017-08-08T18:32:59Z</time>
      </trkpt>
      <trkpt lat="44.87966" lon="5.79363">
        <ele>643</ele>
        <time>2017-08-08T18:33:15Z</time>
      </trkpt>
      <trkpt lat="44.87967" lon="5.79433">
        <ele>633</ele>
        <time>2017-08-08T18:33:22Z</time>
      </trkpt>
      <trkpt lat="44.87962" lon="5.79494">
        <ele>629</ele>
        <time>2017-08-08T18:33:30Z</time>
      </trkpt>
      <trkpt lat="44.87964" lon="5.79502">
        <ele>612</ele>
        <time>2017-08-08T18:33:42Z</time>
      </trkpt>
      <trkpt lat="44.87968" lon="5.79506">
        <ele>610</ele>
        <time>2017-08-08T18:33:58Z</time>
      </trkpt>
      <trkpt lat="44.87974" lon="5.79506">
        <ele>608</ele>
        <time>2017-08-08T18:34:04Z</time>
      </trkpt>
      <trkpt lat="44.87977" lon="5.79502">
        <ele>607</ele>
        <time>2017-08-08T18:34:13Z</time>
      </trkpt>
      <trkpt lat="44.8799" lon="5.79481">
        <ele>619</ele>
        <time>2017-08-08T18:34:32Z</time>
      </trkpt>
      <trkpt lat="44.88024" lon="5.79401">
        <ele>602</ele>
        <time>2017-08-08T18:34:38Z</time>
      </trkpt>
      <trkpt lat="44.88039" lon="5.79361">
        <ele>594</ele>
        <time>2017-08-08T18:34:42Z</time>
      </trkpt>
      <trkpt lat="44.88042" lon="5.7934">
        <ele>593</ele>
        <time>2017-08-08T18:34:56Z</time>
      </trkpt>
      <trkpt lat="44.88039" lon="5.79309">
        <ele>588</ele>
        <time>2017-08-08T18:35:12Z</time>
      </trkpt>
      <trkpt lat="44.8804" lon="5.79299">
        <ele>587</ele>
        <time>2017-08-08T18:35:15Z</time>
      </trkpt>
      <trkpt lat="44.8804" lon="5.79298">
        <ele>586</ele>
        <time>2017-08-08T18:35:26Z</time>
      </trkpt>
      <trkpt lat="44.88044" lon="5.7929">
        <ele>584</ele>
        <time>2017-08-08T18:35:43Z</time>
      </trkpt>
      <trkpt lat="44.88043" lon="5.79283">
        <ele>584</ele>
        <time>2017-08-08T18:36:02Z</time>
      </trkpt>
      <trkpt lat="44.8804" lon="5.79271">
        <ele>585</ele>
        <time>2017-08-08T18:36:21Z</time>
      </trkpt>
      <trkpt lat="44.8803" lon="5.79255">
        <ele>590</ele>
        <time>2017-08-08T18:36:31Z</time>
      </trkpt>
      <trkpt lat="44.88011" lon="5.79239">
        <ele>596</ele>
        <time>2017-08-08T18:36:37Z</time>
      </trkpt>
      <trkpt lat="44.87997" lon="5.79225">
        <ele>625</ele>
        <time>2017-08-08T18:36:39Z</time>
      </trkpt>
      <trkpt lat="44.8799" lon="5.79209">
        <ele>625</ele>
        <time>2017-08-08T18:36:51Z</time>
      </trkpt>
      <trkpt lat="44.8798" lon="5.79169">
        <ele>615</ele>
        <time>2017-08-08T18:37:00Z</time>
      </trkpt>
      <trkpt lat="44.8796" lon="5.79131">
        <ele>610</ele>
        <time>2017-08-08T18:37:04Z</time>
      </trkpt>
      <trkpt lat="44.87953" lon="5.79113">
        <ele>610</ele>
        <time>2017-08-08T18:37:22Z</time>
      </trkpt>
      <trkpt lat="44.87923" lon="5.79072">
        <ele>613</ele>
        <time>2017-08-08T18:37:24Z</time>
      </trkpt>
      <trkpt lat="44.87917" lon="5.79061">
        <ele>607</ele>
        <time>2017-08-08T18:37:42Z</time>
      </trkpt>
      <trkpt lat="44.87912" lon="5.79047">
        <ele>645</ele>
        <time>2017-08-08T18:37:46Z</time>
      </trkpt>
      <trkpt lat="44.87907" lon="5.79011">
        <ele>634</ele>
        <time>2017-08-08T18:37:50Z</time>
      </trkpt>
      <trkpt lat="44.87906" lon="5.78974">
        <ele>646</ele>
        <time>2017-08-08T18:38:02Z</time>
      </trkpt>
      <trkpt lat="44.8791" lon="5.7896">
        <ele>650</ele>
        <time>2017-08-08T18:38:07Z</time>
      </trkpt>
      <trkpt lat="44.87915" lon="5.7895">
        <ele>650</ele>
        <time>2017-08-08T18:38:20Z</time>
      </trkpt>
      <trkpt lat="44.87922" lon="5.78938">
        <ele>609</ele>
        <time>2017-08-08T18:38:25Z</time>
      </trkpt>
      <trkpt lat="44.87925" lon="5.78927">
        <ele>615</ele>
        <time>2017-08-08T18:38:35Z</time>
      </trkpt>
      <trkpt lat="44.87926" lon="5.78918">
        <ele>619</ele>
        <time>2017-08-08T18:38:42Z</time>
      </trkpt>
      <trkpt lat="44.87923" lon="5.78897">
        <ele>619</ele>
        <time>2017-08-08T18:38:56Z</time>
      </trkpt>
      <trkpt lat="44.87925" lon="5.78885">
        <ele>617</ele>
        <time>2017-08-08T18:38:59Z</time>
      </trkpt>
      <trkpt lat="44.87928" lon="5.78877">
        <ele>617</ele>
        <time>2017-08-08T18:39:14Z</time>
      </trkpt>
      <trkpt lat="44.87938" lon="5.78867">
        <ele>615</ele>
        <time>2017-08-08T18:39:26Z</time>
      </trkpt>
      <trkpt lat="44.8795" lon="5.78857">
        <ele>612</ele>
        <time>2017-08-08T18:39:33Z</time>
      </trkpt>
      <trkpt lat="44.87957" lon="5.78847">
        <ele>609</ele>
        <time>2017-08-08T18:39:41Z</time>
      </trkpt>
      <trkpt lat="44.87958" lon="5.78817">
        <ele>612</ele>
        <time>2017-08-08T18:39:52Z</time>
      </trkpt>
      <trkpt lat="44.8796" lon="5.78785">
        <ele>610</ele>
        <time>2017-08-08T18:40:11Z</time>
      </trkpt>
      <trkpt lat="44.87957" lon="5.78764">
        <ele>611</ele>
        <time>2017-08-08T18:40:14Z</time>
      </trkpt>
      <trkpt lat="44.8795" lon="5.7875">
        <ele>607</ele>
        <time>2017-08-08T18:40:34Z</time>
      </trkpt>
      <trkpt lat="44.87938" lon="5.78733">
        <ele>613</ele>
        <time>2017-08-08T18:40:38Z</time>
      </trkpt>
      <trkpt lat="44.87919" lon="5.78688">
        <ele>608</ele>
        <time>2017-08-08T18:40:46Z</time>
      </trkpt>
      <trkpt lat="44.87916" lon="5.78673">
        <ele>631</ele>
        <time>2017-08-08T18:41:01Z</time>
      </trkpt>
      <trkpt lat="44.87916" lon="5.78645">
        <ele>624</ele>
        <time>2017-08-08T18:41:21Z</time>
      </trkpt>
      <trkpt lat="44.87914" lon="5.78627">
        <ele>621</ele>
        <time>2017-08-08T18:41:31Z</time>
      </trkpt>
      <trkpt lat="44.87905" lon="5.78608">
        <ele>615</ele>
        <time>2017-08-08T18:41:46Z</time>
      </trkpt>
      <trkpt lat="44.8789" lon="5.78591">
        <ele>616</ele>
        <time>2017-08-08T18:41:52Z</time>
      </trkpt>
      <trkpt lat="44.87879" lon="5.78583">
        <ele>595</ele>
        <time>2017-08-08T18:41:57Z</time>
      </trkpt>
      <trkpt lat="44.87864" lon="5.78578">
        <ele>602</ele>
        <time>2017-08-08T18:42:11Z</time>
      </trkpt>
      <trkpt lat="44.87822" lon="5.78568">
        <ele>633</ele>
        <time>2017-08-08T18:42:28Z</time>
      </trkpt>
      <trkpt lat="44.8778" lon="5.78547">
        <ele>633</ele>
        <time>2017-08-08T18:42:38Z</time>
      </trkpt>
      <trkpt lat="44.87725" lon="5.78518">
        <ele>650</ele>
        <time>2017-08-08T18:42:53Z</time>
      </trkpt>
      <trkpt lat="44.87718" lon="5.78509">
        <ele>650</ele>
        <time>2017-08-08T18:42:57Z</time>
      </trkpt>
      <trkpt lat="44.87709" lon="5.78492">
        <ele>618</ele>
        <time>2017-08-08T18:43:07Z</time>
      </trkpt>
      <trkpt lat="44.87701" lon="5.78483">
        <ele>619</ele>
        <time>2017-08-08T18:43:22Z</time>
      </trkpt>
      <trkpt lat="44.87684" lon="5.78479">
        <ele>624</ele>
        <time>2017-08-08T18:43:35Z</time>
      </trkpt>
      <trkpt lat="44.87664" lon="5.78476">
        <ele>645</ele>
        <time>2017-08-08T18:43:43Z</time>
      </trkpt>
      <trkpt lat="44.87639" lon="5.78469">
        <ele>644</ele>
        <time>2017-08-08T18:43:57Z</time>
      </trkpt>
      <trkpt lat="44.87632" lon="5.78465">
        <ele>644</ele>
        <time>2017-08-08T18:44:07Z</time>
      </trkpt>
      <trkpt lat="44.8762" lon="5.78452">
        <ele>642</ele>
        <time>2017-08-08T18:44:11Z</time>
      </trkpt>
      <trkpt lat="44.87609" lon="5.78443">
        <ele>640</ele>
        <time>2017-08-08T18:44:26Z</time>
      </trkpt>
      <trkpt lat="44.876" lon="5.78441">
        <ele>640</ele>
        <time>2017-08-08T18:44:40Z</time>
      </trkpt>
      <trkpt lat="44.87585" lon="5.78446">
        <ele>642</ele>
        <time>2017-08-08T18:44:46Z</time>
      </trkpt>
      <trkpt lat="44.8757" lon="5.78448">
        <ele>663</ele>
        <time>2017-08-08T18:45:01Z</time>
      </trkpt>
      <trkpt lat="44.87555" lon="5.78437">
        <ele>663</ele>
        <time>2017-08-08T18:45:13Z</time>
      </trkpt>
      <trkpt lat="44.87533" lon="5.78433">
        <ele>668</ele>
        <time>2017-08-08T18:45:16Z</time>
      </trkpt>
      <trkpt lat="44.87516" lon="5.78421">
        <ele>667</ele>
        <time>2017-08-08T18:45:27Z</time>
      </trkpt>
      <trkpt lat="44.87501" lon="5.78396">
        <ele>642</ele>
        <time>2017-08-08T18:45:45Z</time>
      </trkpt>
      <trkpt lat="44.87487" lon="5.78373">
        <ele>661</ele>
        <time>2017-08-08T18:46:05Z</time>
      </trkpt>
      <trkpt lat="44.87469" lon="5.78357">
        <ele>661</ele>
        <time>2017-08-08T18:46:18Z</time>
      </trkpt>
      <trkpt lat="44.87464" lon="5.78346">
        <ele>660</ele>
        <time>2017-08-08T18:46:27Z</time>
      </trkpt>
      <trkpt lat="44.87459" lon="5.78327">
        <ele>632</ele>
        <time>2017-08-08T18:46:45Z</time>
      </trkpt>
      <trkpt lat="44.87454" lon="5.78316">
        <ele>632</ele>
        <time>2017-08-08T18:46:57Z</time>
      </trkpt>
      <trkpt lat="44.87447" lon="5.78309">
        <ele>633</ele>
        <time>2017-08-08T18:47:13Z</time>
      </trkpt>
      <trkpt lat="44.87439" lon="5.78305">
        <ele>635</ele>
        <time>2017-08-08T18:47:28Z</time>
      </trkpt>
      <trkpt lat="44.87428" lon="5.78306">
        <ele>640</ele>
        <time>2017-08-08T18:47:34Z</time>
      </trkpt>
      <trkpt lat="44.87418" lon="5.78302">
        <ele>640</ele>
        <time>2017-08-08T18:47:43Z</time>
      </trkpt>
      <trkpt lat="44.87407" lon="5.78296">
        <ele>676</ele>
        <time>2017-08-08T18:47:47Z</time>
      </trkpt>
      <trkpt lat="44.87393" lon="5.78282">
        <ele>676</ele>
        <time>2017-08-08T18:47:56Z</time>
      </trkpt>
      <trkpt lat="44.87369" lon="5.78245">
        <ele>661</ele>
        <time>2017-08-08T18:48:04Z</time>
      </trkpt>
      <trkpt lat="44.87356" lon="5.78229">
        <ele>666</ele>
        <time>2017-08-08T18:48:23Z</time>
      </trkpt>
      <trkpt lat="44.87344" lon="5.78198">
        <ele>662</ele>
        <time>2017-08-08T18:48:31Z</time>
      </trkpt>
      <trkpt lat="44.87334" lon="5.78163">
        <ele>667</ele>
        <time>2017-08-08T18:48:40Z</time>
      </trkpt>
      <trkpt lat="44.87323" lon="5.78118">
        <ele>680</ele>
        <time>2017-08-08T18:48:50Z</time>
      </trkpt>
      <trkpt lat="44.87324" lon="5.78099">
        <ele>675</ele>
        <time>2017-08-08T18:49:06Z</time>
      </trkpt>
      <trkpt lat="44.87331" lon="5.78075">
        <ele>664</ele>
        <time>2017-08-08T18:49:16Z</time>
      </trkpt>
      <trkpt lat="44.87333" lon="5.78064">
        <ele>664</ele>
        <time>2017-08-08T18:49:21Z</time>
      </trkpt>
      <trkpt lat="44.87331" lon="5.78056">
        <ele>664</ele>
        <time>2017-08-08T18:49:28Z</time>
      </trkpt>
      <trkpt lat="44.87327" lon="5.78049">
        <ele>664</ele>
        <time>2017-08-08T18:49:45Z</time>
      </trkpt>
      <trkpt lat="44.87319" lon="5.78047">
        <ele>665</ele>
        <time>2017-08-08T18:49:53Z</time>
      </trkpt>
      <trkpt lat="44.87305" lon="5.78049">
        <ele>666</ele>
        <time>2017-08-08T18:50:05Z</time>
      </trkpt>
      <trkpt lat="44.87282" lon="5.78053">
        <ele>670</ele>
        <time>2017-08-08T18:50:11Z</time>
      </trkpt>
      <trkpt lat="44.8725" lon="5.78062">
        <ele>677</ele>
        <time>2017-08-08T18:50:31Z</time>
      </trkpt>
      <trkpt lat="44.87218" lon="5.78078">
        <ele>683</ele>
        <time>2017-08-08T18:50:41Z</time>
      </trkpt>
      <trkpt lat="44.87185" lon="5.78089">
        <ele>703</ele>
        <time>2017-08-08T18:50:52Z</time>
      </trkpt>
      <trkpt lat="44.87176" lon="5.7809">
        <ele>700</ele>
        <time>2017-08-08T18:50:59Z</time>
      </trkpt>
      <trkpt lat="44.8716" lon="5.78089">
        <ele>701</ele>
        <time>2017-08-08T18:51:06Z</time>
      </trkpt>
      <trkpt lat="44.87101" lon="5.7807">
        <ele>694</ele>
        <time>2017-08-08T18:51:13Z</time>
      </trkpt>
      <trkpt lat="44.87068" lon="5.78055">
        <ele>708</ele>
        <time>2017-08-08T18:51:33Z</time>
      </trkpt>
      <trkpt lat="44.87062" lon="5.78051">
        <ele>708</ele>
        <time>2017-08-08T18:51:35Z</time>
      </trkpt>
      <trkpt lat="44.87049" lon="5.78037">
        <ele>709</ele>
        <time>2017-08-08T18:51:48Z</time>
      </trkpt>
      <trkpt lat="44.87031" lon="5.78009">
        <ele>710</ele>
        <time>2017-08-08T18:52:02Z</time>
      </trkpt>
      <trkpt lat="44.87007" lon="5.77966">
        <ele>697</ele>
        <time>2017-08-08T18:52:10Z</time>
      </trkpt>
      <trkpt lat="44.86991" lon="5.77932">
        <ele>705</ele>
        <time>2017-08-08T18:52:30Z</time>
      </trkpt>
      <trkpt lat="44.8698" lon="5.77909">
        <ele>693</ele>
        <time>2017-08-08T18:52:32Z</time>
      </trkpt>
      <trkpt lat="44.86968" lon="5.77894">
        <ele>692</ele>
        <time>2017-08-08T18:52:42Z</time>
      </trkpt>
      <trkpt lat="44.86958" lon="5.77889">
        <ele>693</ele>
        <time>2017-08-08T18:52:50Z</time>
      </trkpt>
      <trkpt lat="44.86948" lon="5.77888">
        <ele>693</ele>
        <time>2017-08-08T18:53:07Z</time>
      </trkpt>
      <trkpt lat="44.86931" lon="5.77895">
        <ele>697</ele>
        <time>2017-08-08T18:53:14Z</time>
      </trkpt>
      <trkpt lat="44.86892" lon="5.77922">
        <ele>713</ele>
        <time>2017-08-08T18:53:19Z</time>
      </trkpt>
      <trkpt lat="44.86854" lon="5.7794">
        <ele>712</ele>
        <time>2017-08-08T18:53:38Z</time>
      </trkpt>
      <trkpt lat="44.8682" lon="5.77951">
        <ele>708</ele>
        <time>2017-08-08T18:53:48Z</time>
      </trkpt>
      <trkpt lat="44.86801" lon="5.7796">
        <ele>709</ele>
        <time>2017-08-08T18:53:51Z</time>
      </trkpt>
      <trkpt lat="44.86785" lon="5.77976">
        <ele>710</ele>
        <time>2017-08-08T18:53:56Z</time>
      </trkpt>
      <trkpt lat="44.86761" lon="5.78">
        <ele>719</ele>
        <time>2017-08-08T18:54:03Z</time>
      </trkpt>
      <trkpt lat="44.86741" lon="5.78015">
        <ele>721</ele>
        <time>2017-08-08T18:54:08Z</time>
      </trkpt>
      <trkpt lat="44.86722" lon="5.78025">
        <ele>726</ele>
        <time>2017-08-08T18:54:21Z</time>
      </trkpt>
      <trkpt lat="44.86706" lon="5.78028">
        <ele>728</ele>
        <time>2017-08-08T18:54:40Z</time>
      </trkpt>
      <trkpt lat="44.86689" lon="5.78025">
        <ele>728</ele>
        <time>2017-08-08T18:54:46Z</time>
      </trkpt>
      <trkpt lat="44.86682" lon="5.7802">
        <ele>728</ele>
        <time>2017-08-08T18:55:01Z</time>
      </trkpt>
      <trkpt lat="44.86676" lon="5.78011">
        <ele>728</ele>
        <time>2017-08-08T18:55:20Z</time>
      </trkpt>
      <trkpt lat="44.86666" lon="5.77982">
        <ele>735</ele>
        <time>2017-08-08T18:55:25Z</time>
      </trkpt>
      <trkpt lat="44.86656" lon="5.7796">
        <ele>738</ele>
        <time>2017-08-08T18:55:34Z</time>
      </trkpt>
      <trkpt lat="44.86638" lon="5.77922">
        <ele>737</ele>
        <time>2017-08-08T18:55:41Z</time>
      </trkpt>
      <trkpt lat="44.8663" lon="5.779">
        <ele>731</ele>
        <time>2017-08-08T18:55:57Z</time>
      </trkpt>
      <trkpt lat="44.86619" lon="5.77842">
        <ele>731</ele>
        <time>2017-08-08T18:56:11Z</time>
      </trkpt>
      <trkpt lat="44.86604" lon="5.77825">
        <ele>726</ele>
        <time>2017-08-08T18:56:30Z</time>
      </trkpt>
      <trkpt lat="44.86559" lon="5.77808">
        <ele>741</ele>
        <time>2017-08-08T18:56:45Z</time>
      </trkpt>
      <trkpt lat="44.86529" lon="5.77793">
        <ele>743</ele>
        <time>2017-08-08T18:56:56Z</time>
      </trkpt>
      <trkpt lat="44.86514" lon="5.77776">
        <ele>742</ele>
        <time>2017-08-08T18:57:15Z</time>
      </trkpt>
      <trkpt lat="44.86504" lon="5.77752">
        <ele>739</ele>
        <time>2017-08-08T18:57:27Z</time>
      </trkpt>
      <trkpt lat="44.86493" lon="5.77698">
        <ele>742</ele>
        <time>2017-08-08T18:57:31Z</time>
      </trkpt>
      <trkpt lat="44.86485" lon="5.7767">
        <ele>739</ele>
        <time>2017-08-08T18:57:35Z</time>
      </trkpt>
      <trkpt lat="44.86478" lon="5.77651">
        <ele>740</ele>
        <time>2017-08-08T18:57:49Z</time>
      </trkpt>
      <trkpt lat="44.86469" lon="5.77637">
        <ele>742</ele>
        <time>2017-08-08T18:58:00Z</time>
      </trkpt>
      <trkpt lat="44.86442" lon="5.77597">
        <ele>746</ele>
        <time>2017-08-08T18:58:10Z</time>
      </trkpt>
      <trkpt lat="44.86435" lon="5.77574">
        <ele>745</ele>
        <time>2017-08-08T18:58:28Z</time>
      </trkpt>
      <trkpt lat="44.86426" lon="5.7753">
        <ele>742</ele>
        <time>2017-08-08T18:58:39Z</time>
      </trkpt>
      <trkpt lat="44.8641" lon="5.77485">
        <ele>746</ele>
        <time>2017-08-08T18:58:57Z</time>
      </trkpt>
      <trkpt lat="44.86385" lon="5.77438">
        <ele>748</ele>
        <time>2017-08-08T18:59:06Z</time>
      </trkpt>
      <trkpt lat="44.86374" lon="5.77414">
        <ele>743</ele>
        <time>2017-08-08T18:59:15Z</time>
      </trkpt>
      <trkpt lat="44.86357" lon="5.77388">
        <ele>744</ele>
        <time>2017-08-08T18:59:24Z</time>
      </trkpt>
      <trkpt lat="44.86298" lon="5.77315">
        <ele>756</ele>
        <time>2017-08-08T18:59:31Z</time>
      </trkpt>
      <trkpt lat="44.86282" lon="5.7728">
        <ele>757</ele>
        <time>2017-08-08T18:59:48Z</time>
      </trkpt>
      <trkpt lat="44.86257" lon="5.77196">
        <ele>755</ele>
        <time>2017-08-08T18:59:55Z</time>
      </trkpt>
      <trkpt lat="44.86244" lon="5.77164">
        <ele>765</ele>
        <time>2017-08-08T19:00:08Z</time>
      </trkpt>
      <trkpt lat="44.8623" lon="5.77143">
        <ele>768</ele>
        <time>2017-08-08T19:00:11Z</time>
      </trkpt>
      <trkpt lat="44.86208" lon="5.77108">
        <ele>769</ele>
        <time>2017-08-08T19:00:14Z</time>
      </trkpt>
      <trkpt lat="44.86202" lon="5.77082">
        <ele>768</ele>
        <time>2017-08-08T19:00:28Z</time>
      </trkpt>
      <trkpt lat="44.86201" lon="5.77068">
        <ele>769</ele>
        <time>2017-08-08T19:00:35Z</time>
      </trkpt>
      <trkpt lat="44.86205" lon="5.77021">
        <ele>768</ele>
        <time>2017-08-08T19:00:39Z</time>
      </trkpt>
      <trkpt lat="44.86207" lon="5.76994">
        <ele>769</ele>
        <time>2017-08-08T19:00:53Z</time>
      </trkpt>
      <trkpt lat="44.86205" lon="5.7698">
        <ele>769</ele>
        <time>2017-08-08T19:01:10Z</time>
      </trkpt>
      <trkpt lat="44.86199" lon="5.76964">
        <ele>770</ele>
        <time>2017-08-08T19:01:18Z</time>
      </trkpt>
      <trkpt lat="44.86158" lon="5.76908">
        <ele>781</ele>
        <time>2017-08-08T19:01:37Z</time>
      </trkpt>
      <trkpt lat="44.86151" lon="5.76883">
        <ele>784</ele>
        <time>2017-08-08T19:01:52Z</time>
      </trkpt>
      <trkpt lat="44.8615" lon="5.76869">
        <ele>784</ele>
        <time>2017-08-08T19:02:06Z</time>
      </trkpt>
      <trkpt lat="44.86155" lon="5.76821">
        <ele>784</ele>
        <time>2017-08-08T19:02:13Z</time>
      </trkpt>
      <trkpt lat="44.86172" lon="5.76709">
        <ele>777</ele>
        <time>2017-08-08T19:02:21Z</time>
      </trkpt>
      <trkpt lat="44.86173" lon="5.76682">
        <ele>780</ele>
        <time>2017-08-08T19:02:41Z</time>
      </trkpt>
      <trkpt lat="44.86171" lon="5.76672">
        <ele>783</ele>
        <time>2017-08-08T19:02:54Z</time>
      </trkpt>
      <trkpt lat="44.86164" lon="5.76657">
        <ele>785</ele>
        <time>2017-08-08T19:02:59Z</time>
      </trkpt>
      <trkpt lat="44.86158" lon="5.7665">
        <ele>784</ele>
        <time>2017-08-08T19:03:13Z</time>
      </trkpt>
      <trkpt lat="44.86146" lon="5.76645">
        <ele>784</ele>
        <time>2017-08-08T19:03:20Z</time>
      </trkpt>
      <trkpt lat="44.86133" lon="5.76645">
        <ele>784</ele>
        <time>2017-08-08T19:03:28Z</time>
      </trkpt>
      <trkpt lat="44.86121" lon="5.76653">
        <ele>785</ele>
        <time>2017-08-08T19:03:37Z</time>
      </trkpt>
      <trkpt lat="44.86093" lon="5.7669">
        <ele>790</ele>
        <time>2017-08-08T19:03:56Z</time>
      </trkpt>
      <trkpt lat="44.86081" lon="5.76703">
        <ele>794</ele>
        <time>2017-08-08T19:04:12Z</time>
      </trkpt>
      <trkpt lat="44.8607" lon="5.76707">
        <ele>795</ele>
        <time>2017-08-08T19:04:22Z</time>
      </trkpt>
      <trkpt lat="44.86048" lon="5.76709">
        <ele>795</ele>
        <time>2017-08-08T19:04:31Z</time>
      </trkpt>
      <trkpt lat="44.86005" lon="5.7671">
        <ele>796</ele>
        <time>2017-08-08T19:04:34Z</time>
      </trkpt>
      <trkpt lat="44.85983" lon="5.76708">
        <ele>799</ele>
        <time>2017-08-08T19:04:52Z</time>
      </trkpt>
      <trkpt lat="44.85962" lon="5.76704">
        <ele>799</ele>
        <time>2017-08-08T19:05:03Z</time>
      </trkpt>
      <trkpt lat="44.85942" lon="5.76696">
        <ele>800</ele>
        <time>2017-08-08T19:05:08Z</time>
      </trkpt>
      <trkpt lat="44.85918" lon="5.76688">
        <ele>800</ele>
        <time>2017-08-08T19:05:18Z</time>
      </trkpt>
      <trkpt lat="44.85895" lon="5.76683">
        <ele>805</ele>
        <time>2017-08-08T19:05:29Z</time>
      </trkpt>
      <trkpt lat="44.85857" lon="5.76671">
        <ele>808</ele>
        <time>2017-08-08T19:05:32Z</time>
      </trkpt>
      <trkpt lat="44.8584" lon="5.7666">
        <ele>808</ele>
        <time>2017-08-08T19:05:42Z</time>
      </trkpt>
      <trkpt lat="44.85824" lon="5.7664">
        <ele>813</ele>
        <time>2017-08-08T19:06:02Z</time>
      </trkpt>
      <trkpt lat="44.85807" lon="5.76612">
        <ele>813</ele>
        <time>2017-08-08T19:06:13Z</time>
      </trkpt>
      <trkpt lat="44.85783" lon="5.76551">
        <ele>812</ele>
        <time>2017-08-08T19:06:31Z</time>
      </trkpt>
      <trkpt lat="44.85776" lon="5.76501">
        <ele>813</ele>
        <time>2017-08-08T19:06:33Z</time>
      </trkpt>
      <trkpt lat="44.85774" lon="5.76469">
        <ele>812</ele>
        <time>2017-08-08T19:06:51Z</time>
      </trkpt>
      <trkpt lat="44.8577" lon="5.76444">
        <ele>813</ele>
        <time>2017-08-08T19:07:08Z</time>
      </trkpt>
      <trkpt lat="44.85765" lon="5.76431">
        <ele>813</ele>
        <time>2017-08-08T19:07:13Z</time>
      </trkpt>
      <trkpt lat="44.85758" lon="5.76421">
        <ele>815</ele>
        <time>2017-08-08T19:07:19Z</time>
      </trkpt>
      <trkpt lat="44.85742" lon="5.76407">
        <ele>817</ele>
        <time>2017-08-08T19:07:34Z</time>
      </trkpt>
      <trkpt lat="44.85659" lon="5.76367">
        <ele>821</ele>
        <time>2017-08-08T19:07:48Z</time>
      </trkpt>
      <trkpt lat="44.85542" lon="5.76299">
        <ele>822</ele>
        <time>2017-08-08T19:08:03Z</time>
      </trkpt>
      <trkpt lat="44.85483" lon="5.76263">
        <ele>821</ele>
        <time>2017-08-08T19:08:10Z</time>
      </trkpt>
      <trkpt lat="44.85451" lon="5.76245">
        <ele>821</ele>
        <time>2017-08-08T19:08:25Z</time>
      </trkpt>
      <trkpt lat="44.8541" lon="5.76222">
        <ele>822</ele>
        <time>2017-08-08T19:08:27Z</time>
      </trkpt>
      <trkpt lat="44.8538" lon="5.76202">
        <ele>822</ele>
        <time>2017-08-08T19:08:38Z</time>
      </trkpt>
      <trkpt lat="44.85361" lon="5.76194">
        <ele>822</ele>
        <time>2017-08-08T19:08:52Z</time>
      </trkpt>
      <trkpt lat="44.85354" lon="5.76193">
        <ele>822</ele>
        <time>2017-08-08T19:08:57Z</time>
      </trkpt>
      <trkpt lat="44.85348" lon="5.76181">
        <ele>823</ele>
        <time>2017-08-08T19:09:14Z</time>
      </trkpt>
      <trkpt lat="44.85339" lon="5.7617">
        <ele>823</ele>
        <time>2017-08-08T19:09:31Z</time>
      </trkpt>
      <trkpt lat="44.85336" lon="5.76159">
        <ele>823</ele>
        <time>2017-08-08T19:09:37Z</time>
      </trkpt>
      <trkpt lat="44.85332" lon="5.76143">
        <ele>823</ele>
        <time>2017-08-08T19:09:43Z</time>
      </trkpt>
      <trkpt lat="44.85306" lon="5.76045">
        <ele>823</ele>
        <time>2017-08-08T19:09:58Z</time>
      </trkpt>
      <trkpt lat="44.85302" lon="5.76014">
        <ele>822</ele>
        <time>2017-08-08T19:10:12Z</time>
      </trkpt>
      <trkpt lat="44.85301" lon="5.75989">
        <ele>821</ele>
        <time>2017-08-08T19:10:26Z</time>
      </trkpt>
      <trkpt lat="44.85304" lon="5.75971">
        <ele>821</ele>
        <time>2017-08-08T19:10:34Z</time>
      </trkpt>
      <trkpt lat="44.85313" lon="5.75957">
        <ele>820</ele>
        <time>2017-08-08T19:10:41Z</time>
      </trkpt>
      <trkpt lat="44.85324" lon="5.75944">
        <ele>820</ele>
        <time>2017-08-08T19:10:43Z</time>
      </trkpt>
      <trkpt lat="44.85332" lon="5.75929">
        <ele>820</ele>
        <time>2017-08-08T19:10:47Z</time>
      </trkpt>
      <trkpt lat="44.85343" lon="5.75882">
        <ele>809</ele>
        <time>2017-08-08T19:11:03Z</time>
      </trkpt>
      <trkpt lat="44.85351" lon="5.75825">
        <ele>812</ele>
        <time>2017-08-08T19:11:20Z</time>
      </trkpt>
      <trkpt lat="44.8535" lon="5.75799">
        <ele>810</ele>
        <time>2017-08-08T19:11:30Z</time>
      </trkpt>
      <trkpt lat="44.85344" lon="5.75772">
        <ele>812</ele>
        <time>2017-08-08T19:11:40Z</time>
      </trkpt>
      <trkpt lat="44.85338" lon="5.75746">
        <ele>816</ele>
        <time>2017-08-08T19:11:54Z</time>
      </trkpt>
      <trkpt lat="44.8534" lon="5.75722">
        <ele>813</ele>
        <time>2017-08-08T19:11:59Z</time>
      </trkpt>
      <trkpt lat="44.85363" lon="5.75664">
        <ele>814</ele>
        <time>2017-08-08T19:12:11Z</time>
      </trkpt>
      <trkpt lat="44.85369" lon="5.75636">
        <ele>814</ele>
        <time>2017-08-08T19:12:26Z</time>
      </trkpt>
      <trkpt lat="44.85369" lon="5.75605">
        <ele>814</ele>
        <time>2017-08-08T19:12:43Z</time>
      </trkpt>
      <trkpt lat="44.85363" lon="5.75534">
        <ele>816</ele>
        <time>2017-08-08T19:12:46Z</time>
      </trkpt>
      <trkpt lat="44.85361" lon="5.75455">
        <ele>815</ele>
        <time>2017-08-08T19:12:55Z</time>
      </trkpt>
      <trkpt lat="44.85366" lon="5.75295">
        <ele>814</ele>
        <time>2017-08-08T19:13:01Z</time>
      </trkpt>
      <trkpt lat="44.85365" lon="5.75216">
        <ele>813</ele>
        <time>2017-08-08T19:13:06Z</time>
      </trkpt>
      <trkpt lat="44.85362" lon="5.7513">
        <ele>810</ele>
        <time>2017-08-08T19:13:26Z</time>
      </trkpt>
      <trkpt lat="44.85359" lon="5.75086">
        <ele>809</ele>
        <time>2017-08-08T19:13:44Z</time>
      </trkpt>
      <trkpt lat="44.85354" lon="5.75041">
        <ele>808</ele>
        <time>2017-08-08T19:13:52Z</time>
      </trkpt>
      <trkpt lat="44.85338" lon="5.74956">
        <ele>805</ele>
        <time>2017-08-08T19:13:58Z</time>
      </trkpt>
      <trkpt lat="44.85323" lon="5.7488">
        <ele>801</ele>
        <time>2017-08-08T19:14:04Z</time>
      </trkpt>
      <trkpt lat="44.85313" lon="5.74849">
        <ele>800</ele>
        <time>2017-08-08T19:14:13Z</time>
      </trkpt>
      <trkpt lat="44.85306" lon="5.74837">
        <ele>800</ele>
        <time>2017-08-08T19:14:31Z</time>
      </trkpt>
      <trkpt lat="44.85296" lon="5.74828">
        <ele>800</ele>
        <time>2017-08-08T19:14:42Z</time>
      </trkpt>
      <trkpt lat="44.85272" lon="5.74817">
        <ele>799</ele>
        <time>2017-08-08T19:14:57Z</time>
      </trkpt>
      <trkpt lat="44.85248" lon="5.748">
        <ele>795</ele>
        <time>2017-08-08T19:15:04Z</time>
      </trkpt>
      <trkpt lat="44.85238" lon="5.7479">
        <ele>794</ele>
        <time>2017-08-08T19:15:20Z</time>
      </trkpt>
      <trkpt lat="44.85227" lon="5.74774">
        <ele>794</ele>
        <time>2017-08-08T19:15:37Z</time>
      </trkpt>
      <trkpt lat="44.85214" lon="5.7474">
        <ele>793</ele>
        <time>2017-08-08T19:15:57Z</time>
      </trkpt>
      <trkpt lat="44.85205" lon="5.74728">
        <ele>792</ele>
        <time>2017-08-08T19:16:03Z</time>
      </trkpt>
      <trkpt lat="44.85194" lon="5.7472">
        <ele>792</ele>
        <time>2017-08-08T19:16:08Z</time>
      </trkpt>
      <trkpt lat="44.85156" lon="5.74699">
        <ele>788</ele>
        <time>2017-08-08T19:16:21Z</time>
      </trkpt>
      <trkpt lat="44.85138" lon="5.74682">
        <ele>788</ele>
        <time>2017-08-08T19:16:40Z</time>
      </trkpt>
      <trkpt lat="44.8513" lon="5.74668">
        <ele>787</ele>
        <time>2017-08-08T19:16:52Z</time>
      </trkpt>
      <trkpt lat="44.85123" lon="5.74652">
        <ele>786</ele>
        <time>2017-08-08T19:17:05Z</time>
      </trkpt>
      <trkpt lat="44.85119" lon="5.74622">
        <ele>785</ele>
        <time>2017-08-08T19:17:20Z</time>
      </trkpt>
      <trkpt lat="44.85117" lon="5.74601">
        <ele>785</ele>
        <time>2017-08-08T19:17:35Z</time>
      </trkpt>
      <trkpt lat="44.85114" lon="5.74579">
        <ele>784</ele>
        <time>2017-08-08T19:17:48Z</time>
      </trkpt>
      <trkpt lat="44.85107" lon="5.74559">
        <ele>784</ele>
        <time>2017-08-08T19:17:51Z</time>
      </trkpt>
      <trkpt lat="44.85097" lon="5.74541">
        <ele>784</ele>
        <time>2017-08-08T19:17:58Z</time>
      </trkpt>
      <trkpt lat="44.85085" lon="5.74525">
        <ele>784</ele>
        <time>2017-08-08T19:18:11Z</time>
      </trkpt>
      <trkpt lat="44.85059" lon="5.74499">
        <ele>779</ele>
        <time>2017-08-08T19:18:23Z</time>
      </trkpt>
      <trkpt lat="44.85037" lon="5.74474">
        <ele>776</ele>
        <time>2017-08-08T19:18:35Z</time>
      </trkpt>
      <trkpt lat="44.85026" lon="5.74446">
        <ele>775</ele>
        <time>2017-08-08T19:18:47Z</time>
      </trkpt>
      <trkpt lat="44.85021" lon="5.7442">
        <ele>773</ele>
        <time>2017-08-08T19:19:07Z</time>
      </trkpt>
      <trkpt lat="44.85022" lon="5.74393">
        <ele>769</ele>
        <time>2017-08-08T19:19:25Z</time>
      </trkpt>
      <trkpt lat="44.85026" lon="5.74374">
        <ele>768</ele>
        <time>2017-08-08T19:19:44Z</time>
      </trkpt>
      <trkpt lat="44.85032" lon="5.74355">
        <ele>767</ele>
        <time>2017-08-08T19:19:50Z</time>
      </trkpt>
      <trkpt lat="44.85051" lon="5.74319">
        <ele>760</ele>
        <time>2017-08-08T19:20:03Z</time>
      </trkpt>
      <trkpt lat="44.85076" lon="5.74288">
        <ele>758</ele>
        <time>2017-08-08T19:20:18Z</time>
      </trkpt>
      <trkpt lat="44.85105" lon="5.7426">
        <ele>759</ele>
        <time>2017-08-08T19:20:25Z</time>
      </trkpt>
      <trkpt lat="44.8516" lon="5.74215">
        <ele>752</ele>
        <time>2017-08-08T19:20:27Z</time>
      </trkpt>
      <trkpt lat="44.85174" lon="5.74203">
        <ele>754</ele>
        <time>2017-08-08T19:20:29Z</time>
      </trkpt>
      <trkpt lat="44.85186" lon="5.74187">
        <ele>753</ele>
        <time>2017-08-08T19:20:31Z</time>
      </trkpt>
      <trkpt lat="44.85198" lon="5.74166">
        <ele>749</ele>
        <time>2017-08-08T19:20:51Z</time>
      </trkpt>
      <trkpt lat="44.85209" lon="5.74118">
        <ele>748</ele>
        <time>2017-08-08T19:21:10Z</time>
      </trkpt>
      <trkpt lat="44.85214" lon="5.74086">
        <ele>748</ele>
        <time>2017-08-08T19:21:18Z</time>
      </trkpt>
      <trkpt lat="44.85219" lon="5.74069">
        <ele>745</ele>
        <time>2017-08-08T19:21:29Z</time>
      </trkpt>
      <trkpt lat="44.85248" lon="5.74007">
        <ele>742</ele>
        <time>2017-08-08T19:21:40Z</time>
      </trkpt>
      <trkpt lat="44.85254" lon="5.73992">
        <ele>742</ele>
        <time>2017-08-08T19:21:58Z</time>
      </trkpt>
      <trkpt lat="44.85255" lon="5.73983">
        <ele>743</ele>
        <time>2017-08-08T19:22:15Z</time>
      </trkpt>
      <trkpt lat="44.85254" lon="5.7396">
        <ele>743</ele>
        <time>2017-08-08T19:22:33Z</time>
      </trkpt>
      <trkpt lat="44.85248" lon="5.73936">
        <ele>742</ele>
        <time>2017-08-08T19:22:46Z</time>
      </trkpt>
      <trkpt lat="44.85237" lon="5.73909">
        <ele>741</ele>
        <time>2017-08-08T19:22:50Z</time>
      </trkpt>
      <trkpt lat="44.85228" lon="5.73898">
        <ele>741</ele>
        <time>2017-08-08T19:22:58Z</time>
      </trkpt>
      <trkpt lat="44.85218" lon="5.73891">
        <ele>741</ele>
        <time>2017-08-08T19:23:02Z</time>
      </trkpt>
      <trkpt lat="44.85183" lon="5.73873">
        <ele>741</ele>
        <time>2017-08-08T19:23:22Z</time>
      </trkpt>
      <trkpt lat="44.85153" lon="5.73854">
        <ele>745</ele>
        <time>2017-08-08T19:23:37Z</time>
      </trkpt>
      <trkpt lat="44.85139" lon="5.7384">
        <ele>745</ele>
        <time>2017-08-08T19:23:47Z</time>
      </trkpt>
      <trkpt lat="44.8512" lon="5.7383">
        <ele>740</ele>
        <time>2017-08-08T19:24:01Z</time>
      </trkpt>
      <trkpt lat="44.85091" lon="5.73817">
        <ele>742</ele>
        <time>2017-08-08T19:24:15Z</time>
      </trkpt>
      <trkpt lat="44.8506" lon="5.73806">
        <ele>746</ele>
        <time>2017-08-08T19:24:24Z</time>
      </trkpt>
      <trkpt lat="44.85027" lon="5.73795">
        <ele>747</ele>
        <time>2017-08-08T19:24:32Z</time>
      </trkpt>
      <trkpt lat="44.84994" lon="5.73778">
        <ele>753</ele>
        <time>2017-08-08T19:24:34Z</time>
      </trkpt>
      <trkpt lat="44.84927" lon="5.73741">
        <ele>749</ele>
        <time>2017-08-08T19:24:53Z</time>
      </trkpt>
      <trkpt lat="44.84895" lon="5.73728">
        <ele>754</ele>
        <time>2017-08-08T19:25:04Z</time>
      </trkpt>
      <trkpt lat="44.84863" lon="5.73716">
        <ele>755</ele>
        <time>2017-08-08T19:25:15Z</time>
      </trkpt>
      <trkpt lat="44.84838" lon="5.73706">
        <ele>755</ele>
        <time>2017-08-08T19:25:19Z</time>
      </trkpt>
      <trkpt lat="44.84827" lon="5.73697">
        <ele>760</ele>
        <time>2017-08-08T19:25:22Z</time>
      </trkpt>
      <trkpt lat="44.84819" lon="5.73684">
        <ele>758</ele>
        <time>2017-08-08T19:25:27Z</time>
      </trkpt>
      <trkpt lat="44.84807" lon="5.73651">
        <ele>753</ele>
        <time>2017-08-08T19:25:43Z</time>
      </trkpt>
      <trkpt lat="44.8479" lon="5.73617">
        <ele>753</ele>
        <time>2017-08-08T19:25:52Z</time>
      </trkpt>
      <trkpt lat="44.84769" lon="5.73589">
        <ele>753</ele>
        <time>2017-08-08T19:25:56Z</time>
      </trkpt>
      <trkpt lat="44.84752" lon="5.73565">
        <ele>754</ele>
        <time>2017-08-08T19:26:06Z</time>
      </trkpt>
      <trkpt lat="44.8472" lon="5.73512">
        <ele>755</ele>
        <time>2017-08-08T19:26:19Z</time>
      </trkpt>
      <trkpt lat="44.84708" lon="5.73485">
        <ele>757</ele>
        <time>2017-08-08T19:26:26Z</time>
      </trkpt>
      <trkpt lat="44.84705" lon="5.73471">
        <ele>758</ele>
        <time>2017-08-08T19:26:32Z</time>
      </trkpt>
      <trkpt lat="44.84706" lon="5.73453">
        <ele>758</ele>
        <time>2017-08-08T19:26:43Z</time>
      </trkpt>
      <trkpt lat="44.84705" lon="5.73428">
        <ele>759</ele>
        <time>2017-08-08T19:26:58Z</time>
      </trkpt>
      <trkpt lat="44.84685" lon="5.73394">
        <ele>763</ele>
        <time>2017-08-08T19:27:18Z</time>
      </trkpt>
      <trkpt lat="44.84676" lon="5.73384">
        <ele>763</ele>
        <time>2017-08-08T19:27:31Z</time>
      </trkpt>
      <trkpt lat="44.84653" lon="5.7335">
        <ele>766</ele>
        <time>2017-08-08T19:27:33Z</time>
      </trkpt>
      <trkpt lat="44.84644" lon="5.73331">
        <ele>768</ele>
        <time>2017-08-08T19:27:48Z</time>
      </trkpt>
      <trkpt lat="44.84639" lon="5.73313">
        <ele>769</ele>
        <time>2017-08-08T19:28:03Z</time>
      </trkpt>
      <trkpt lat="44.84632" lon="5.73274">
        <ele>771</ele>
        <time>2017-08-08T19:28:05Z</time>
      </trkpt>
      <trkpt lat="44.84625" lon="5.73227">
        <ele>774</ele>
        <time>2017-08-08T19:28:14Z</time>
      </trkpt>
      <trkpt lat="44.84574" lon="5.72913">
        <ele>789</ele>
        <time>2017-08-08T19:28:25Z</time>
      </trkpt>
      <trkpt lat="44.84549" lon="5.72837">
        <ele>792</ele>
        <time>2017-08-08T19:28:35Z</time>
      </trkpt>
      <trkpt lat="44.84541" lon="5.72812">
        <ele>796</ele>
        <time>2017-08-08T19:28:54Z</time>
      </trkpt>
      <trkpt lat="44.84537" lon="5.7279">
        <ele>797</ele>
        <time>2017-08-08T19:29:05Z</time>
      </trkpt>
      <trkpt lat="44.84535" lon="5.72768">
        <ele>797</ele>
        <time>2017-08-08T19:29:23Z</time>
      </trkpt>
      <trkpt lat="44.84536" lon="5.72728">
        <ele>804</ele>
        <time>2017-08-08T19:29:27Z</time>
      </trkpt>
      <trkpt lat="44.8454" lon="5.72642">
        <ele>813</ele>
        <time>2017-08-08T19:29:35Z</time>
      </trkpt>
      <trkpt lat="44.84543" lon="5.7262">
        <ele>814</ele>
        <time>2017-08-08T19:29:42Z</time>
      </trkpt>
      <trkpt lat="44.84551" lon="5.72603">
        <ele>815</ele>
        <time>2017-08-08T19:29:52Z</time>
      </trkpt>
      <trkpt lat="44.84568" lon="5.72589">
        <ele>817</ele>
        <time>2017-08-08T19:30:10Z</time>
      </trkpt>
      <trkpt lat="44.84582" lon="5.72581">
        <ele>820</ele>
        <time>2017-08-08T19:30:15Z</time>
      </trkpt>
      <trkpt lat="44.84587" lon="5.72577">
        <ele>824</ele>
        <time>2017-08-08T19:30:20Z</time>
      </trkpt>
      <trkpt lat="44.84588" lon="5.72571">
        <ele>826</ele>
        <time>2017-08-08T19:30:27Z</time>
      </trkpt>
      <trkpt lat="44.84588" lon="5.72561">
        <ele>828</ele>
        <time>2017-08-08T19:30:46Z</time>
      </trkpt>
      <trkpt lat="44.84585" lon="5.72552">
        <ele>829</ele>
        <time>2017-08-08T19:31:06Z</time>
      </trkpt>
      <trkpt lat="44.84577" lon="5.72547">
        <ele>823</ele>
        <time>2017-08-08T19:31:12Z</time>
      </trkpt>
      <trkpt lat="44.84569" lon="5.72547">
        <ele>823</ele>
        <time>2017-08-08T19:31:29Z</time>
      </trkpt>
      <trkpt lat="44.84538" lon="5.72562">
        <ele>821</ele>
        <time>2017-08-08T19:31:39Z</time>
      </trkpt>
      <trkpt lat="44.84523" lon="5.72564">
        <ele>819</ele>
        <time>2017-08-08T19:31:46Z</time>
      </trkpt>
      <trkpt lat="44.84494" lon="5.72559">
        <ele>816</ele>
        <time>2017-08-08T19:32:03Z</time>
      </trkpt>
      <trkpt lat="44.84458" lon="5.72548">
        <ele>818</ele>
        <time>2017-08-08T19:32:18Z</time>
      </trkpt>
      <trkpt lat="44.84443" lon="5.7254">
        <ele>818</ele>
        <time>2017-08-08T19:32:33Z</time>
      </trkpt>
      <trkpt lat="44.84426" lon="5.72525">
        <ele>819</ele>
        <time>2017-08-08T19:32:45Z</time>
      </trkpt>
      <trkpt lat="44.84409" lon="5.72502">
        <ele>822</ele>
        <time>2017-08-08T19:32:59Z</time>
      </trkpt>
      <trkpt lat="44.84391" lon="5.72466">
        <ele>828</ele>
        <time>2017-08-08T19:33:15Z</time>
      </trkpt>
      <trkpt lat="44.84359" lon="5.7242">
        <ele>830</ele>
        <time>2017-08-08T19:33:35Z</time>
      </trkpt>
      <trkpt lat="44.84342" lon="5.72386">
        <ele>836</ele>
        <time>2017-08-08T19:33:39Z</time>
      </trkpt>
      <trkpt lat="44.84332" lon="5.72351">
        <ele>839</ele>
        <time>2017-08-08T19:33:59Z</time>
      </trkpt>
      <trkpt lat="44.84333" lon="5.72321">
        <ele>841</ele>
        <time>2017-08-08T19:34:12Z</time>
      </trkpt>
      <trkpt lat="44.84332" lon="5.72296">
        <ele>843</ele>
        <time>2017-08-08T19:34:24Z</time>
      </trkpt>
      <trkpt lat="44.84328" lon="5.72287">
        <ele>843</ele>
        <time>2017-08-08T19:34:28Z</time>
      </trkpt>
      <trkpt lat="44.84318" lon="5.72286">
        <ele>843</ele>
        <time>2017-08-08T19:34:33Z</time>
      </trkpt>
      <trkpt lat="44.84312" lon="5.72291">
        <ele>843</ele>
        <time>2017-08-08T19:34:52Z</time>
      </trkpt>
      <trkpt lat="44.84304" lon="5.72313">
        <ele>842</ele>
        <time>2017-08-08T19:35:01Z</time>
      </trkpt>
      <trkpt lat="44.84301" lon="5.72329">
        <ele>842</ele>
        <time>2017-08-08T19:35:12Z</time>
      </trkpt>
      <trkpt lat="44.84297" lon="5.72338">
        <ele>839</ele>
        <time>2017-08-08T19:35:27Z</time>
      </trkpt>
      <trkpt lat="44.8429" lon="5.72346">
        <ele>839</ele>
        <time>2017-08-08T19:35:41Z</time>
      </trkpt>
      <trkpt lat="44.8428" lon="5.72349">
        <ele>840</ele>
        <time>2017-08-08T19:35:54Z</time>
      </trkpt>
      <trkpt lat="44.8427" lon="5.72347">
        <ele>840</ele>
        <time>2017-08-08T19:36:10Z</time>
      </trkpt>
      <trkpt lat="44.84251" lon="5.72338">
        <ele>842</ele>
        <time>2017-08-08T19:36:12Z</time>
      </trkpt>
      <trkpt lat="44.84217" lon="5.72308">
        <ele>845</ele>
        <time>2017-08-08T19:36:19Z</time>
      </trkpt>
      <trkpt lat="44.84171" lon="5.72265">
        <ele>847</ele>
        <time>2017-08-08T19:36:34Z</time>
      </trkpt>
      <trkpt lat="44.8414" lon="5.72237">
        <ele>850</ele>
        <time>2017-08-08T19:36:49Z</time>
      </trkpt>
      <trkpt lat="44.84127" lon="5.7222">
        <ele>850</ele>
        <time>2017-08-08T19:36:54Z</time>
      </trkpt>
      <trkpt lat="44.84082" lon="5.72154">
        <ele>853</ele>
        <time>2017-08-08T19:37:10Z</time>
      </trkpt>
      <trkpt lat="44.84026" lon="5.72064">
        <ele>856</ele>
        <time>2017-08-08T19:37:23Z</time>
      </trkpt>
      <trkpt lat="44.83988" lon="5.72012">
        <ele>856</ele>
        <time>2017-08-08T19:37:41Z</time>
      </trkpt>
      <trkpt lat="44.83975" lon="5.71991">
        <ele>856</ele>
        <time>2017-08-08T19:37:54Z</time>
      </trkpt>
      <trkpt lat="44.83965" lon="5.71977">
        <ele>856</ele>
        <time>2017-08-08T19:38:12Z</time>
      </trkpt>
      <trkpt lat="44.83998" lon="5.71939">
        <ele>857</ele>
        <time>2017-08-08T19:38:27Z</time>
      </trkpt>
      <trkpt lat="44.84031" lon="5.71873">
        <ele>858</ele>
        <time>2017-08-08T19:38:30Z</time>
      </trkpt>
      <trkpt lat="44.84044" lon="5.71832">
        <ele>860</ele>
        <time>2017-08-08T19:38:46Z</time>
      </trkpt>
      <trkpt lat="44.8405" lon="5.71803">
        <ele>860</ele>
        <time>2017-08-08T19:38:55Z</time>
      </trkpt>
      <trkpt lat="44.84055" lon="5.71763">
        <ele>861</ele>
        <time>2017-08-08T19:39:00Z</time>
      </trkpt>
      <trkpt lat="44.84052" lon="5.71641">
        <ele>867</ele>
        <time>2017-08-08T19:39:08Z</time>
      </trkpt>
      <trkpt lat="44.84045" lon="5.71323">
        <ele>879</ele>
        <time>2017-08-08T19:39:11Z</time>
      </trkpt>
      <trkpt lat="44.84044" lon="5.7124">
        <ele>883</ele>
        <time>2017-08-08T19:39:31Z</time>
      </trkpt>
      <trkpt lat="44.84041" lon="5.71203">
        <ele>883</ele>
        <time>2017-08-08T19:39:44Z</time>
      </trkpt>
      <trkpt lat="44.84033" lon="5.71168">
        <ele>883</ele>
        <time>2017-08-08T19:39:56Z</time>
      </trkpt>
      <trkpt lat="44.8401" lon="5.71086">
        <ele>882</ele>
        <time>2017-08-08T19:40:15Z</time>
      </trkpt>
      <trkpt lat="44.84006" lon="5.71061">
        <ele>883</ele>
        <time>2017-08-08T19:40:29Z</time>
      </trkpt>
      <trkpt lat="44.8401" lon="5.71015">
        <ele>885</ele>
        <time>2017-08-08T19:40:48Z</time>
      </trkpt>
      <trkpt lat="44.84018" lon="5.7099">
        <ele>885</ele>
        <time>2017-08-08T19:40:58Z</time>
      </trkpt>
      <trkpt lat="44.84031" lon="5.70945">
        <ele>884</ele>
        <time>2017-08-08T19:41:16Z</time>
      </trkpt>
      <trkpt lat="44.84035" lon="5.70909">
        <ele>882</ele>
        <time>2017-08-08T19:41:35Z</time>
      </trkpt>
      <trkpt lat="44.84035" lon="5.70877">
        <ele>881</ele>
        <time>2017-08-08T19:41:45Z</time>
      </trkpt>
      <trkpt lat="44.8403" lon="5.70845">
        <ele>882</ele>
        <time>2017-08-08T19:42:04Z</time>
      </trkpt>
      <trkpt lat="44.84021" lon="5.7081">
        <ele>879</ele>
        <time>2017-08-08T19:42:19Z</time>
      </trkpt>
      <trkpt lat="44.8401" lon="5.7076">
        <ele>880</ele>
        <time>2017-08-08T19:42:29Z</time>
      </trkpt>
      <trkpt lat="44.84029" lon="5.7079">
        <ele>877</ele>
        <time>2017-08-08T19:42:47Z</time>
      </trkpt>
      <trkpt lat="44.84048" lon="5.70818">
        <ele>874</ele>
        <time>2017-08-08T19:42:55Z</time>
      </trkpt>
      <trkpt lat="44.84066" lon="5.70839">
        <ele>873</ele>
        <time>2017-08-08T19:43:11Z</time>
      </trkpt>
      <trkpt lat="44.84085" lon="5.70854">
        <ele>865</ele>
        <time>2017-08-08T19:43:24Z</time>
      </trkpt>
      <trkpt lat="44.84101" lon="5.7086">
        <ele>865</ele>
        <time>2017-08-08T19:43:40Z</time>
      </trkpt>
      <trkpt lat="44.84118" lon="5.70862">
        <ele>864</ele>
        <time>2017-08-08T19:43:43Z</time>
      </trkpt>
      <trkpt lat="44.84136" lon="5.70861">
        <ele>863</ele>
        <time>2017-08-08T19:43:52Z</time>
      </trkpt>
      <trkpt lat="44.8417" lon="5.70852">
        <ele>858</ele>
        <time>2017-08-08T19:44:05Z</time>
      </trkpt>
      <trkpt lat="44.84217" lon="5.70838">
        <ele>858</ele>
        <time>2017-08-08T19:44:22Z</time>
      </trkpt>
      <trkpt lat="44.84241" lon="5.70834">
        <ele>855</ele>
        <time>2017-08-08T19:44:26Z</time>
      </trkpt>
      <trkpt lat="44.84257" lon="5.70838">
        <ele>853</ele>
        <time>2017-08-08T19:44:30Z</time>
      </trkpt>
      <trkpt lat="44.8427" lon="5.70848">
        <ele>854</ele>
        <time>2017-08-08T19:44:42Z</time>
      </trkpt>
      <trkpt lat="44.84292" lon="5.70875">
        <ele>854</ele>
        <time>2017-08-08T19:44:53Z</time>
      </trkpt>
      <trkpt lat="44.84302" lon="5.70883">
        <ele>855</ele>
        <time>2017-08-08T19:45:07Z</time>
      </trkpt>
      <trkpt lat="44.84319" lon="5.70888">
        <ele>854</ele>
        <time>2017-08-08T19:45:10Z</time>
      </trkpt>
      <trkpt lat="44.84361" lon="5.70892">
        <ele>845</ele>
        <time>2017-08-08T19:45:15Z</time>
      </trkpt>
      <trkpt lat="44.84375" lon="5.709">
        <ele>844</ele>
        <time>2017-08-08T19:45:34Z</time>
      </trkpt>
      <trkpt lat="44.84394" lon="5.70918">
        <ele>851</ele>
        <time>2017-08-08T19:45:37Z</time>
      </trkpt>
      <trkpt lat="44.84412" lon="5.70933">
        <ele>850</ele>
        <time>2017-08-08T19:45:57Z</time>
      </trkpt>
      <trkpt lat="44.8443" lon="5.70939">
        <ele>844</ele>
        <time>2017-08-08T19:46:10Z</time>
      </trkpt>
      <trkpt lat="44.84457" lon="5.70936">
        <ele>842</ele>
        <time>2017-08-08T19:46:13Z</time>
      </trkpt>
      <trkpt lat="44.8448" lon="5.70935">
        <ele>839</ele>
        <time>2017-08-08T19:46:21Z</time>
      </trkpt>
      <trkpt lat="44.84492" lon="5.7094">
        <ele>838</ele>
        <time>2017-08-08T19:46:27Z</time>
      </trkpt>
      <trkpt lat="44.84509" lon="5.7096">
        <ele>830</ele>
        <time>2017-08-08T19:46:30Z</time>
      </trkpt>
      <trkpt lat="44.84517" lon="5.70972">
        <ele>831</ele>
        <time>2017-08-08T19:46:32Z</time>
      </trkpt>
      <trkpt lat="44.84532" lon="5.70982">
        <ele>830</ele>
        <time>2017-08-08T19:46:51Z</time>
      </trkpt>
      <trkpt lat="44.84596" lon="5.71">
        <ele>820</ele>
        <time>2017-08-08T19:47:07Z</time>
      </trkpt>
      <trkpt lat="44.84625" lon="5.71008">
        <ele>826</ele>
        <time>2017-08-08T19:47:20Z</time>
      </trkpt>
      <trkpt lat="44.84645" lon="5.71011">
        <ele>824</ele>
        <time>2017-08-08T19:47:31Z</time>
      </trkpt>
      <trkpt lat="44.84659" lon="5.71011">
        <ele>821</ele>
        <time>2017-08-08T19:47:37Z</time>
      </trkpt>
      <trkpt lat="44.8468" lon="5.71002">
        <ele>820</ele>
        <time>2017-08-08T19:47:44Z</time>
      </trkpt>
      <trkpt lat="44.84753" lon="5.70954">
        <ele>809</ele>
        <time>2017-08-08T19:47:54Z</time>
      </trkpt>
      <trkpt lat="44.84792" lon="5.70929">
        <ele>807</ele>
        <time>2017-08-08T19:48:00Z</time>
      </trkpt>
      <trkpt lat="44.84866" lon="5.70878">
        <ele>797</ele>
        <time>2017-08-08T19:48:04Z</time>
      </trkpt>
      <trkpt lat="44.84895" lon="5.70861">
        <ele>796</ele>
        <time>2017-08-08T19:48:06Z</time>
      </trkpt>
      <trkpt lat="44.8493" lon="5.70846">
        <ele>796</ele>
        <time>2017-08-08T19:48:14Z</time>
      </trkpt>
      <trkpt lat="44.84954" lon="5.70834">
        <ele>797</ele>
        <time>2017-08-08T19:48:18Z</time>
      </trkpt>
      <trkpt lat="44.84994" lon="5.7081">
        <ele>792</ele>
        <time>2017-08-08T19:48:30Z</time>
      </trkpt>
      <trkpt lat="44.85004" lon="5.70791">
        <ele>793</ele>
        <time>2017-08-08T19:48:47Z</time>
      </trkpt>
      <trkpt lat="44.85007" lon="5.70777">
        <ele>792</ele>
        <time>2017-08-08T19:49:05Z</time>
      </trkpt>
      <trkpt lat="44.85004" lon="5.70749">
        <ele>788</ele>
        <time>2017-08-08T19:49:14Z</time>
      </trkpt>
      <trkpt lat="44.84993" lon="5.7072">
        <ele>785</ele>
        <time>2017-08-08T19:49:20Z</time>
      </trkpt>
      <trkpt lat="44.84981" lon="5.70706">
        <ele>784</ele>
        <time>2017-08-08T19:49:37Z</time>
      </trkpt>
      <trkpt lat="44.84968" lon="5.70701">
        <ele>784</ele>
        <time>2017-08-08T19:49:52Z</time>
      </trkpt>
      <trkpt lat="44.84944" lon="5.70699">
        <ele>783</ele>
        <time>2017-08-08T19:49:54Z</time>
      </trkpt>
      <trkpt lat="44.84922" lon="5.70692">
        <ele>782</ele>
        <time>2017-08-08T19:50:10Z</time>
      </trkpt>
      <trkpt lat="44.84915" lon="5.70677">
        <ele>780</ele>
        <time>2017-08-08T19:50:29Z</time>
      </trkpt>
      <trkpt lat="44.84908" lon="5.70624">
        <ele>777</ele>
        <time>2017-08-08T19:50:33Z</time>
      </trkpt>
      <trkpt lat="44.84894" lon="5.70588">
        <ele>777</ele>
        <time>2017-08-08T19:50:53Z</time>
      </trkpt>
      <trkpt lat="44.8486" lon="5.70538">
        <ele>774</ele>
        <time>2017-08-08T19:51:01Z</time>
      </trkpt>
      <trkpt lat="44.8485" lon="5.70521">
        <ele>773</ele>
        <time>2017-08-08T19:51:18Z</time>
      </trkpt>
      <trkpt lat="44.84907" lon="5.70475">
        <ele>771</ele>
        <time>2017-08-08T19:51:22Z</time>
      </trkpt>
      <trkpt lat="44.8492" lon="5.70438">
        <ele>771</ele>
        <time>2017-08-08T19:51:31Z</time>
      </trkpt>
      <trkpt lat="44.84937" lon="5.70404">
        <ele>770</ele>
        <time>2017-08-08T19:51:34Z</time>
      </trkpt>
      <trkpt lat="44.84999" lon="5.70322">
        <ele>770</ele>
        <time>2017-08-08T19:51:49Z</time>
      </trkpt>
      <trkpt lat="44.8502" lon="5.70291">
        <ele>769</ele>
        <time>2017-08-08T19:51:52Z</time>
      </trkpt>
      <trkpt lat="44.85049" lon="5.70258">
        <ele>769</ele>
        <time>2017-08-08T19:52:04Z</time>
      </trkpt>
      <trkpt lat="44.8507" lon="5.70228">
        <ele>766</ele>
        <time>2017-08-08T19:52:06Z</time>
      </trkpt>
      <trkpt lat="44.8508" lon="5.70211">
        <ele>766</ele>
        <time>2017-08-08T19:52:13Z</time>
      </trkpt>
      <trkpt lat="44.85092" lon="5.70176">
        <ele>766</ele>
        <time>2017-08-08T19:52:28Z</time>
      </trkpt>
      <trkpt lat="44.85106" lon="5.70123">
        <ele>768</ele>
        <time>2017-08-08T19:52:39Z</time>
      </trkpt>
      <trkpt lat="44.85124" lon="5.70043">
        <ele>770</ele>
        <time>2017-08-08T19:52:52Z</time>
      </trkpt>
      <trkpt lat="44.85148" lon="5.69979">
        <ele>771</ele>
        <time>2017-08-08T19:53:12Z</time>
      </trkpt>
      <trkpt lat="44.85181" lon="5.69903">
        <ele>771</ele>
        <time>2017-08-08T19:53:15Z</time>
      </trkpt>
      <trkpt lat="44.85214" lon="5.69834">
        <ele>771</ele>
        <time>2017-08-08T19:53:34Z</time>
      </trkpt>
      <trkpt lat="44.85246" lon="5.69769">
        <ele>769</ele>
        <time>2017-08-08T19:53:50Z</time>
      </trkpt>
      <trkpt lat="44.8526" lon="5.69739">
        <ele>769</ele>
        <time>2017-08-08T19:54:07Z</time>
      </trkpt>
      <trkpt lat="44.85267" lon="5.6972">
        <ele>768</ele>
        <time>2017-08-08T19:54:23Z</time>
      </trkpt>
      <trkpt lat="44.85278" lon="5.69672">
        <ele>768</ele>
        <time>2017-08-08T19:54:43Z</time>
      </trkpt>
      <trkpt lat="44.85298" lon="5.6961">
        <ele>764</ele>
        <time>2017-08-08T19:54:49Z</time>
      </trkpt>
      <trkpt lat="44.85317" lon="5.69564">
        <ele>760</ele>
        <time>2017-08-08T19:54:54Z</time>
      </trkpt>
      <trkpt lat="44.85321" lon="5.69552">
        <ele>760</ele>
        <time>2017-08-08T19:55:09Z</time>
      </trkpt>
      <trkpt lat="44.8533" lon="5.69548">
        <ele>760</ele>
        <time>2017-08-08T19:55:28Z</time>
      </trkpt>
      <trkpt lat="44.85341" lon="5.69538">
        <ele>759</ele>
        <time>2017-08-08T19:55:42Z</time>
      </trkpt>
      <trkpt lat="44.85375" lon="5.69506">
        <ele>758</ele>
        <time>2017-08-08T19:55:57Z</time>
      </trkpt>
      <trkpt lat="44.85392" lon="5.69489">
        <ele>757</ele>
        <time>2017-08-08T19:56:13Z</time>
      </trkpt>
      <trkpt lat="44.85417" lon="5.69458">
        <ele>752</ele>
        <time>2017-08-08T19:56:25Z</time>
      </trkpt>
      <trkpt lat="44.85437" lon="5.69438">
        <ele>752</ele>
        <time>2017-08-08T19:56:33Z</time>
      </trkpt>
      <trkpt lat="44.85464" lon="5.69417">
        <ele>750</ele>
        <time>2017-08-08T19:56:53Z</time>
      </trkpt>
      <trkpt lat="44.85498" lon="5.69397">
        <ele>748</ele>
        <time>2017-08-08T19:57:09Z</time>
      </trkpt>
      <trkpt lat="44.85524" lon="5.69379">
        <ele>742</ele>
        <time>2017-08-08T19:57:12Z</time>
      </trkpt>
      <trkpt lat="44.85557" lon="5.69353">
        <ele>740</ele>
        <time>2017-08-08T19:57:21Z</time>
      </trkpt>
      <trkpt lat="44.85572" lon="5.69343">
        <ele>737</ele>
        <time>2017-08-08T19:57:31Z</time>
      </trkpt>
      <trkpt lat="44.85585" lon="5.69338">
        <ele>734</ele>
        <time>2017-08-08T19:57:43Z</time>
      </trkpt>
      <trkpt lat="44.85598" lon="5.69335">
        <ele>734</ele>
        <time>2017-08-08T19:57:57Z</time>
      </trkpt>
      <trkpt lat="44.85618" lon="5.69331">
        <ele>733</ele>
        <time>2017-08-08T19:58:16Z</time>
      </trkpt>
      <trkpt lat="44.85661" lon="5.69318">
        <ele>731</ele>
        <time>2017-08-08T19:58:30Z</time>
      </trkpt>
      <trkpt lat="44.8571" lon="5.693">
        <ele>730</ele>
        <time>2017-08-08T19:58:48Z</time>
      </trkpt>
      <trkpt lat="44.8573" lon="5.69294">
        <ele>730</ele>
        <time>2017-08-08T19:59:01Z</time>
      </trkpt>
      <trkpt lat="44.85757" lon="5.6929">
        <ele>730</ele>
        <time>2017-08-08T19:59:05Z</time>
      </trkpt>
      <trkpt lat="44.85778" lon="5.69285">
        <ele>730</ele>
        <time>2017-08-08T19:59:24Z</time>
      </trkpt>
      <trkpt lat="44.85802" lon="5.69273">
        <ele>729</ele>
        <time>2017-08-08T19:59:32Z</time>
      </trkpt>
      <trkpt lat="44.85835" lon="5.69256">
        <ele>726</ele>
        <time>2017-08-08T19:59:51Z</time>
      </trkpt>
      <trkpt lat="44.85872" lon="5.69216">
        <ele>722</ele>
        <time>2017-08-08T20:00:06Z</time>
      </trkpt>
      <trkpt lat="44.85902" lon="5.69186">
        <ele>721</ele>
        <time>2017-08-08T20:00:16Z</time>
      </trkpt>
      <trkpt lat="44.85924" lon="5.69168">
        <ele>720</ele>
        <time>2017-08-08T20:00:33Z</time>
      </trkpt>
      <trkpt lat="44.8596" lon="5.69143">
        <ele>716</ele>
        <time>2017-08-08T20:00:51Z</time>
      </trkpt>
      <trkpt lat="44.85992" lon="5.69117">
        <ele>715</ele>
        <time>2017-08-08T20:01:06Z</time>
      </trkpt>
      <trkpt lat="44.86017" lon="5.691">
        <ele>714</ele>
        <time>2017-08-08T20:01:24Z</time>
      </trkpt>
      <trkpt lat="44.86052" lon="5.69082">
        <ele>709</ele>
        <time>2017-08-08T20:01:30Z</time>
      </trkpt>
      <trkpt lat="44.86067" lon="5.69077">
        <ele>709</ele>
        <time>2017-08-08T20:01:35Z</time>
      </trkpt>
      <trkpt lat="44.86063" lon="5.69075">
        <ele>709</ele>
        <time>2017-08-08T20:01:55Z</time>
      </trkpt>
      <trkpt lat="44.85997" lon="5.69053">
        <ele>707</ele>
        <time>2017-08-08T20:02:00Z</time>
      </trkpt>
      <trkpt lat="44.85929" lon="5.6903">
        <ele>704</ele>
        <time>2017-08-08T20:02:05Z</time>
      </trkpt>
      <trkpt lat="44.859" lon="5.69014">
        <ele>702</ele>
        <time>2017-08-08T20:02:14Z</time>
      </trkpt>
      <trkpt lat="44.85886" lon="5.69003">
        <ele>702</ele>
        <time>2017-08-08T20:02:16Z</time>
      </trkpt>
      <trkpt lat="44.85866" lon="5.68982">
        <ele>698</ele>
        <time>2017-08-08T20:02:32Z</time>
      </trkpt>
      <trkpt lat="44.85845" lon="5.68955">
        <ele>697</ele>
        <time>2017-08-08T20:02:44Z</time>
      </trkpt>
      <trkpt lat="44.8582" lon="5.6891">
        <ele>695</ele>
        <time>2017-08-08T20:02:59Z</time>
      </trkpt>
      <trkpt lat="44.85779" lon="5.68807">
        <ele>693</ele>
        <time>2017-08-08T20:03:17Z</time>
      </trkpt>
      <trkpt lat="44.85773" lon="5.68782">
        <ele>693</ele>
        <time>2017-08-08T20:03:20Z</time>
      </trkpt>
      <trkpt lat="44.85772" lon="5.68766">
        <ele>693</ele>
        <time>2017-08-08T20:03:23Z</time>
      </trkpt>
      <trkpt lat="44.85775" lon="5.68749">
        <ele>692</ele>
        <time>2017-08-08T20:03:33Z</time>
      </trkpt>
      <trkpt lat="44.85783" lon="5.68713">
        <ele>691</ele>
        <time>2017-08-08T20:03:42Z</time>
      </trkpt>
      <trkpt lat="44.85791" lon="5.68643">
        <ele>690</ele>
        <time>2017-08-08T20:03:44Z</time>
      </trkpt>
      <trkpt lat="44.85809" lon="5.68448">
        <ele>698</ele>
        <time>2017-08-08T20:03:52Z</time>
      </trkpt>
      <trkpt lat="44.85825" lon="5.68355">
        <ele>705</ele>
        <time>2017-08-08T20:04:01Z</time>
      </trkpt>
      <trkpt lat="44.85832" lon="5.68318">
        <ele>708</ele>
        <time>2017-08-08T20:04:21Z</time>
      </trkpt>
      <trkpt lat="44.85837" lon="5.68265">
        <ele>700</ele>
        <time>2017-08-08T20:04:30Z</time>
      </trkpt>
      <trkpt lat="44.85841" lon="5.68224">
        <ele>707</ele>
        <time>2017-08-08T20:04:42Z</time>
      </trkpt>
      <trkpt lat="44.85851" lon="5.68202">
        <ele>709</ele>
        <time>2017-08-08T20:05:02Z</time>
      </trkpt>
      <trkpt lat="44.85862" lon="5.6819">
        <ele>709</ele>
        <time>2017-08-08T20:05:09Z</time>
      </trkpt>
      <trkpt lat="44.85885" lon="5.68178">
        <ele>706</ele>
        <time>2017-08-08T20:05:15Z</time>
      </trkpt>
      <trkpt lat="44.85907" lon="5.68163">
        <ele>708</ele>
        <time>2017-08-08T20:05:28Z</time>
      </trkpt>
      <trkpt lat="44.85917" lon="5.6815">
        <ele>698</ele>
        <time>2017-08-08T20:05:36Z</time>
      </trkpt>
      <trkpt lat="44.85922" lon="5.68133">
        <ele>698</ele>
        <time>2017-08-08T20:05:49Z</time>
      </trkpt>
      <trkpt lat="44.85922" lon="5.68113">
        <ele>701</ele>
        <time>2017-08-08T20:05:55Z</time>
      </trkpt>
      <trkpt lat="44.85911" lon="5.68046">
        <ele>728</ele>
        <time>2017-08-08T20:06:00Z</time>
      </trkpt>
      <trkpt lat="44.859" lon="5.67954">
        <ele>731</ele>
        <time>2017-08-08T20:06:13Z</time>
      </trkpt>
      <trkpt lat="44.85889" lon="5.67912">
        <ele>727</ele>
        <time>2017-08-08T20:06:24Z</time>
      </trkpt>
      <trkpt lat="44.85866" lon="5.6785">
        <ele>731</ele>
        <time>2017-08-08T20:06:42Z</time>
      </trkpt>
      <trkpt lat="44.85832" lon="5.67759">
        <ele>732</ele>
        <time>2017-08-08T20:06:57Z</time>
      </trkpt>
      <trkpt lat="44.8582" lon="5.67736">
        <ele>729</ele>
        <time>2017-08-08T20:07:13Z</time>
      </trkpt>
      <trkpt lat="44.85804" lon="5.67726">
        <ele>730</ele>
        <time>2017-08-08T20:07:29Z</time>
      </trkpt>
      <trkpt lat="44.85783" lon="5.67713">
        <ele>732</ele>
        <time>2017-08-08T20:07:42Z</time>
      </trkpt>
      <trkpt lat="44.85773" lon="5.67696">
        <ele>731</ele>
        <time>2017-08-08T20:08:01Z</time>
      </trkpt>
      <trkpt lat="44.85769" lon="5.67672">
        <ele>730</ele>
        <time>2017-08-08T20:08:03Z</time>
      </trkpt>
      <trkpt lat="44.85771" lon="5.67641">
        <ele>725</ele>
        <time>2017-08-08T20:08:15Z</time>
      </trkpt>
      <trkpt lat="44.85768" lon="5.67619">
        <ele>724</ele>
        <time>2017-08-08T20:08:35Z</time>
      </trkpt>
      <trkpt lat="44.85762" lon="5.67604">
        <ele>724</ele>
        <time>2017-08-08T20:08:38Z</time>
      </trkpt>
      <trkpt lat="44.85741" lon="5.67578">
        <ele>727</ele>
        <time>2017-08-08T20:08:43Z</time>
      </trkpt>
      <trkpt lat="44.85717" lon="5.67554">
        <ele>731</ele>
        <time>2017-08-08T20:08:54Z</time>
      </trkpt>
      <trkpt lat="44.85682" lon="5.67519">
        <ele>734</ele>
        <time>2017-08-08T20:09:11Z</time>
      </trkpt>
      <trkpt lat="44.85667" lon="5.67501">
        <ele>738</ele>
        <time>2017-08-08T20:09:31Z</time>
      </trkpt>
      <trkpt lat="44.85655" lon="5.67482">
        <ele>742</ele>
        <time>2017-08-08T20:09:42Z</time>
      </trkpt>
      <trkpt lat="44.8564" lon="5.67416">
        <ele>741</ele>
        <time>2017-08-08T20:09:49Z</time>
      </trkpt>
      <trkpt lat="44.85627" lon="5.67376">
        <ele>743</ele>
        <time>2017-08-08T20:09:53Z</time>
      </trkpt>
      <trkpt lat="44.85622" lon="5.67347">
        <ele>744</ele>
        <time>2017-08-08T20:10:05Z</time>
      </trkpt>
      <trkpt lat="44.85622" lon="5.67281">
        <ele>741</ele>
        <time>2017-08-08T20:10:23Z</time>
      </trkpt>
      <trkpt lat="44.85623" lon="5.67228">
        <ele>740</ele>
        <time>2017-08-08T20:10:26Z</time>
      </trkpt>
      <trkpt lat="44.85617" lon="5.67204">
        <ele>740</ele>
        <time>2017-08-08T20:10:33Z</time>
      </trkpt>
      <trkpt lat="44.85613" lon="5.67197">
        <ele>741</ele>
        <time>2017-08-08T20:10:50Z</time>
      </trkpt>
      <trkpt lat="44.85603" lon="5.67183">
        <ele>742</ele>
        <time>2017-08-08T20:10:58Z</time>
      </trkpt>
      <trkpt lat="44.8559" lon="5.67172">
        <ele>744</ele>
        <time>2017-08-08T20:11:03Z</time>
      </trkpt>
      <trkpt lat="44.85564" lon="5.67162">
        <ele>746</ele>
        <time>2017-08-08T20:11:20Z</time>
      </trkpt>
      <trkpt lat="44.8542" lon="5.67131">
        <ele>745</ele>
        <time>2017-08-08T20:11:35Z</time>
      </trkpt>
      <trkpt lat="44.85274" lon="5.67099">
        <ele>741</ele>
        <time>2017-08-08T20:11:40Z</time>
      </trkpt>
      <trkpt lat="44.85231" lon="5.67093">
        <ele>738</ele>
        <time>2017-08-08T20:11:43Z</time>
      </trkpt>
      <trkpt lat="44.85218" lon="5.67094">
        <ele>738</ele>
        <time>2017-08-08T20:11:45Z</time>
      </trkpt>
      <trkpt lat="44.85191" lon="5.67101">
        <ele>736</ele>
        <time>2017-08-08T20:12:01Z</time>
      </trkpt>
      <trkpt lat="44.85148" lon="5.67121">
        <ele>735</ele>
        <time>2017-08-08T20:12:12Z</time>
      </trkpt>
      <trkpt lat="44.85119" lon="5.67126">
        <ele>734</ele>
        <time>2017-08-08T20:12:15Z</time>
      </trkpt>
      <trkpt lat="44.85103" lon="5.67129">
        <ele>734</ele>
        <time>2017-08-08T20:12:30Z</time>
      </trkpt>
      <trkpt lat="44.8502" lon="5.67174">
        <ele>738</ele>
        <time>2017-08-08T20:12:36Z</time>
      </trkpt>
      <trkpt lat="44.8499" lon="5.67188">
        <ele>738</ele>
        <time>2017-08-08T20:12:52Z</time>
      </trkpt>
      <trkpt lat="44.84966" lon="5.67195">
        <ele>738</ele>
        <time>2017-08-08T20:13:02Z</time>
      </trkpt>
      <trkpt lat="44.8494" lon="5.67197">
        <ele>738</ele>
        <time>2017-08-08T20:13:21Z</time>
      </trkpt>
      <trkpt lat="44.84855" lon="5.67185">
        <ele>737</ele>
        <time>2017-08-08T20:13:29Z</time>
      </trkpt>
      <trkpt lat="44.84788" lon="5.67176">
        <ele>733</ele>
        <time>2017-08-08T20:13:47Z</time>
      </trkpt>
      <trkpt lat="44.84541" lon="5.67152">
        <ele>712</ele>
        <time>2017-08-08T20:14:00Z</time>
      </trkpt>
      <trkpt lat="44.84473" lon="5.67147">
        <ele>707</ele>
        <time>2017-08-08T20:14:11Z</time>
      </trkpt>
      <trkpt lat="44.844" lon="5.67138">
        <ele>708</ele>
        <time>2017-08-08T20:14:31Z</time>
      </trkpt>
      <trkpt lat="44.84303" lon="5.67129">
        <ele>707</ele>
        <time>2017-08-08T20:14:51Z</time>
      </trkpt>
      <trkpt lat="44.84292" lon="5.67128">
        <ele>707</ele>
        <time>2017-08-08T20:15:08Z</time>
      </trkpt>
      <trkpt lat="44.84238" lon="5.67128">
        <ele>699</ele>
        <time>2017-08-08T20:15:15Z</time>
      </trkpt>
      <trkpt lat="44.84219" lon="5.67132">
        <ele>698</ele>
        <time>2017-08-08T20:15:34Z</time>
      </trkpt>
      <trkpt lat="44.84213" lon="5.67134">
        <ele>698</ele>
        <time>2017-08-08T20:15:37Z</time>
      </trkpt>
      <trkpt lat="44.84201" lon="5.67147">
        <ele>698</ele>
        <time>2017-08-08T20:15:50Z</time>
      </trkpt>
      <trkpt lat="44.84157" lon="5.67218">
        <ele>701</ele>
        <time>2017-08-08T20:15:56Z</time>
      </trkpt>
      <trkpt lat="44.84143" lon="5.67241">
        <ele>703</ele>
        <time>2017-08-08T20:16:16Z</time>
      </trkpt>
      <trkpt lat="44.84126" lon="5.67263">
        <ele>711</ele>
        <time>2017-08-08T20:16:33Z</time>
      </trkpt>
      <trkpt lat="44.8411" lon="5.67278">
        <ele>710</ele>
        <time>2017-08-08T20:16:44Z</time>
      </trkpt>
      <trkpt lat="44.841" lon="5.67283">
        <ele>710</ele>
        <time>2017-08-08T20:16:50Z</time>
      </trkpt>
      <trkpt lat="44.84092" lon="5.67284">
        <ele>710</ele>
        <time>2017-08-08T20:17:03Z</time>
      </trkpt>
      <trkpt lat="44.84086" lon="5.67286">
        <ele>710</ele>
        <time>2017-08-08T20:17:23Z</time>
      </trkpt>
      <trkpt lat="44.84076" lon="5.67285">
        <ele>708</ele>
        <time>2017-08-08T20:17:28Z</time>
      </trkpt>
      <trkpt lat="44.84045" lon="5.67274">
        <ele>708</ele>
        <time>2017-08-08T20:17:35Z</time>
      </trkpt>
      <trkpt lat="44.83954" lon="5.67229">
        <ele>700</ele>
        <time>2017-08-08T20:17:53Z</time>
      </trkpt>
      <trkpt lat="44.83914" lon="5.67215">
        <ele>702</ele>
        <time>2017-08-08T20:18:04Z</time>
      </trkpt>
      <trkpt lat="44.8386" lon="5.67202">
        <ele>701</ele>
        <time>2017-08-08T20:18:20Z</time>
      </trkpt>
      <trkpt lat="44.83836" lon="5.67203">
        <ele>701</ele>
        <time>2017-08-08T20:18:23Z</time>
      </trkpt>
      <trkpt lat="44.83813" lon="5.67212">
        <ele>699</ele>
        <time>2017-08-08T20:18:37Z</time>
      </trkpt>
      <trkpt lat="44.83806" lon="5.67215">
        <ele>699</ele>
        <time>2017-08-08T20:18:44Z</time>
      </trkpt>
      <trkpt lat="44.83798" lon="5.67224">
        <ele>699</ele>
        <time>2017-08-08T20:18:56Z</time>
      </trkpt>
      <trkpt lat="44.83769" lon="5.67251">
        <ele>700</ele>
        <time>2017-08-08T20:19:00Z</time>
      </trkpt>
      <trkpt lat="44.83752" lon="5.67262">
        <ele>699</ele>
        <time>2017-08-08T20:19:20Z</time>
      </trkpt>
      <trkpt lat="44.83735" lon="5.67268">
        <ele>694</ele>
        <time>2017-08-08T20:19:23Z</time>
      </trkpt>
      <trkpt lat="44.83712" lon="5.67267">
        <ele>693</ele>
        <time>2017-08-08T20:19:34Z</time>
      </trkpt>
      <trkpt lat="44.83696" lon="5.67262">
        <ele>692</ele>
        <time>2017-08-08T20:19:53Z</time>
      </trkpt>
      <trkpt lat="44.83662" lon="5.67242">
        <ele>691</ele>
        <time>2017-08-08T20:20:13Z</time>
      </trkpt>
      <trkpt lat="44.83652" lon="5.67241">
        <ele>689</ele>
        <time>2017-08-08T20:20:27Z</time>
      </trkpt>
      <trkpt lat="44.83645" lon="5.67244">
        <ele>688</ele>
        <time>2017-08-08T20:20:30Z</time>
      </trkpt>
      <trkpt lat="44.83636" lon="5.67256">
        <ele>685</ele>
        <time>2017-08-08T20:20:49Z</time>
      </trkpt>
      <trkpt lat="44.83634" lon="5.67266">
        <ele>684</ele>
        <time>2017-08-08T20:20:52Z</time>
      </trkpt>
      <trkpt lat="44.83636" lon="5.67278">
        <ele>684</ele>
        <time>2017-08-08T20:21:10Z</time>
      </trkpt>
      <trkpt lat="44.83641" lon="5.6729">
        <ele>683</ele>
        <time>2017-08-08T20:21:29Z</time>
      </trkpt>
      <trkpt lat="44.83649" lon="5.67296">
        <ele>683</ele>
        <time>2017-08-08T20:21:47Z</time>
      </trkpt>
      <trkpt lat="44.83697" lon="5.67311">
        <ele>690</ele>
        <time>2017-08-08T20:22:07Z</time>
      </trkpt>
      <trkpt lat="44.83724" lon="5.67321">
        <ele>691</ele>
        <time>2017-08-08T20:22:19Z</time>
      </trkpt>
      <trkpt lat="44.83743" lon="5.67334">
        <ele>689</ele>
        <time>2017-08-08T20:22:23Z</time>
      </trkpt>
      <trkpt lat="44.8377" lon="5.67362">
        <ele>694</ele>
        <time>2017-08-08T20:22:32Z</time>
      </trkpt>
      <trkpt lat="44.83789" lon="5.67389">
        <ele>695</ele>
        <time>2017-08-08T20:22:46Z</time>
      </trkpt>
      <trkpt lat="44.83796" lon="5.67404">
        <ele>695</ele>
        <time>2017-08-08T20:23:05Z</time>
      </trkpt>
      <trkpt lat="44.83799" lon="5.67421">
        <ele>692</ele>
        <time>2017-08-08T20:23:20Z</time>
      </trkpt>
      <trkpt lat="44.83798" lon="5.6743">
        <ele>692</ele>
        <time>2017-08-08T20:23:26Z</time>
      </trkpt>
      <trkpt lat="44.83788" lon="5.67443">
        <ele>690</ele>
        <time>2017-08-08T20:23:34Z</time>
      </trkpt>
      <trkpt lat="44.83754" lon="5.67464">
        <ele>687</ele>
        <time>2017-08-08T20:23:44Z</time>
      </trkpt>
      <trkpt lat="44.83728" lon="5.67485">
        <ele>680</ele>
        <time>2017-08-08T20:24:01Z</time>
      </trkpt>
      <trkpt lat="44.83703" lon="5.67496">
        <ele>680</ele>
        <time>2017-08-08T20:24:18Z</time>
      </trkpt>
      <trkpt lat="44.83641" lon="5.67516">
        <ele>685</ele>
        <time>2017-08-08T20:24:23Z</time>
      </trkpt>
      <trkpt lat="44.83612" lon="5.67521">
        <ele>686</ele>
        <time>2017-08-08T20:24:39Z</time>
      </trkpt>
      <trkpt lat="44.83586" lon="5.67521">
        <ele>683</ele>
        <time>2017-08-08T20:24:46Z</time>
      </trkpt>
      <trkpt lat="44.83574" lon="5.6752">
        <ele>684</ele>
        <time>2017-08-08T20:25:00Z</time>
      </trkpt>
      <trkpt lat="44.83561" lon="5.67515">
        <ele>684</ele>
        <time>2017-08-08T20:25:08Z</time>
      </trkpt>
      <trkpt lat="44.83535" lon="5.67509">
        <ele>684</ele>
        <time>2017-08-08T20:25:16Z</time>
      </trkpt>
      <trkpt lat="44.83493" lon="5.67497">
        <ele>669</ele>
        <time>2017-08-08T20:25:18Z</time>
      </trkpt>
      <trkpt lat="44.83447" lon="5.67488">
        <ele>663</ele>
        <time>2017-08-08T20:25:21Z</time>
      </trkpt>
      <trkpt lat="44.83407" lon="5.67483">
        <ele>661</ele>
        <time>2017-08-08T20:25:35Z</time>
      </trkpt>
      <trkpt lat="44.83385" lon="5.67482">
        <ele>658</ele>
        <time>2017-08-08T20:25:44Z</time>
      </trkpt>
      <trkpt lat="44.83369" lon="5.67485">
        <ele>658</ele>
        <time>2017-08-08T20:25:47Z</time>
      </trkpt>
      <trkpt lat="44.83353" lon="5.67488">
        <ele>658</ele>
        <time>2017-08-08T20:25:49Z</time>
      </trkpt>
      <trkpt lat="44.83339" lon="5.67489">
        <ele>658</ele>
        <time>2017-08-08T20:26:00Z</time>
      </trkpt>
      <trkpt lat="44.83325" lon="5.67485">
        <ele>661</ele>
        <time>2017-08-08T20:26:02Z</time>
      </trkpt>
      <trkpt lat="44.83315" lon="5.67478">
        <ele>662</ele>
        <time>2017-08-08T20:26:13Z</time>
      </trkpt>
      <trkpt lat="44.83307" lon="5.67468">
        <ele>663</ele>
        <time>2017-08-08T20:26:29Z</time>
      </trkpt>
      <trkpt lat="44.83298" lon="5.67442">
        <ele>662</ele>
        <time>2017-08-08T20:26:36Z</time>
      </trkpt>
      <trkpt lat="44.83287" lon="5.67373">
        <ele>654</ele>
        <time>2017-08-08T20:26:40Z</time>
      </trkpt>
      <trkpt lat="44.83265" lon="5.673">
        <ele>644</ele>
        <time>2017-08-08T20:26:43Z</time>
      </trkpt>
      <trkpt lat="44.83255" lon="5.67268">
        <ele>640</ele>
        <time>2017-08-08T20:27:02Z</time>
      </trkpt>
      <trkpt lat="44.83244" lon="5.67248">
        <ele>636</ele>
        <time>2017-08-08T20:27:16Z</time>
      </trkpt>
      <trkpt lat="44.83231" lon="5.67232">
        <ele>635</ele>
        <time>2017-08-08T20:27:24Z</time>
      </trkpt>
      <trkpt lat="44.83222" lon="5.67227">
        <ele>635</ele>
        <time>2017-08-08T20:27:28Z</time>
      </trkpt>
      <trkpt lat="44.83203" lon="5.67217">
        <ele>635</ele>
        <time>2017-08-08T20:27:40Z</time>
      </trkpt>
      <trkpt lat="44.83173" lon="5.67205">
        <ele>635</ele>
        <time>2017-08-08T20:27:51Z</time>
      </trkpt>
      <trkpt lat="44.83161" lon="5.67204">
        <ele>637</ele>
        <time>2017-08-08T20:27:58Z</time>
      </trkpt>
      <trkpt lat="44.83145" lon="5.67206">
        <ele>637</ele>
        <time>2017-08-08T20:28:17Z</time>
      </trkpt>
      <trkpt lat="44.83129" lon="5.6721">
        <ele>637</ele>
        <time>2017-08-08T20:28:30Z</time>
      </trkpt>
      <trkpt lat="44.83113" lon="5.67214">
        <ele>638</ele>
        <time>2017-08-08T20:28:46Z</time>
      </trkpt>
      <trkpt lat="44.83097" lon="5.67211">
        <ele>637</ele>
        <time>2017-08-08T20:29:02Z</time>
      </trkpt>
      <trkpt lat="44.83088" lon="5.67208">
        <ele>637</ele>
        <time>2017-08-08T20:29:13Z</time>
      </trkpt>
      <trkpt lat="44.83046" lon="5.67184">
        <ele>631</ele>
        <time>2017-08-08T20:29:26Z</time>
      </trkpt>
      <trkpt lat="44.83032" lon="5.67177">
        <ele>630</ele>
        <time>2017-08-08T20:29:35Z</time>
      </trkpt>
      <trkpt lat="44.83018" lon="5.67177">
        <ele>629</ele>
        <time>2017-08-08T20:29:39Z</time>
      </trkpt>
      <trkpt lat="44.83006" lon="5.67184">
        <ele>629</ele>
        <time>2017-08-08T20:29:49Z</time>
      </trkpt>
      <trkpt lat="44.82991" lon="5.672">
        <ele>622</ele>
        <time>2017-08-08T20:29:53Z</time>
      </trkpt>
      <trkpt lat="44.82966" lon="5.67234">
        <ele>622</ele>
        <time>2017-08-08T20:30:08Z</time>
      </trkpt>
      <trkpt lat="44.82935" lon="5.67284">
        <ele>629</ele>
        <time>2017-08-08T20:30:27Z</time>
      </trkpt>
      <trkpt lat="44.82901" lon="5.67338">
        <ele>630</ele>
        <time>2017-08-08T20:30:43Z</time>
      </trkpt>
      <trkpt lat="44.8289" lon="5.6735">
        <ele>630</ele>
        <time>2017-08-08T20:30:45Z</time>
      </trkpt>
      <trkpt lat="44.82875" lon="5.6736">
        <ele>630</ele>
        <time>2017-08-08T20:31:02Z</time>
      </trkpt>
      <trkpt lat="44.82852" lon="5.67369">
        <ele>629</ele>
        <time>2017-08-08T20:31:19Z</time>
      </trkpt>
      <trkpt lat="44.82831" lon="5.67372">
        <ele>629</ele>
        <time>2017-08-08T20:31:37Z</time>
      </trkpt>
      <trkpt lat="44.82823" lon="5.67368">
        <ele>628</ele>
        <time>2017-08-08T20:31:46Z</time>
      </trkpt>
      <trkpt lat="44.82818" lon="5.67362">
        <ele>628</ele>
        <time>2017-08-08T20:31:49Z</time>
      </trkpt>
      <trkpt lat="44.82807" lon="5.67335">
        <ele>626</ele>
        <time>2017-08-08T20:32:08Z</time>
      </trkpt>
      <trkpt lat="44.8279" lon="5.67288">
        <ele>619</ele>
        <time>2017-08-08T20:32:12Z</time>
      </trkpt>
      <trkpt lat="44.82786" lon="5.67256">
        <ele>618</ele>
        <time>2017-08-08T20:32:15Z</time>
      </trkpt>
      <trkpt lat="44.82784" lon="5.67234">
        <ele>609</ele>
        <time>2017-08-08T20:32:27Z</time>
      </trkpt>
      <trkpt lat="44.82778" lon="5.67215">
        <ele>607</ele>
        <time>2017-08-08T20:32:38Z</time>
      </trkpt>
      <trkpt lat="44.8277" lon="5.67204">
        <ele>606</ele>
        <time>2017-08-08T20:32:49Z</time>
      </trkpt>
      <trkpt lat="44.82758" lon="5.67193">
        <ele>605</ele>
        <time>2017-08-08T20:33:08Z</time>
      </trkpt>
      <trkpt lat="44.82749" lon="5.67188">
        <ele>610</ele>
        <time>2017-08-08T20:33:20Z</time>
      </trkpt>
      <trkpt lat="44.82737" lon="5.67185">
        <ele>610</ele>
        <time>2017-08-08T20:33:37Z</time>
      </trkpt>
      <trkpt lat="44.82718" lon="5.67187">
        <ele>612</ele>
        <time>2017-08-08T20:33:45Z</time>
      </trkpt>
      <trkpt lat="44.82701" lon="5.67187">
        <ele>613</ele>
        <time>2017-08-08T20:33:49Z</time>
      </trkpt>
      <trkpt lat="44.82686" lon="5.6718">
        <ele>613</ele>
        <time>2017-08-08T20:34:07Z</time>
      </trkpt>
      <trkpt lat="44.82657" lon="5.67159">
        <ele>609</ele>
        <time>2017-08-08T20:34:19Z</time>
      </trkpt>
      <trkpt lat="44.82647" lon="5.67146">
        <ele>608</ele>
        <time>2017-08-08T20:34:39Z</time>
      </trkpt>
      <trkpt lat="44.82639" lon="5.67131">
        <ele>607</ele>
        <time>2017-08-08T20:34:42Z</time>
      </trkpt>
      <trkpt lat="44.82626" lon="5.67079">
        <ele>598</ele>
        <time>2017-08-08T20:34:53Z</time>
      </trkpt>
      <trkpt lat="44.82619" lon="5.67057">
        <ele>597</ele>
        <time>2017-08-08T20:35:03Z</time>
      </trkpt>
      <trkpt lat="44.82605" lon="5.67032">
        <ele>597</ele>
        <time>2017-08-08T20:35:12Z</time>
      </trkpt>
      <trkpt lat="44.82554" lon="5.66949">
        <ele>592</ele>
        <time>2017-08-08T20:35:26Z</time>
      </trkpt>
      <trkpt lat="44.8255" lon="5.66939">
        <ele>591</ele>
        <time>2017-08-08T20:35:40Z</time>
      </trkpt>
      <trkpt lat="44.82545" lon="5.6694">
        <ele>592</ele>
        <time>2017-08-08T20:36:00Z</time>
      </trkpt>
      <trkpt lat="44.82522" lon="5.6694">
        <ele>592</ele>
        <time>2017-08-08T20:36:07Z</time>
      </trkpt>
      <trkpt lat="44.82511" lon="5.66938">
        <ele>591</ele>
        <time>2017-08-08T20:36:26Z</time>
      </trkpt>
      <trkpt lat="44.82498" lon="5.6694">
        <ele>591</ele>
        <time>2017-08-08T20:36:29Z</time>
      </trkpt>
      <trkpt lat="44.82476" lon="5.66948">
        <ele>592</ele>
        <time>2017-08-08T20:36:37Z</time>
      </trkpt>
      <trkpt lat="44.82453" lon="5.66965">
        <ele>592</ele>
        <time>2017-08-08T20:36:45Z</time>
      </trkpt>
      <trkpt lat="44.82432" lon="5.66987">
        <ele>593</ele>
        <time>2017-08-08T20:36:50Z</time>
      </trkpt>
      <trkpt lat="44.82412" lon="5.67014">
        <ele>594</ele>
        <time>2017-08-08T20:36:56Z</time>
      </trkpt>
      <trkpt lat="44.82378" lon="5.67065">
        <ele>595</ele>
        <time>2017-08-08T20:37:14Z</time>
      </trkpt>
      <trkpt lat="44.82318" lon="5.67148">
        <ele>592</ele>
        <time>2017-08-08T20:37:25Z</time>
      </trkpt>
      <trkpt lat="44.82275" lon="5.672">
        <ele>593</ele>
        <time>2017-08-08T20:37:31Z</time>
      </trkpt>
      <trkpt lat="44.82258" lon="5.67225">
        <ele>593</ele>
        <time>2017-08-08T20:37:49Z</time>
      </trkpt>
      <trkpt lat="44.8225" lon="5.67244">
        <ele>589</ele>
        <time>2017-08-08T20:37:54Z</time>
      </trkpt>
      <trkpt lat="44.82248" lon="5.67258">
        <ele>589</ele>
        <time>2017-08-08T20:38:05Z</time>
      </trkpt>
      <trkpt lat="44.8225" lon="5.67283">
        <ele>590</ele>
        <time>2017-08-08T20:38:24Z</time>
      </trkpt>
      <trkpt lat="44.82253" lon="5.67305">
        <ele>599</ele>
        <time>2017-08-08T20:38:28Z</time>
      </trkpt>
      <trkpt lat="44.82251" lon="5.67321">
        <ele>597</ele>
        <time>2017-08-08T20:38:37Z</time>
      </trkpt>
      <trkpt lat="44.82243" lon="5.67336">
        <ele>594</ele>
        <time>2017-08-08T20:38:55Z</time>
      </trkpt>
      <trkpt lat="44.82224" lon="5.67352">
        <ele>595</ele>
        <time>2017-08-08T20:39:09Z</time>
      </trkpt>
      <trkpt lat="44.82212" lon="5.67361">
        <ele>595</ele>
        <time>2017-08-08T20:39:26Z</time>
      </trkpt>
      <trkpt lat="44.82191" lon="5.67375">
        <ele>594</ele>
        <time>2017-08-08T20:39:29Z</time>
      </trkpt>
      <trkpt lat="44.82178" lon="5.67384">
        <ele>594</ele>
        <time>2017-08-08T20:39:32Z</time>
      </trkpt>
      <trkpt lat="44.82169" lon="5.67354">
        <ele>592</ele>
        <time>2017-08-08T20:39:38Z</time>
      </trkpt>
      <trkpt lat="44.82158" lon="5.67314">
        <ele>591</ele>
        <time>2017-08-08T20:39:52Z</time>
      </trkpt>
      <trkpt lat="44.82159" lon="5.67306">
        <ele>592</ele>
        <time>2017-08-08T20:40:03Z</time>
      </trkpt>
      <trkpt lat="44.82165" lon="5.67296">
        <ele>592</ele>
        <time>2017-08-08T20:40:07Z</time>
      </trkpt>
      <trkpt lat="44.82173" lon="5.67284">
        <ele>590</ele>
        <time>2017-08-08T20:40:25Z</time>
      </trkpt>
      <trkpt lat="44.82181" lon="5.67257">
        <ele>590</ele>
        <time>2017-08-08T20:40:37Z</time>
      </trkpt>
      <trkpt lat="44.82183" lon="5.67236">
        <ele>589</ele>
        <time>2017-08-08T20:40:56Z</time>
      </trkpt>
      <trkpt lat="44.82183" lon="5.67218">
        <ele>588</ele>
        <time>2017-08-08T20:41:01Z</time>
      </trkpt>
      <trkpt lat="44.82179" lon="5.67205">
        <ele>588</ele>
        <time>2017-08-08T20:41:20Z</time>
      </trkpt>
      <trkpt lat="44.82171" lon="5.67193">
        <ele>587</ele>
        <time>2017-08-08T20:41:25Z</time>
      </trkpt>
      <trkpt lat="44.82152" lon="5.67182">
        <ele>591</ele>
        <time>2017-08-08T20:41:35Z</time>
      </trkpt>
      <trkpt lat="44.82132" lon="5.67175">
        <ele>593</ele>
        <time>2017-08-08T20:41:42Z</time>
      </trkpt>
      <trkpt lat="44.82108" lon="5.67165">
        <ele>593</ele>
        <time>2017-08-08T20:41:49Z</time>
      </trkpt>
      <trkpt lat="44.82102" lon="5.67158">
        <ele>594</ele>
        <time>2017-08-08T20:42:03Z</time>
      </trkpt>
      <trkpt lat="44.82093" lon="5.67144">
        <ele>594</ele>
        <time>2017-08-08T20:42:09Z</time>
      </trkpt>
      <trkpt lat="44.8209" lon="5.67126">
        <ele>593</ele>
        <time>2017-08-08T20:42:25Z</time>
      </trkpt>
      <trkpt lat="44.82089" lon="5.67111">
        <ele>593</ele>
        <time>2017-08-08T20:42:37Z</time>
      </trkpt>
      <trkpt lat="44.82094" lon="5.67092">
        <ele>594</ele>
        <time>2017-08-08T20:42:53Z</time>
      </trkpt>
      <trkpt lat="44.82098" lon="5.67078">
        <ele>598</ele>
        <time>2017-08-08T20:43:08Z</time>
      </trkpt>
      <trkpt lat="44.82105" lon="5.67069">
        <ele>599</ele>
        <time>2017-08-08T20:43:27Z</time>
      </trkpt>
      <trkpt lat="44.82133" lon="5.67067">
        <ele>599</ele>
        <time>2017-08-08T20:43:32Z</time>
      </trkpt>
      <trkpt lat="44.82142" lon="5.67063">
        <ele>599</ele>
        <time>2017-08-08T20:43:36Z</time>
      </trkpt>
      <trkpt lat="44.82149" lon="5.67051">
        <ele>600</ele>
        <time>2017-08-08T20:43:50Z</time>
      </trkpt>
      <trkpt lat="44.82154" lon="5.67036">
        <ele>602</ele>
        <time>2017-08-08T20:44:09Z</time>
      </trkpt>
      <trkpt lat="44.8216" lon="5.67025">
        <ele>603</ele>
        <time>2017-08-08T20:44:19Z</time>
      </trkpt>
      <trkpt lat="44.82181" lon="5.67009">
        <ele>599</ele>
        <time>2017-08-08T20:44:22Z</time>
      </trkpt>
      <trkpt lat="44.82186" lon="5.67004">
        <ele>599</ele>
        <time>2017-08-08T20:44:29Z</time>
      </trkpt>
      <trkpt lat="44.8219" lon="5.66996">
        <ele>605</ele>
        <time>2017-08-08T20:44:41Z</time>
      </trkpt>
      <trkpt lat="44.82191" lon="5.66982">
        <ele>606</ele>
        <time>2017-08-08T20:44:55Z</time>
      </trkpt>
      <trkpt lat="44.82179" lon="5.66954">
        <ele>609</ele>
        <time>2017-08-08T20:45:12Z</time>
      </trkpt>
      <trkpt lat="44.82176" lon="5.66938">
        <ele>612</ele>
        <time>2017-08-08T20:45:23Z</time>
      </trkpt>
      <trkpt lat="44.82177" lon="5.6693">
        <ele>614</ele>
        <time>2017-08-08T20:45:26Z</time>
      </trkpt>
      <trkpt lat="44.8219" lon="5.66896">
        <ele>621</ele>
        <time>2017-08-08T20:45:40Z</time>
      </trkpt>
      <trkpt lat="44.822" lon="5.66873">
        <ele>623</ele>
        <time>2017-08-08T20:45:54Z</time>
      </trkpt>
      <trkpt lat="44.82214" lon="5.66842">
        <ele>623</ele>
        <time>2017-08-08T20:46:10Z</time>
      </trkpt>
      <trkpt lat="44.82224" lon="5.6683">
        <ele>631</ele>
        <time>2017-08-08T20:46:20Z</time>
      </trkpt>
      <trkpt lat="44.82239" lon="5.6682">
        <ele>629</ele>
        <time>2017-08-08T20:46:30Z</time>
      </trkpt>
      <trkpt lat="44.82263" lon="5.66805">
        <ele>620</ele>
        <time>2017-08-08T20:46:34Z</time>
      </trkpt>
      <trkpt lat="44.82293" lon="5.66792">
        <ele>618</ele>
        <time>2017-08-08T20:46:50Z</time>
      </trkpt>
      <trkpt lat="44.8232" lon="5.66785">
        <ele>616</ele>
        <time>2017-08-08T20:47:08Z</time>
      </trkpt>
      <trkpt lat="44.82347" lon="5.66785">
        <ele>604</ele>
        <time>2017-08-08T20:47:17Z</time>
      </trkpt>
      <trkpt lat="44.82353" lon="5.66779">
        <ele>604</ele>
        <time>2017-08-08T20:47:34Z</time>
      </trkpt>
      <trkpt lat="44.82351" lon="5.66774">
        <ele>604</ele>
        <time>2017-08-08T20:47:48Z</time>
      </trkpt>
      <trkpt lat="44.82346" lon="5.66772">
        <ele>605</ele>
        <time>2017-08-08T20:48:05Z</time>
      </trkpt>
      <trkpt lat="44.82329" lon="5.66773">
        <ele>615</ele>
        <time>2017-08-08T20:48:16Z</time>
      </trkpt>
      <trkpt lat="44.82317" lon="5.66772">
        <ele>616</ele>
        <time>2017-08-08T20:48:30Z</time>
      </trkpt>
      <trkpt lat="44.82309" lon="5.66767">
        <ele>617</ele>
        <time>2017-08-08T20:48:41Z</time>
      </trkpt>
      <trkpt lat="44.82293" lon="5.66754">
        <ele>620</ele>
        <time>2017-08-08T20:48:44Z</time>
      </trkpt>
      <trkpt lat="44.82284" lon="5.66748">
        <ele>624</ele>
        <time>2017-08-08T20:48:48Z</time>
      </trkpt>
      <trkpt lat="44.82264" lon="5.66741">
        <ele>629</ele>
        <time>2017-08-08T20:48:52Z</time>
      </trkpt>
      <trkpt lat="44.82245" lon="5.66744">
        <ele>639</ele>
        <time>2017-08-08T20:48:57Z</time>
      </trkpt>
      <trkpt lat="44.82232" lon="5.6675">
        <ele>638</ele>
        <time>2017-08-08T20:49:17Z</time>
      </trkpt>
      <trkpt lat="44.82227" lon="5.66749">
        <ele>643</ele>
        <time>2017-08-08T20:49:19Z</time>
      </trkpt>
      <trkpt lat="44.82225" lon="5.66741">
        <ele>644</ele>
        <time>2017-08-08T20:49:26Z</time>
      </trkpt>
      <trkpt lat="44.82241" lon="5.66722">
        <ele>643</ele>
        <time>2017-08-08T20:49:28Z</time>
      </trkpt>
      <trkpt lat="44.82246" lon="5.66706">
        <ele>643</ele>
        <time>2017-08-08T20:49:31Z</time>
      </trkpt>
      <trkpt lat="44.82245" lon="5.66674">
        <ele>639</ele>
        <time>2017-08-08T20:49:42Z</time>
      </trkpt>
      <trkpt lat="44.82237" lon="5.6664">
        <ele>639</ele>
        <time>2017-08-08T20:49:53Z</time>
      </trkpt>
      <trkpt lat="44.8223" lon="5.66623">
        <ele>639</ele>
        <time>2017-08-08T20:49:59Z</time>
      </trkpt>
      <trkpt lat="44.82217" lon="5.66609">
        <ele>639</ele>
        <time>2017-08-08T20:50:03Z</time>
      </trkpt>
      <trkpt lat="44.82205" lon="5.66606">
        <ele>641</ele>
        <time>2017-08-08T20:50:22Z</time>
      </trkpt>
      <trkpt lat="44.82196" lon="5.66606">
        <ele>642</ele>
        <time>2017-08-08T20:50:24Z</time>
      </trkpt>
      <trkpt lat="44.82175" lon="5.66609">
        <ele>644</ele>
        <time>2017-08-08T20:50:42Z</time>
      </trkpt>
      <trkpt lat="44.82156" lon="5.6661">
        <ele>655</ele>
        <time>2017-08-08T20:50:44Z</time>
      </trkpt>
      <trkpt lat="44.8214" lon="5.66605">
        <ele>656</ele>
        <time>2017-08-08T20:50:54Z</time>
      </trkpt>
      <trkpt lat="44.82129" lon="5.66598">
        <ele>657</ele>
        <time>2017-08-08T20:51:11Z</time>
      </trkpt>
      <trkpt lat="44.82123" lon="5.66591">
        <ele>658</ele>
        <time>2017-08-08T20:51:16Z</time>
      </trkpt>
      <trkpt lat="44.82109" lon="5.66573">
        <ele>654</ele>
        <time>2017-08-08T20:51:26Z</time>
      </trkpt>
      <trkpt lat="44.82099" lon="5.66558">
        <ele>654</ele>
        <time>2017-08-08T20:51:34Z</time>
      </trkpt>
      <trkpt lat="44.82085" lon="5.66528">
        <ele>654</ele>
        <time>2017-08-08T20:51:54Z</time>
      </trkpt>
      <trkpt lat="44.82083" lon="5.66526">
        <ele>664</ele>
        <time>2017-08-08T20:52:07Z</time>
      </trkpt>
      <trkpt lat="44.82069" lon="5.6651">
        <ele>664</ele>
        <time>2017-08-08T20:52:21Z</time>
      </trkpt>
      <trkpt lat="44.82064" lon="5.66501">
        <ele>664</ele>
        <time>2017-08-08T20:52:40Z</time>
      </trkpt>
      <trkpt lat="44.82062" lon="5.66485">
        <ele>666</ele>
        <time>2017-08-08T20:53:00Z</time>
      </trkpt>
      <trkpt lat="44.82063" lon="5.66471">
        <ele>667</ele>
        <time>2017-08-08T20:53:17Z</time>
      </trkpt>
      <trkpt lat="44.82067" lon="5.6645">
        <ele>666</ele>
        <time>2017-08-08T20:53:36Z</time>
      </trkpt>
      <trkpt lat="44.82068" lon="5.66422">
        <ele>663</ele>
        <time>2017-08-08T20:53:48Z</time>
      </trkpt>
      <trkpt lat="44.82062" lon="5.66387">
        <ele>666</ele>
        <time>2017-08-08T20:54:07Z</time>
      </trkpt>
      <trkpt lat="44.82044" lon="5.66341">
        <ele>668</ele>
        <time>2017-08-08T20:54:24Z</time>
      </trkpt>
      <trkpt lat="44.82021" lon="5.66293">
        <ele>669</ele>
        <time>2017-08-08T20:54:26Z</time>
      </trkpt>
      <trkpt lat="44.82002" lon="5.66245">
        <ele>674</ele>
        <time>2017-08-08T20:54:46Z</time>
      </trkpt>
      <trkpt lat="44.8199" lon="5.66228">
        <ele>675</ele>
        <time>2017-08-08T20:54:52Z</time>
      </trkpt>
      <trkpt lat="44.81972" lon="5.66213">
        <ele>673</ele>
        <time>2017-08-08T20:55:11Z</time>
      </trkpt>
      <trkpt lat="44.81958" lon="5.66202">
        <ele>672</ele>
        <time>2017-08-08T20:55:16Z</time>
      </trkpt>
      <trkpt lat="44.81949" lon="5.66199">
        <ele>672</ele>
        <time>2017-08-08T20:55:22Z</time>
      </trkpt>
      <trkpt lat="44.81936" lon="5.66201">
        <ele>673</ele>
        <time>2017-08-08T20:55:24Z</time>
      </trkpt>
      <trkpt lat="44.81904" lon="5.6623">
        <ele>680</ele>
        <time>2017-08-08T20:55:43Z</time>
      </trkpt>
      <trkpt lat="44.81887" lon="5.66242">
        <ele>680</ele>
        <time>2017-08-08T20:55:59Z</time>
      </trkpt>
      <trkpt lat="44.8187" lon="5.66247">
        <ele>680</ele>
        <time>2017-08-08T20:56:11Z</time>
      </trkpt>
      <trkpt lat="44.81838" lon="5.66248">
        <ele>683</ele>
        <time>2017-08-08T20:56:22Z</time>
      </trkpt>
      <trkpt lat="44.81813" lon="5.66248">
        <ele>683</ele>
        <time>2017-08-08T20:56:42Z</time>
      </trkpt>
      <trkpt lat="44.8179" lon="5.66245">
        <ele>683</ele>
        <time>2017-08-08T20:56:46Z</time>
      </trkpt>
      <trkpt lat="44.81731" lon="5.66239">
        <ele>689</ele>
        <time>2017-08-08T20:57:01Z</time>
      </trkpt>
      <trkpt lat="44.81707" lon="5.66237">
        <ele>691</ele>
        <time>2017-08-08T20:57:15Z</time>
      </trkpt>
      <trkpt lat="44.81695" lon="5.66232">
        <ele>692</ele>
        <time>2017-08-08T20:57:24Z</time>
      </trkpt>
      <trkpt lat="44.81679" lon="5.66214">
        <ele>693</ele>
        <time>2017-08-08T20:57:35Z</time>
      </trkpt>
      <trkpt lat="44.81668" lon="5.66184">
        <ele>694</ele>
        <time>2017-08-08T20:57:49Z</time>
      </trkpt>
      <trkpt lat="44.81663" lon="5.6617">
        <ele>698</ele>
        <time>2017-08-08T20:58:08Z</time>
      </trkpt>
      <trkpt lat="44.8166" lon="5.66151">
        <ele>700</ele>
        <time>2017-08-08T20:58:13Z</time>
      </trkpt>
      <trkpt lat="44.81657" lon="5.66107">
        <ele>702</ele>
        <time>2017-08-08T20:58:15Z</time>
      </trkpt>
      <trkpt lat="44.81656" lon="5.66088">
        <ele>700</ele>
        <time>2017-08-08T20:58:25Z</time>
      </trkpt>
      <trkpt lat="44.8165" lon="5.6607">
        <ele>701</ele>
        <time>2017-08-08T20:58:43Z</time>
      </trkpt>
      <trkpt lat="44.81631" lon="5.6604">
        <ele>702</ele>
        <time>2017-08-08T20:58:53Z</time>
      </trkpt>
      <trkpt lat="44.81617" lon="5.66025">
        <ele>703</ele>
        <time>2017-08-08T20:58:56Z</time>
      </trkpt>
      <trkpt lat="44.81605" lon="5.66016">
        <ele>704</ele>
        <time>2017-08-08T20:59:14Z</time>
      </trkpt>
      <trkpt lat="44.81592" lon="5.66012">
        <ele>705</ele>
        <time>2017-08-08T20:59:30Z</time>
      </trkpt>
      <trkpt lat="44.81571" lon="5.66018">
        <ele>709</ele>
        <time>2017-08-08T20:59:46Z</time>
      </trkpt>
      <trkpt lat="44.81518" lon="5.66036">
        <ele>711</ele>
        <time>2017-08-08T20:59:58Z</time>
      </trkpt>
      <trkpt lat="44.81468" lon="5.66056">
        <ele>714</ele>
        <time>2017-08-08T21:00:07Z</time>
      </trkpt>
      <trkpt lat="44.81443" lon="5.66063">
        <ele>715</ele>
        <time>2017-08-08T21:00:25Z</time>
      </trkpt>
      <trkpt lat="44.81432" lon="5.66064">
        <ele>716</ele>
        <time>2017-08-08T21:00:39Z</time>
      </trkpt>
      <trkpt lat="44.81408" lon="5.66056">
        <ele>717</ele>
        <time>2017-08-08T21:00:47Z</time>
      </trkpt>
      <trkpt lat="44.81367" lon="5.66036">
        <ele>717</ele>
        <time>2017-08-08T21:01:01Z</time>
      </trkpt>
      <trkpt lat="44.81346" lon="5.66029">
        <ele>717</ele>
        <time>2017-08-08T21:01:03Z</time>
      </trkpt>
      <trkpt lat="44.81334" lon="5.6603">
        <ele>717</ele>
        <time>2017-08-08T21:01:21Z</time>
      </trkpt>
      <trkpt lat="44.81313" lon="5.66036">
        <ele>719</ele>
        <time>2017-08-08T21:01:40Z</time>
      </trkpt>
      <trkpt lat="44.81266" lon="5.66054">
        <ele>721</ele>
        <time>2017-08-08T21:01:46Z</time>
      </trkpt>
      <trkpt lat="44.81224" lon="5.66071">
        <ele>721</ele>
        <time>2017-08-08T21:02:05Z</time>
      </trkpt>
      <trkpt lat="44.81195" lon="5.66077">
        <ele>721</ele>
        <time>2017-08-08T21:02:23Z</time>
      </trkpt>
      <trkpt lat="44.8117" lon="5.66075">
        <ele>723</ele>
        <time>2017-08-08T21:02:31Z</time>
      </trkpt>
      <trkpt lat="44.81139" lon="5.66068">
        <ele>724</ele>
        <time>2017-08-08T21:02:46Z</time>
      </trkpt>
      <trkpt lat="44.81088" lon="5.66056">
        <ele>726</ele>
        <time>2017-08-08T21:03:02Z</time>
      </trkpt>
      <trkpt lat="44.81053" lon="5.66044">
        <ele>730</ele>
        <time>2017-08-08T21:03:07Z</time>
      </trkpt>
      <trkpt lat="44.81038" lon="5.66034">
        <ele>730</ele>
        <time>2017-08-08T21:03:20Z</time>
      </trkpt>
      <trkpt lat="44.81006" lon="5.66008">
        <ele>729</ele>
        <time>2017-08-08T21:03:22Z</time>
      </trkpt>
      <trkpt lat="44.80979" lon="5.6599">
        <ele>729</ele>
        <time>2017-08-08T21:03:38Z</time>
      </trkpt>
      <trkpt lat="44.8094" lon="5.65975">
        <ele>729</ele>
        <time>2017-08-08T21:03:48Z</time>
      </trkpt>
      <trkpt lat="44.80887" lon="5.65956">
        <ele>732</ele>
        <time>2017-08-08T21:04:03Z</time>
      </trkpt>
      <trkpt lat="44.80843" lon="5.65943">
        <ele>733</ele>
        <time>2017-08-08T21:04:22Z</time>
      </trkpt>
      <trkpt lat="44.80802" lon="5.65932">
        <ele>736</ele>
        <time>2017-08-08T21:04:37Z</time>
      </trkpt>
      <trkpt lat="44.80784" lon="5.65926">
        <ele>736</ele>
        <time>2017-08-08T21:04:57Z</time>
      </trkpt>
      <trkpt lat="44.80762" lon="5.65913">
        <ele>736</ele>
        <time>2017-08-08T21:05:07Z</time>
      </trkpt>
      <trkpt lat="44.80744" lon="5.65897">
        <ele>737</ele>
        <time>2017-08-08T21:05:11Z</time>
      </trkpt>
      <trkpt lat="44.80719" lon="5.65865">
        <ele>737</ele>
        <time>2017-08-08T21:05:23Z</time>
      </trkpt>
      <trkpt lat="44.80669" lon="5.65794">
        <ele>735</ele>
        <time>2017-08-08T21:05:25Z</time>
      </trkpt>
      <trkpt lat="44.80648" lon="5.65767">
        <ele>738</ele>
        <time>2017-08-08T21:05:36Z</time>
      </trkpt>
      <trkpt lat="44.80623" lon="5.65747">
        <ele>738</ele>
        <time>2017-08-08T21:05:38Z</time>
      </trkpt>
      <trkpt lat="44.80565" lon="5.65706">
        <ele>743</ele>
        <time>2017-08-08T21:05:50Z</time>
      </trkpt>
      <trkpt lat="44.80535" lon="5.65685">
        <ele>744</ele>
        <time>2017-08-08T21:06:05Z</time>
      </trkpt>
      <trkpt lat="44.80505" lon="5.65662">
        <ele>745</ele>
        <time>2017-08-08T21:06:24Z</time>
      </trkpt>
      <trkpt lat="44.80487" lon="5.6564">
        <ele>745</ele>
        <time>2017-08-08T21:06:40Z</time>
      </trkpt>
      <trkpt lat="44.80471" lon="5.65616">
        <ele>745</ele>
        <time>2017-08-08T21:06:47Z</time>
      </trkpt>
      <trkpt lat="44.80452" lon="5.65588">
        <ele>746</ele>
        <time>2017-08-08T21:07:07Z</time>
      </trkpt>
      <trkpt lat="44.80427" lon="5.65546">
        <ele>748</ele>
        <time>2017-08-08T21:07:26Z</time>
      </trkpt>
      <trkpt lat="44.80411" lon="5.65502">
        <ele>751</ele>
        <time>2017-08-08T21:07:46Z</time>
      </trkpt>
      <trkpt lat="44.80387" lon="5.65415">
        <ele>758</ele>
        <time>2017-08-08T21:08:00Z</time>
      </trkpt>
      <trkpt lat="44.80373" lon="5.65379">
        <ele>759</ele>
        <time>2017-08-08T21:08:09Z</time>
      </trkpt>
      <trkpt lat="44.80362" lon="5.65361">
        <ele>760</ele>
        <time>2017-08-08T21:08:29Z</time>
      </trkpt>
      <trkpt lat="44.80354" lon="5.6535">
        <ele>761</ele>
        <time>2017-08-08T21:08:48Z</time>
      </trkpt>
      <trkpt lat="44.80323" lon="5.65327">
        <ele>766</ele>
        <time>2017-08-08T21:08:50Z</time>
      </trkpt>
      <trkpt lat="44.80226" lon="5.65269">
        <ele>769</ele>
        <time>2017-08-08T21:09:06Z</time>
      </trkpt>
      <trkpt lat="44.80212" lon="5.65259">
        <ele>769</ele>
        <time>2017-08-08T21:09:16Z</time>
      </trkpt>
      <trkpt lat="44.80201" lon="5.65241">
        <ele>774</ele>
        <time>2017-08-08T21:09:24Z</time>
      </trkpt>
      <trkpt lat="44.80194" lon="5.65212">
        <ele>774</ele>
        <time>2017-08-08T21:09:41Z</time>
      </trkpt>
      <trkpt lat="44.80193" lon="5.65181">
        <ele>776</ele>
        <time>2017-08-08T21:09:53Z</time>
      </trkpt>
      <trkpt lat="44.80203" lon="5.65116">
        <ele>779</ele>
        <time>2017-08-08T21:10:05Z</time>
      </trkpt>
      <trkpt lat="44.80213" lon="5.65024">
        <ele>783</ele>
        <time>2017-08-08T21:10:24Z</time>
      </trkpt>
      <trkpt lat="44.80213" lon="5.64984">
        <ele>786</ele>
        <time>2017-08-08T21:10:40Z</time>
      </trkpt>
      <trkpt lat="44.8021" lon="5.64936">
        <ele>788</ele>
        <time>2017-08-08T21:10:55Z</time>
      </trkpt>
      <trkpt lat="44.80192" lon="5.64826">
        <ele>789</ele>
        <time>2017-08-08T21:11:07Z</time>
      </trkpt>
      <trkpt lat="44.80182" lon="5.64787">
        <ele>788</ele>
        <time>2017-08-08T21:11:09Z</time>
      </trkpt>
      <trkpt lat="44.80171" lon="5.64769">
        <ele>788</ele>
        <time>2017-08-08T21:11:26Z</time>
      </trkpt>
      <trkpt lat="44.80122" lon="5.64704">
        <ele>788</ele>
        <time>2017-08-08T21:11:42Z</time>
      </trkpt>
      <trkpt lat="44.80101" lon="5.64678">
        <ele>787</ele>
        <time>2017-08-08T21:11:49Z</time>
      </trkpt>
      <trkpt lat="44.80083" lon="5.64659">
        <ele>785</ele>
        <time>2017-08-08T21:11:51Z</time>
      </trkpt>
      <trkpt lat="44.80046" lon="5.64628">
        <ele>783</ele>
        <time>2017-08-08T21:12:08Z</time>
      </trkpt>
      <trkpt lat="44.80033" lon="5.64611">
        <ele>783</ele>
        <time>2017-08-08T21:12:18Z</time>
      </trkpt>
      <trkpt lat="44.80017" lon="5.64585">
        <ele>783</ele>
        <time>2017-08-08T21:12:31Z</time>
      </trkpt>
      <trkpt lat="44.79989" lon="5.64598">
        <ele>782</ele>
        <time>2017-08-08T21:12:48Z</time>
      </trkpt>
      <trkpt lat="44.79977" lon="5.64602">
        <ele>782</ele>
        <time>2017-08-08T21:12:52Z</time>
      </trkpt>
      <trkpt lat="44.79951" lon="5.64603">
        <ele>781</ele>
        <time>2017-08-08T21:13:09Z</time>
      </trkpt>
      <trkpt lat="44.79903" lon="5.64595">
        <ele>778</ele>
        <time>2017-08-08T21:13:19Z</time>
      </trkpt>
      <trkpt lat="44.79876" lon="5.64591">
        <ele>776</ele>
        <time>2017-08-08T21:13:31Z</time>
      </trkpt>
      <trkpt lat="44.7986" lon="5.64582">
        <ele>782</ele>
        <time>2017-08-08T21:13:33Z</time>
      </trkpt>
      <trkpt lat="44.79843" lon="5.64568">
        <ele>781</ele>
        <time>2017-08-08T21:13:49Z</time>
      </trkpt>
      <trkpt lat="44.79828" lon="5.64548">
        <ele>774</ele>
        <time>2017-08-08T21:13:59Z</time>
      </trkpt>
      <trkpt lat="44.79815" lon="5.64518">
        <ele>776</ele>
        <time>2017-08-08T21:14:05Z</time>
      </trkpt>
      <trkpt lat="44.79808" lon="5.64497">
        <ele>780</ele>
        <time>2017-08-08T21:14:20Z</time>
      </trkpt>
      <trkpt lat="44.79801" lon="5.64434">
        <ele>779</ele>
        <time>2017-08-08T21:14:26Z</time>
      </trkpt>
      <trkpt lat="44.79793" lon="5.64398">
        <ele>779</ele>
        <time>2017-08-08T21:14:44Z</time>
      </trkpt>
      <trkpt lat="44.79786" lon="5.64382">
        <ele>778</ele>
        <time>2017-08-08T21:14:55Z</time>
      </trkpt>
      <trkpt lat="44.79775" lon="5.64365">
        <ele>777</ele>
        <time>2017-08-08T21:15:08Z</time>
      </trkpt>
      <trkpt lat="44.79761" lon="5.64351">
        <ele>776</ele>
        <time>2017-08-08T21:15:28Z</time>
      </trkpt>
      <trkpt lat="44.79743" lon="5.64342">
        <ele>770</ele>
        <time>2017-08-08T21:15:36Z</time>
      </trkpt>
      <trkpt lat="44.79713" lon="5.64334">
        <ele>767</ele>
        <time>2017-08-08T21:15:51Z</time>
      </trkpt>
      <trkpt lat="44.79704" lon="5.64329">
        <ele>772</ele>
        <time>2017-08-08T21:16:01Z</time>
      </trkpt>
      <trkpt lat="44.79692" lon="5.64321">
        <ele>771</ele>
        <time>2017-08-08T21:16:09Z</time>
      </trkpt>
      <trkpt lat="44.7968" lon="5.64308">
        <ele>771</ele>
        <time>2017-08-08T21:16:14Z</time>
      </trkpt>
      <trkpt lat="44.79664" lon="5.64299">
        <ele>768</ele>
        <time>2017-08-08T21:16:17Z</time>
      </trkpt>
      <trkpt lat="44.79654" lon="5.64299">
        <ele>768</ele>
        <time>2017-08-08T21:16:21Z</time>
      </trkpt>
      <trkpt lat="44.79625" lon="5.64307">
        <ele>767</ele>
        <time>2017-08-08T21:16:38Z</time>
      </trkpt>
      <trkpt lat="44.79604" lon="5.64311">
        <ele>765</ele>
        <time>2017-08-08T21:16:49Z</time>
      </trkpt>
      <trkpt lat="44.7959" lon="5.64304">
        <ele>765</ele>
        <time>2017-08-08T21:16:58Z</time>
      </trkpt>
      <trkpt lat="44.79572" lon="5.64286">
        <ele>764</ele>
        <time>2017-08-08T21:17:08Z</time>
      </trkpt>
      <trkpt lat="44.79556" lon="5.64273">
        <ele>765</ele>
        <time>2017-08-08T21:17:26Z</time>
      </trkpt>
      <trkpt lat="44.79526" lon="5.64266">
        <ele>764</ele>
        <time>2017-08-08T21:17:36Z</time>
      </trkpt>
      <trkpt lat="44.79491" lon="5.64262">
        <ele>763</ele>
        <time>2017-08-08T21:17:51Z</time>
      </trkpt>
      <trkpt lat="44.79469" lon="5.64256">
        <ele>761</ele>
        <time>2017-08-08T21:18:10Z</time>
      </trkpt>
      <trkpt lat="44.79442" lon="5.64239">
        <ele>766</ele>
        <time>2017-08-08T21:18:29Z</time>
      </trkpt>
      <trkpt lat="44.79415" lon="5.64221">
        <ele>763</ele>
        <time>2017-08-08T21:18:33Z</time>
      </trkpt>
      <trkpt lat="44.79407" lon="5.64218">
        <ele>764</ele>
        <time>2017-08-08T21:18:40Z</time>
      </trkpt>
      <trkpt lat="44.79394" lon="5.64218">
        <ele>764</ele>
        <time>2017-08-08T21:18:57Z</time>
      </trkpt>
      <trkpt lat="44.79366" lon="5.64222">
        <ele>764</ele>
        <time>2017-08-08T21:19:12Z</time>
      </trkpt>
      <trkpt lat="44.79354" lon="5.64228">
        <ele>763</ele>
        <time>2017-08-08T21:19:19Z</time>
      </trkpt>
      <trkpt lat="44.79348" lon="5.64243">
        <ele>763</ele>
        <time>2017-08-08T21:19:23Z</time>
      </trkpt>
      <trkpt lat="44.79348" lon="5.64281">
        <ele>764</ele>
        <time>2017-08-08T21:19:25Z</time>
      </trkpt>
      <trkpt lat="44.79353" lon="5.6429">
        <ele>765</ele>
        <time>2017-08-08T21:19:34Z</time>
      </trkpt>
      <trkpt lat="44.7938" lon="5.64318">
        <ele>764</ele>
        <time>2017-08-08T21:19:51Z</time>
      </trkpt>
      <trkpt lat="44.7944" lon="5.64378">
        <ele>764</ele>
        <time>2017-08-08T21:20:06Z</time>
      </trkpt>
      <trkpt lat="44.79462" lon="5.64402">
        <ele>764</ele>
        <time>2017-08-08T21:20:10Z</time>
      </trkpt>
      <trkpt lat="44.79479" lon="5.64427">
        <ele>767</ele>
        <time>2017-08-08T21:20:18Z</time>
      </trkpt>
      <trkpt lat="44.79493" lon="5.64463">
        <ele>768</ele>
        <time>2017-08-08T21:20:28Z</time>
      </trkpt>
      <trkpt lat="44.79501" lon="5.64504">
        <ele>767</ele>
        <time>2017-08-08T21:20:33Z</time>
      </trkpt>
      <trkpt lat="44.79507" lon="5.64546">
        <ele>764</ele>
        <time>2017-08-08T21:20:44Z</time>
      </trkpt>
      <trkpt lat="44.79509" lon="5.6458">
        <ele>768</ele>
        <time>2017-08-08T21:20:50Z</time>
      </trkpt>
      <trkpt lat="44.79503" lon="5.6465">
        <ele>770</ele>
        <time>2017-08-08T21:20:55Z</time>
      </trkpt>
      <trkpt lat="44.7949" lon="5.64733">
        <ele>773</ele>
        <time>2017-08-08T21:21:10Z</time>
      </trkpt>
      <trkpt lat="44.79482" lon="5.64788">
        <ele>772</ele>
        <time>2017-08-08T21:21:21Z</time>
      </trkpt>
      <trkpt lat="44.79454" lon="5.64962">
        <ele>772</ele>
        <time>2017-08-08T21:21:40Z</time>
      </trkpt>
      <trkpt lat="44.79445" lon="5.6502">
        <ele>773</ele>
        <time>2017-08-08T21:21:52Z</time>
      </trkpt>
      <trkpt lat="44.79442" lon="5.65065">
        <ele>773</ele>
        <time>2017-08-08T21:21:55Z</time>
      </trkpt>
      <trkpt lat="44.79446" lon="5.6514">
        <ele>773</ele>
        <time>2017-08-08T21:21:57Z</time>
      </trkpt>
      <trkpt lat="44.79453" lon="5.65223">
        <ele>772</ele>
        <time>2017-08-08T21:22:02Z</time>
      </trkpt>
      <trkpt lat="44.79458" lon="5.65281">
        <ele>772</ele>
        <time>2017-08-08T21:22:06Z</time>
      </trkpt>
      <trkpt lat="44.79458" lon="5.65325">
        <ele>773</ele>
        <time>2017-08-08T21:22:20Z</time>
      </trkpt>
      <trkpt lat="44.79455" lon="5.65378">
        <ele>774</ele>
        <time>2017-08-08T21:22:34Z</time>
      </trkpt>
      <trkpt lat="44.79446" lon="5.65452">
        <ele>775</ele>
        <time>2017-08-08T21:22:45Z</time>
      </trkpt>
      <trkpt lat="44.79437" lon="5.65538">
        <ele>776</ele>
        <time>2017-08-08T21:22:55Z</time>
      </trkpt>
      <trkpt lat="44.79437" lon="5.65568">
        <ele>776</ele>
        <time>2017-08-08T21:23:14Z</time>
      </trkpt>
      <trkpt lat="44.79441" lon="5.65603">
        <ele>779</ele>
        <time>2017-08-08T21:23:25Z</time>
      </trkpt>
      <trkpt lat="44.79449" lon="5.65633">
        <ele>779</ele>
        <time>2017-08-08T21:23:32Z</time>
      </trkpt>
      <trkpt lat="44.79476" lon="5.65725">
        <ele>785</ele>
        <time>2017-08-08T21:23:48Z</time>
      </trkpt>
      <trkpt lat="44.79479" lon="5.65754">
        <ele>787</ele>
        <time>2017-08-08T21:24:04Z</time>
      </trkpt>
      <trkpt lat="44.79475" lon="5.65784">
        <ele>788</ele>
        <time>2017-08-08T21:24:17Z</time>
      </trkpt>
      <trkpt lat="44.79468" lon="5.65817">
        <ele>788</ele>
        <time>2017-08-08T21:24:28Z</time>
      </trkpt>
      <trkpt lat="44.79454" lon="5.65851">
        <ele>788</ele>
        <time>2017-08-08T21:24:35Z</time>
      </trkpt>
      <trkpt lat="44.79451" lon="5.65846">
        <ele>788</ele>
        <time>2017-08-08T21:24:38Z</time>
      </trkpt>
      <trkpt lat="44.79461" lon="5.65862">
        <ele>788</ele>
        <time>2017-08-08T21:24:52Z</time>
      </trkpt>
      <trkpt lat="44.79467" lon="5.6588">
        <ele>788</ele>
        <time>2017-08-08T21:25:04Z</time>
      </trkpt>
      <trkpt lat="44.7947" lon="5.65904">
        <ele>787</ele>
        <time>2017-08-08T21:25:11Z</time>
      </trkpt>
      <trkpt lat="44.79469" lon="5.65912">
        <ele>787</ele>
        <time>2017-08-08T21:25:28Z</time>
      </trkpt>
      <trkpt lat="44.79461" lon="5.65926">
        <ele>785</ele>
        <time>2017-08-08T21:25:35Z</time>
      </trkpt>
      <trkpt lat="44.79434" lon="5.65947">
        <ele>785</ele>
        <time>2017-08-08T21:25:38Z</time>
      </trkpt>
      <trkpt lat="44.79402" lon="5.65965">
        <ele>779</ele>
        <time>2017-08-08T21:25:57Z</time>
      </trkpt>
      <trkpt lat="44.79389" lon="5.65967">
        <ele>778</ele>
        <time>2017-08-08T21:26:01Z</time>
      </trkpt>
      <trkpt lat="44.79362" lon="5.65955">
        <ele>777</ele>
        <time>2017-08-08T21:26:15Z</time>
      </trkpt>
      <trkpt lat="44.79345" lon="5.65944">
        <ele>777</ele>
        <time>2017-08-08T21:26:22Z</time>
      </trkpt>
      <trkpt lat="44.7932" lon="5.65926">
        <ele>770</ele>
        <time>2017-08-08T21:26:35Z</time>
      </trkpt>
      <trkpt lat="44.793" lon="5.65904">
        <ele>773</ele>
        <time>2017-08-08T21:26:53Z</time>
      </trkpt>
      <trkpt lat="44.79279" lon="5.65871">
        <ele>771</ele>
        <time>2017-08-08T21:27:03Z</time>
      </trkpt>
      <trkpt lat="44.79228" lon="5.65779">
        <ele>766</ele>
        <time>2017-08-08T21:27:10Z</time>
      </trkpt>
      <trkpt lat="44.79169" lon="5.65668">
        <ele>764</ele>
        <time>2017-08-08T21:27:25Z</time>
      </trkpt>
      <trkpt lat="44.79161" lon="5.65635">
        <ele>761</ele>
        <time>2017-08-08T21:27:31Z</time>
      </trkpt>
      <trkpt lat="44.79157" lon="5.65601">
        <ele>764</ele>
        <time>2017-08-08T21:27:37Z</time>
      </trkpt>
      <trkpt lat="44.7914" lon="5.65521">
        <ele>767</ele>
        <time>2017-08-08T21:27:56Z</time>
      </trkpt>
      <trkpt lat="44.79128" lon="5.65468">
        <ele>770</ele>
        <time>2017-08-08T21:27:58Z</time>
      </trkpt>
      <trkpt lat="44.79122" lon="5.65459">
        <ele>770</ele>
        <time>2017-08-08T21:28:17Z</time>
      </trkpt>
      <trkpt lat="44.79114" lon="5.65455">
        <ele>769</ele>
        <time>2017-08-08T21:28:20Z</time>
      </trkpt>
      <trkpt lat="44.79108" lon="5.65456">
        <ele>768</ele>
        <time>2017-08-08T21:28:34Z</time>
      </trkpt>
      <trkpt lat="44.791" lon="5.65461">
        <ele>767</ele>
        <time>2017-08-08T21:28:41Z</time>
      </trkpt>
      <trkpt lat="44.79092" lon="5.65475">
        <ele>766</ele>
        <time>2017-08-08T21:28:48Z</time>
      </trkpt>
      <trkpt lat="44.79089" lon="5.65495">
        <ele>761</ele>
        <time>2017-08-08T21:29:05Z</time>
      </trkpt>
      <trkpt lat="44.79092" lon="5.65516">
        <ele>761</ele>
        <time>2017-08-08T21:29:19Z</time>
      </trkpt>
      <trkpt lat="44.79096" lon="5.65542">
        <ele>762</ele>
        <time>2017-08-08T21:29:39Z</time>
      </trkpt>
      <trkpt lat="44.79093" lon="5.65566">
        <ele>759</ele>
        <time>2017-08-08T21:29:55Z</time>
      </trkpt>
      <trkpt lat="44.79089" lon="5.65577">
        <ele>756</ele>
        <time>2017-08-08T21:30:04Z</time>
      </trkpt>
      <trkpt lat="44.7908" lon="5.65587">
        <ele>753</ele>
        <time>2017-08-08T21:30:24Z</time>
      </trkpt>
      <trkpt lat="44.79073" lon="5.65593">
        <ele>753</ele>
        <time>2017-08-08T21:30:28Z</time>
      </trkpt>
      <trkpt lat="44.79064" lon="5.65594">
        <ele>753</ele>
        <time>2017-08-08T21:30:43Z</time>
      </trkpt>
      <trkpt lat="44.79048" lon="5.6559">
        <ele>753</ele>
        <time>2017-08-08T21:30:50Z</time>
      </trkpt>
      <trkpt lat="44.7903" lon="5.6557">
        <ele>754</ele>
        <time>2017-08-08T21:31:00Z</time>
      </trkpt>
      <trkpt lat="44.79018" lon="5.65563">
        <ele>754</ele>
        <time>2017-08-08T21:31:11Z</time>
      </trkpt>
      <trkpt lat="44.79009" lon="5.65566">
        <ele>754</ele>
        <time>2017-08-08T21:31:19Z</time>
      </trkpt>
      <trkpt lat="44.78999" lon="5.65579">
        <ele>753</ele>
        <time>2017-08-08T21:31:24Z</time>
      </trkpt>
      <trkpt lat="44.78999" lon="5.65589">
        <ele>753</ele>
        <time>2017-08-08T21:31:28Z</time>
      </trkpt>
      <trkpt lat="44.79" lon="5.656">
        <ele>754</ele>
        <time>2017-08-08T21:31:33Z</time>
      </trkpt>
      <trkpt lat="44.79009" lon="5.65625">
        <ele>753</ele>
        <time>2017-08-08T21:31:39Z</time>
      </trkpt>
      <trkpt lat="44.79055" lon="5.65715">
        <ele>751</ele>
        <time>2017-08-08T21:31:59Z</time>
      </trkpt>
      <trkpt lat="44.79071" lon="5.65751">
        <ele>749</ele>
        <time>2017-08-08T21:32:04Z</time>
      </trkpt>
      <trkpt lat="44.79073" lon="5.6576">
        <ele>749</ele>
        <time>2017-08-08T21:32:17Z</time>
      </trkpt>
      <trkpt lat="44.7907" lon="5.65775">
        <ele>749</ele>
        <time>2017-08-08T21:32:33Z</time>
      </trkpt>
      <trkpt lat="44.79059" lon="5.65791">
        <ele>750</ele>
        <time>2017-08-08T21:32:53Z</time>
      </trkpt>
      <trkpt lat="44.79047" lon="5.65797">
        <ele>750</ele>
        <time>2017-08-08T21:33:07Z</time>
      </trkpt>
      <trkpt lat="44.79037" lon="5.65797">
        <ele>750</ele>
        <time>2017-08-08T21:33:16Z</time>
      </trkpt>
      <trkpt lat="44.79003" lon="5.65784">
        <ele>750</ele>
        <time>2017-08-08T21:33:35Z</time>
      </trkpt>
      <trkpt lat="44.78971" lon="5.65774">
        <ele>753</ele>
        <time>2017-08-08T21:33:42Z</time>
      </trkpt>
      <trkpt lat="44.78948" lon="5.65767">
        <ele>753</ele>
        <time>2017-08-08T21:33:50Z</time>
      </trkpt>
      <trkpt lat="44.78938" lon="5.65767">
        <ele>754</ele>
        <time>2017-08-08T21:33:55Z</time>
      </trkpt>
      <trkpt lat="44.78931" lon="5.65768">
        <ele>754</ele>
        <time>2017-08-08T21:34:15Z</time>
      </trkpt>
      <trkpt lat="44.78926" lon="5.65772">
        <ele>754</ele>
        <time>2017-08-08T21:34:24Z</time>
      </trkpt>
      <trkpt lat="44.78919" lon="5.65782">
        <ele>754</ele>
        <time>2017-08-08T21:34:32Z</time>
      </trkpt>
      <trkpt lat="44.78916" lon="5.65797">
        <ele>756</ele>
        <time>2017-08-08T21:34:48Z</time>
      </trkpt>
      <trkpt lat="44.78916" lon="5.65809">
        <ele>755</ele>
        <time>2017-08-08T21:35:04Z</time>
      </trkpt>
      <trkpt lat="44.7892" lon="5.65817">
        <ele>753</ele>
        <time>2017-08-08T21:35:23Z</time>
      </trkpt>
      <trkpt lat="44.78933" lon="5.65832">
        <ele>753</ele>
        <time>2017-08-08T21:35:41Z</time>
      </trkpt>
      <trkpt lat="44.78945" lon="5.65848">
        <ele>751</ele>
        <time>2017-08-08T21:35:43Z</time>
      </trkpt>
      <trkpt lat="44.78955" lon="5.65873">
        <ele>750</ele>
        <time>2017-08-08T21:35:46Z</time>
      </trkpt>
      <trkpt lat="44.78971" lon="5.65925">
        <ele>748</ele>
        <time>2017-08-08T21:35:53Z</time>
      </trkpt>
      <trkpt lat="44.78982" lon="5.65972">
        <ele>748</ele>
        <time>2017-08-08T21:36:08Z</time>
      </trkpt>
      <trkpt lat="44.78992" lon="5.66034">
        <ele>747</ele>
        <time>2017-08-08T21:36:23Z</time>
      </trkpt>
      <trkpt lat="44.79014" lon="5.66158">
        <ele>741</ele>
        <time>2017-08-08T21:36:43Z</time>
      </trkpt>
      <trkpt lat="44.79021" lon="5.66203">
        <ele>740</ele>
        <time>2017-08-08T21:36:56Z</time>
      </trkpt>
      <trkpt lat="44.79032" lon="5.66239">
        <ele>740</ele>
        <time>2017-08-08T21:37:08Z</time>
      </trkpt>
      <trkpt lat="44.79044" lon="5.66265">
        <ele>742</ele>
        <time>2017-08-08T21:37:17Z</time>
      </trkpt>
      <trkpt lat="44.79064" lon="5.66298">
        <ele>743</ele>
        <time>2017-08-08T21:37:28Z</time>
      </trkpt>
      <trkpt lat="44.79095" lon="5.6635">
        <ele>742</ele>
        <time>2017-08-08T21:37:33Z</time>
      </trkpt>
      <trkpt lat="44.79104" lon="5.6637">
        <ele>743</ele>
        <time>2017-08-08T21:37:52Z</time>
      </trkpt>
      <trkpt lat="44.79123" lon="5.66414">
        <ele>743</ele>
        <time>2017-08-08T21:38:09Z</time>
      </trkpt>
      <trkpt lat="44.79133" lon="5.66442">
        <ele>745</ele>
        <time>2017-08-08T21:38:13Z</time>
      </trkpt>
      <trkpt lat="44.79151" lon="5.66487">
        <ele>743</ele>
        <time>2017-08-08T21:38:23Z</time>
      </trkpt>
      <trkpt lat="44.79166" lon="5.66525">
        <ele>743</ele>
        <time>2017-08-08T21:38:32Z</time>
      </trkpt>
      <trkpt lat="44.7918" lon="5.66559">
        <ele>736</ele>
        <time>2017-08-08T21:38:46Z</time>
      </trkpt>
      <trkpt lat="44.79192" lon="5.66579">
        <ele>736</ele>
        <time>2017-08-08T21:39:06Z</time>
      </trkpt>
      <trkpt lat="44.79207" lon="5.66613">
        <ele>735</ele>
        <time>2017-08-08T21:39:11Z</time>
      </trkpt>
      <trkpt lat="44.79214" lon="5.66635">
        <ele>735</ele>
        <time>2017-08-08T21:39:27Z</time>
      </trkpt>
      <trkpt lat="44.79215" lon="5.66669">
        <ele>733</ele>
        <time>2017-08-08T21:39:36Z</time>
      </trkpt>
      <trkpt lat="44.79217" lon="5.66752">
        <ele>731</ele>
        <time>2017-08-08T21:39:48Z</time>
      </trkpt>
      <trkpt lat="44.79215" lon="5.66802">
        <ele>731</ele>
        <time>2017-08-08T21:39:50Z</time>
      </trkpt>
      <trkpt lat="44.79219" lon="5.66831">
        <ele>730</ele>
        <time>2017-08-08T21:40:07Z</time>
      </trkpt>
      <trkpt lat="44.79229" lon="5.66869">
        <ele>729</ele>
        <time>2017-08-08T21:40:17Z</time>
      </trkpt>
      <trkpt lat="44.79234" lon="5.6689">
        <ele>729</ele>
        <time>2017-08-08T21:40:24Z</time>
      </trkpt>
      <trkpt lat="44.79235" lon="5.66911">
        <ele>729</ele>
        <time>2017-08-08T21:40:43Z</time>
      </trkpt>
      <trkpt lat="44.79226" lon="5.67036">
        <ele>727</ele>
        <time>2017-08-08T21:40:46Z</time>
      </trkpt>
      <trkpt lat="44.79225" lon="5.6705">
        <ele>727</ele>
        <time>2017-08-08T21:40:57Z</time>
      </trkpt>
      <trkpt lat="44.79217" lon="5.67085">
        <ele>728</ele>
        <time>2017-08-08T21:41:11Z</time>
      </trkpt>
      <trkpt lat="44.79204" lon="5.67124">
        <ele>728</ele>
        <time>2017-08-08T21:41:29Z</time>
      </trkpt>
      <trkpt lat="44.79198" lon="5.6715">
        <ele>728</ele>
        <time>2017-08-08T21:41:32Z</time>
      </trkpt>
      <trkpt lat="44.79199" lon="5.67178">
        <ele>728</ele>
        <time>2017-08-08T21:41:36Z</time>
      </trkpt>
      <trkpt lat="44.79209" lon="5.67222">
        <ele>728</ele>
        <time>2017-08-08T21:41:43Z</time>
      </trkpt>
      <trkpt lat="44.79219" lon="5.67258">
        <ele>728</ele>
        <time>2017-08-08T21:41:49Z</time>
      </trkpt>
      <trkpt lat="44.79221" lon="5.67282">
        <ele>728</ele>
        <time>2017-08-08T21:42:00Z</time>
      </trkpt>
      <trkpt lat="44.79218" lon="5.67315">
        <ele>728</ele>
        <time>2017-08-08T21:42:17Z</time>
      </trkpt>
      <trkpt lat="44.79214" lon="5.67335">
        <ele>726</ele>
        <time>2017-08-08T21:42:35Z</time>
      </trkpt>
      <trkpt lat="44.79198" lon="5.67366">
        <ele>727</ele>
        <time>2017-08-08T21:42:52Z</time>
      </trkpt>
      <trkpt lat="44.79163" lon="5.6742">
        <ele>727</ele>
        <time>2017-08-08T21:42:58Z</time>
      </trkpt>
      <trkpt lat="44.7909" lon="5.67529">
        <ele>725</ele>
        <time>2017-08-08T21:43:00Z</time>
      </trkpt>
      <trkpt lat="44.79047" lon="5.67593">
        <ele>728</ele>
        <time>2017-08-08T21:43:15Z</time>
      </trkpt>
      <trkpt lat="44.79024" lon="5.67618">
        <ele>728</ele>
        <time>2017-08-08T21:43:29Z</time>
      </trkpt>
      <trkpt lat="44.78994" lon="5.67636">
        <ele>731</ele>
        <time>2017-08-08T21:43:49Z</time>
      </trkpt>
      <trkpt lat="44.78963" lon="5.67643">
        <ele>731</ele>
        <time>2017-08-08T21:43:58Z</time>
      </trkpt>
      <trkpt lat="44.78923" lon="5.67639">
        <ele>732</ele>
        <time>2017-08-08T21:44:02Z</time>
      </trkpt>
      <trkpt lat="44.78881" lon="5.67627">
        <ele>729</ele>
        <time>2017-08-08T21:44:14Z</time>
      </trkpt>
      <trkpt lat="44.7886" lon="5.67615">
        <ele>728</ele>
        <time>2017-08-08T21:44:22Z</time>
      </trkpt>
      <trkpt lat="44.78853" lon="5.67609">
        <ele>728</ele>
        <time>2017-08-08T21:44:35Z</time>
      </trkpt>
      <trkpt lat="44.78839" lon="5.67589">
        <ele>727</ele>
        <time>2017-08-08T21:44:41Z</time>
      </trkpt>
      <trkpt lat="44.78833" lon="5.67558">
        <ele>726</ele>
        <time>2017-08-08T21:45:01Z</time>
      </trkpt>
      <trkpt lat="44.78829" lon="5.67529">
        <ele>728</ele>
        <time>2017-08-08T21:45:04Z</time>
      </trkpt>
      <trkpt lat="44.7882" lon="5.67505">
        <ele>731</ele>
        <time>2017-08-08T21:45:20Z</time>
      </trkpt>
      <trkpt lat="44.78797" lon="5.67474">
        <ele>731</ele>
        <time>2017-08-08T21:45:33Z</time>
      </trkpt>
      <trkpt lat="44.78764" lon="5.67431">
        <ele>729</ele>
        <time>2017-08-08T21:45:45Z</time>
      </trkpt>
      <trkpt lat="44.78743" lon="5.67406">
        <ele>728</ele>
        <time>2017-08-08T21:46:05Z</time>
      </trkpt>
      <trkpt lat="44.78735" lon="5.67399">
        <ele>728</ele>
        <time>2017-08-08T21:46:22Z</time>
      </trkpt>
      <trkpt lat="44.78722" lon="5.67394">
        <ele>729</ele>
        <time>2017-08-08T21:46:27Z</time>
      </trkpt>
      <trkpt lat="44.78704" lon="5.67397">
        <ele>729</ele>
        <time>2017-08-08T21:46:39Z</time>
      </trkpt>
      <trkpt lat="44.78692" lon="5.67415">
        <ele>729</ele>
        <time>2017-08-08T21:46:47Z</time>
      </trkpt>
      <trkpt lat="44.78688" lon="5.6744">
        <ele>726</ele>
        <time>2017-08-08T21:46:50Z</time>
      </trkpt>
      <trkpt lat="44.78695" lon="5.67471">
        <ele>725</ele>
        <time>2017-08-08T21:46:56Z</time>
      </trkpt>
      <trkpt lat="44.7871" lon="5.6751">
        <ele>721</ele>
        <time>2017-08-08T21:47:08Z</time>
      </trkpt>
      <trkpt lat="44.78718" lon="5.67545">
        <ele>720</ele>
        <time>2017-08-08T21:47:28Z</time>
      </trkpt>
      <trkpt lat="44.78724" lon="5.67621">
        <ele>716</ele>
        <time>2017-08-08T21:47:33Z</time>
      </trkpt>
      <trkpt lat="44.78718" lon="5.67647">
        <ele>715</ele>
        <time>2017-08-08T21:47:43Z</time>
      </trkpt>
      <trkpt lat="44.78711" lon="5.67675">
        <ele>713</ele>
        <time>2017-08-08T21:48:01Z</time>
      </trkpt>
      <trkpt lat="44.78713" lon="5.67696">
        <ele>713</ele>
        <time>2017-08-08T21:48:04Z</time>
      </trkpt>
      <trkpt lat="44.78726" lon="5.67721">
        <ele>712</ele>
        <time>2017-08-08T21:48:13Z</time>
      </trkpt>
      <trkpt lat="44.78739" lon="5.67743">
        <ele>710</ele>
        <time>2017-08-08T21:48:22Z</time>
      </trkpt>
      <trkpt lat="44.7874" lon="5.67759">
        <ele>709</ele>
        <time>2017-08-08T21:48:41Z</time>
      </trkpt>
      <trkpt lat="44.78735" lon="5.67781">
        <ele>709</ele>
        <time>2017-08-08T21:48:52Z</time>
      </trkpt>
      <trkpt lat="44.78705" lon="5.67846">
        <ele>707</ele>
        <time>2017-08-08T21:49:12Z</time>
      </trkpt>
      <trkpt lat="44.787" lon="5.6788">
        <ele>707</ele>
        <time>2017-08-08T21:49:18Z</time>
      </trkpt>
      <trkpt lat="44.78698" lon="5.67904">
        <ele>707</ele>
        <time>2017-08-08T21:49:37Z</time>
      </trkpt>
      <trkpt lat="44.78697" lon="5.6792">
        <ele>702</ele>
        <time>2017-08-08T21:49:44Z</time>
      </trkpt>
      <trkpt lat="44.78688" lon="5.6794">
        <ele>702</ele>
        <time>2017-08-08T21:49:58Z</time>
      </trkpt>
      <trkpt lat="44.78679" lon="5.67952">
        <ele>701</ele>
        <time>2017-08-08T21:50:14Z</time>
      </trkpt>
      <trkpt lat="44.78658" lon="5.67969">
        <ele>707</ele>
        <time>2017-08-08T21:50:25Z</time>
      </trkpt>
      <trkpt lat="44.78615" lon="5.68">
        <ele>708</ele>
        <time>2017-08-08T21:50:41Z</time>
      </trkpt>
      <trkpt lat="44.78558" lon="5.68035">
        <ele>700</ele>
        <time>2017-08-08T21:50:45Z</time>
      </trkpt>
      <trkpt lat="44.78544" lon="5.68043">
        <ele>700</ele>
        <time>2017-08-08T21:50:59Z</time>
      </trkpt>
      <trkpt lat="44.78531" lon="5.68042">
        <ele>701</ele>
        <time>2017-08-08T21:51:07Z</time>
      </trkpt>
      <trkpt lat="44.78497" lon="5.68022">
        <ele>708</ele>
        <time>2017-08-08T21:51:20Z</time>
      </trkpt>
      <trkpt lat="44.78476" lon="5.68022">
        <ele>707</ele>
        <time>2017-08-08T21:51:29Z</time>
      </trkpt>
      <trkpt lat="44.78464" lon="5.68026">
        <ele>706</ele>
        <time>2017-08-08T21:51:46Z</time>
      </trkpt>
      <trkpt lat="44.78454" lon="5.68003">
        <ele>707</ele>
        <time>2017-08-08T21:52:03Z</time>
      </trkpt>
      <trkpt lat="44.78446" lon="5.67998">
        <ele>715</ele>
        <time>2017-08-08T21:52:14Z</time>
      </trkpt>
      <trkpt lat="44.78438" lon="5.67998">
        <ele>714</ele>
        <time>2017-08-08T21:52:26Z</time>
      </trkpt>
      <trkpt lat="44.78417" lon="5.68008">
        <ele>709</ele>
        <time>2017-08-08T21:52:34Z</time>
      </trkpt>
      <trkpt lat="44.78409" lon="5.6801">
        <ele>709</ele>
        <time>2017-08-08T21:52:50Z</time>
      </trkpt>
      <trkpt lat="44.78375" lon="5.6801">
        <ele>707</ele>
        <time>2017-08-08T21:52:59Z</time>
      </trkpt>
      <trkpt lat="44.78358" lon="5.68009">
        <ele>707</ele>
        <time>2017-08-08T21:53:12Z</time>
      </trkpt>
      <trkpt lat="44.78347" lon="5.68005">
        <ele>707</ele>
        <time>2017-08-08T21:53:15Z</time>
      </trkpt>
      <trkpt lat="44.78325" lon="5.6799">
        <ele>711</ele>
        <time>2017-08-08T21:53:34Z</time>
      </trkpt>
      <trkpt lat="44.78267" lon="5.67936">
        <ele>715</ele>
        <time>2017-08-08T21:53:52Z</time>
      </trkpt>
      <trkpt lat="44.78187" lon="5.67849">
        <ele>719</ele>
        <time>2017-08-08T21:54:09Z</time>
      </trkpt>
      <trkpt lat="44.7815" lon="5.67811">
        <ele>721</ele>
        <time>2017-08-08T21:54:16Z</time>
      </trkpt>
      <trkpt lat="44.78109" lon="5.67768">
        <ele>722</ele>
        <time>2017-08-08T21:54:36Z</time>
      </trkpt>
      <trkpt lat="44.78097" lon="5.67747">
        <ele>725</ele>
        <time>2017-08-08T21:54:48Z</time>
      </trkpt>
      <trkpt lat="44.78092" lon="5.67726">
        <ele>727</ele>
        <time>2017-08-08T21:54:50Z</time>
      </trkpt>
      <trkpt lat="44.78078" lon="5.67641">
        <ele>728</ele>
        <time>2017-08-08T21:55:04Z</time>
      </trkpt>
      <trkpt lat="44.78061" lon="5.67519">
        <ele>732</ele>
        <time>2017-08-08T21:55:19Z</time>
      </trkpt>
      <trkpt lat="44.78051" lon="5.6745">
        <ele>735</ele>
        <time>2017-08-08T21:55:23Z</time>
      </trkpt>
      <trkpt lat="44.78043" lon="5.674">
        <ele>740</ele>
        <time>2017-08-08T21:55:43Z</time>
      </trkpt>
      <trkpt lat="44.7803" lon="5.67356">
        <ele>741</ele>
        <time>2017-08-08T21:55:54Z</time>
      </trkpt>
      <trkpt lat="44.78021" lon="5.67333">
        <ele>747</ele>
        <time>2017-08-08T21:56:03Z</time>
      </trkpt>
      <trkpt lat="44.78002" lon="5.67283">
        <ele>752</ele>
        <time>2017-08-08T21:56:18Z</time>
      </trkpt>
      <trkpt lat="44.77985" lon="5.67258">
        <ele>747</ele>
        <time>2017-08-08T21:56:23Z</time>
      </trkpt>
      <trkpt lat="44.7796" lon="5.67232">
        <ele>756</ele>
        <time>2017-08-08T21:56:25Z</time>
      </trkpt>
      <trkpt lat="44.77934" lon="5.672">
        <ele>759</ele>
        <time>2017-08-08T21:56:45Z</time>
      </trkpt>
      <trkpt lat="44.779" lon="5.67165">
        <ele>765</ele>
        <time>2017-08-08T21:56:56Z</time>
      </trkpt>
      <trkpt lat="44.77879" lon="5.67146">
        <ele>763</ele>
        <time>2017-08-08T21:57:00Z</time>
      </trkpt>
      <trkpt lat="44.7787" lon="5.67128">
        <ele>764</ele>
        <time>2017-08-08T21:57:05Z</time>
      </trkpt>
      <trkpt lat="44.77862" lon="5.67089">
        <ele>767</ele>
        <time>2017-08-08T21:57:16Z</time>
      </trkpt>
      <trkpt lat="44.77858" lon="5.67078">
        <ele>775</ele>
        <time>2017-08-08T21:57:26Z</time>
      </trkpt>
      <trkpt lat="44.77853" lon="5.6707">
        <ele>775</ele>
        <time>2017-08-08T21:57:40Z</time>
      </trkpt>
      <trkpt lat="44.77834" lon="5.6706">
        <ele>774</ele>
        <time>2017-08-08T21:57:56Z</time>
      </trkpt>
      <trkpt lat="44.77824" lon="5.67057">
        <ele>764</ele>
        <time>2017-08-08T21:58:10Z</time>
      </trkpt>
      <trkpt lat="44.77815" lon="5.67051">
        <ele>764</ele>
        <time>2017-08-08T21:58:15Z</time>
      </trkpt>
      <trkpt lat="44.77804" lon="5.67036">
        <ele>764</ele>
        <time>2017-08-08T21:58:23Z</time>
      </trkpt>
      <trkpt lat="44.7779" lon="5.67014">
        <ele>765</ele>
        <time>2017-08-08T21:58:34Z</time>
      </trkpt>
      <trkpt lat="44.77774" lon="5.67">
        <ele>771</ele>
        <time>2017-08-08T21:58:46Z</time>
      </trkpt>
      <trkpt lat="44.77759" lon="5.66991">
        <ele>768</ele>
        <time>2017-08-08T21:59:03Z</time>
      </trkpt>
      <trkpt lat="44.77748" lon="5.66987">
        <ele>764</ele>
        <time>2017-08-08T21:59:06Z</time>
      </trkpt>
      <trkpt lat="44.77734" lon="5.66986">
        <ele>764</ele>
        <time>2017-08-08T21:59:26Z</time>
      </trkpt>
      <trkpt lat="44.77712" lon="5.66984">
        <ele>764</ele>
        <time>2017-08-08T21:59:32Z</time>
      </trkpt>
      <trkpt lat="44.77696" lon="5.66973">
        <ele>764</ele>
        <time>2017-08-08T21:59:49Z</time>
      </trkpt>
      <trkpt lat="44.77684" lon="5.6695">
        <ele>765</ele>
        <time>2017-08-08T21:59:58Z</time>
      </trkpt>
      <trkpt lat="44.77668" lon="5.66915">
        <ele>766</ele>
        <time>2017-08-08T22:00:00Z</time>
      </trkpt>
      <trkpt lat="44.77655" lon="5.66902">
        <ele>765</ele>
        <time>2017-08-08T22:00:04Z</time>
      </trkpt>
      <trkpt lat="44.77644" lon="5.66898">
        <ele>765</ele>
        <time>2017-08-08T22:00:19Z</time>
      </trkpt>
      <trkpt lat="44.77625" lon="5.66895">
        <ele>764</ele>
        <time>2017-08-08T22:00:29Z</time>
      </trkpt>
      <trkpt lat="44.77613" lon="5.66887">
        <ele>764</ele>
        <time>2017-08-08T22:00:32Z</time>
      </trkpt>
      <trkpt lat="44.7757" lon="5.6683">
        <ele>767</ele>
        <time>2017-08-08T22:00:43Z</time>
      </trkpt>
      <trkpt lat="44.77554" lon="5.66798">
        <ele>768</ele>
        <time>2017-08-08T22:00:55Z</time>
      </trkpt>
      <trkpt lat="44.77543" lon="5.6677">
        <ele>769</ele>
        <time>2017-08-08T22:01:01Z</time>
      </trkpt>
      <trkpt lat="44.77538" lon="5.66757">
        <ele>769</ele>
        <time>2017-08-08T22:01:18Z</time>
      </trkpt>
      <trkpt lat="44.77525" lon="5.66748">
        <ele>773</ele>
        <time>2017-08-08T22:01:37Z</time>
      </trkpt>
      <trkpt lat="44.77517" lon="5.66748">
        <ele>772</ele>
        <time>2017-08-08T22:01:50Z</time>
      </trkpt>
      <trkpt lat="44.77511" lon="5.66751">
        <ele>769</ele>
        <time>2017-08-08T22:01:56Z</time>
      </trkpt>
      <trkpt lat="44.775" lon="5.66764">
        <ele>768</ele>
        <time>2017-08-08T22:02:13Z</time>
      </trkpt>
      <trkpt lat="44.77486" lon="5.66786">
        <ele>766</ele>
        <time>2017-08-08T22:02:15Z</time>
      </trkpt>
      <trkpt lat="44.77473" lon="5.66792">
        <ele>766</ele>
        <time>2017-08-08T22:02:29Z</time>
      </trkpt>
      <trkpt lat="44.77458" lon="5.6679">
        <ele>766</ele>
        <time>2017-08-08T22:02:39Z</time>
      </trkpt>
      <trkpt lat="44.77422" lon="5.66775">
        <ele>767</ele>
        <time>2017-08-08T22:02:45Z</time>
      </trkpt>
      <trkpt lat="44.77383" lon="5.66764">
        <ele>769</ele>
        <time>2017-08-08T22:02:57Z</time>
      </trkpt>
      <trkpt lat="44.77333" lon="5.66753">
        <ele>772</ele>
        <time>2017-08-08T22:03:00Z</time>
      </trkpt>
      <trkpt lat="44.77316" lon="5.66752">
        <ele>773</ele>
        <time>2017-08-08T22:03:20Z</time>
      </trkpt>
      <trkpt lat="44.77308" lon="5.66755">
        <ele>774</ele>
        <time>2017-08-08T22:03:28Z</time>
      </trkpt>
      <trkpt lat="44.77304" lon="5.66761">
        <ele>774</ele>
        <time>2017-08-08T22:03:37Z</time>
      </trkpt>
      <trkpt lat="44.77296" lon="5.66781">
        <ele>774</ele>
        <time>2017-08-08T22:03:44Z</time>
      </trkpt>
      <trkpt lat="44.77295" lon="5.66792">
        <ele>774</ele>
        <time>2017-08-08T22:03:49Z</time>
      </trkpt>
      <trkpt lat="44.77299" lon="5.66806">
        <ele>774</ele>
        <time>2017-08-08T22:04:04Z</time>
      </trkpt>
      <trkpt lat="44.77334" lon="5.66871">
        <ele>770</ele>
        <time>2017-08-08T22:04:10Z</time>
      </trkpt>
      <trkpt lat="44.77338" lon="5.66882">
        <ele>770</ele>
        <time>2017-08-08T22:04:18Z</time>
      </trkpt>
      <trkpt lat="44.77338" lon="5.66896">
        <ele>771</ele>
        <time>2017-08-08T22:04:35Z</time>
      </trkpt>
      <trkpt lat="44.77339" lon="5.66905">
        <ele>772</ele>
        <time>2017-08-08T22:04:41Z</time>
      </trkpt>
      <trkpt lat="44.77336" lon="5.66914">
        <ele>774</ele>
        <time>2017-08-08T22:04:50Z</time>
      </trkpt>
      <trkpt lat="44.77332" lon="5.66921">
        <ele>776</ele>
        <time>2017-08-08T22:05:06Z</time>
      </trkpt>
      <trkpt lat="44.77327" lon="5.66925">
        <ele>776</ele>
        <time>2017-08-08T22:05:25Z</time>
      </trkpt>
      <trkpt lat="44.7732" lon="5.66927">
        <ele>777</ele>
        <time>2017-08-08T22:05:37Z</time>
      </trkpt>
      <trkpt lat="44.77303" lon="5.66925">
        <ele>778</ele>
        <time>2017-08-08T22:05:42Z</time>
      </trkpt>
      <trkpt lat="44.77236" lon="5.66903">
        <ele>781</ele>
        <time>2017-08-08T22:05:50Z</time>
      </trkpt>
      <trkpt lat="44.77118" lon="5.66866">
        <ele>786</ele>
        <time>2017-08-08T22:06:08Z</time>
      </trkpt>
      <trkpt lat="44.77093" lon="5.6686">
        <ele>787</ele>
        <time>2017-08-08T22:06:22Z</time>
      </trkpt>
      <trkpt lat="44.77019" lon="5.66847">
        <ele>791</ele>
        <time>2017-08-08T22:06:27Z</time>
      </trkpt>
      <trkpt lat="44.7698" lon="5.66838">
        <ele>793</ele>
        <time>2017-08-08T22:06:36Z</time>
      </trkpt>
      <trkpt lat="44.76971" lon="5.66834">
        <ele>794</ele>
        <time>2017-08-08T22:06:44Z</time>
      </trkpt>
      <trkpt lat="44.76953" lon="5.66817">
        <ele>795</ele>
        <time>2017-08-08T22:07:00Z</time>
      </trkpt>
      <trkpt lat="44.76919" lon="5.6678">
        <ele>797</ele>
        <time>2017-08-08T22:07:04Z</time>
      </trkpt>
      <trkpt lat="44.76841" lon="5.66697">
        <ele>804</ele>
        <time>2017-08-08T22:07:15Z</time>
      </trkpt>
      <trkpt lat="44.7677" lon="5.66626">
        <ele>808</ele>
        <time>2017-08-08T22:07:21Z</time>
      </trkpt>
      <trkpt lat="44.76726" lon="5.66581">
        <ele>814</ele>
        <time>2017-08-08T22:07:27Z</time>
      </trkpt>
      <trkpt lat="44.76701" lon="5.66549">
        <ele>816</ele>
        <time>2017-08-08T22:07:38Z</time>
      </trkpt>
      <trkpt lat="44.76685" lon="5.66522">
        <ele>817</ele>
        <time>2017-08-08T22:07:42Z</time>
      </trkpt>
      <trkpt lat="44.76674" lon="5.66511">
        <ele>818</ele>
        <time>2017-08-08T22:07:54Z</time>
      </trkpt>
      <trkpt lat="44.76602" lon="5.6645">
        <ele>826</ele>
        <time>2017-08-08T22:07:59Z</time>
      </trkpt>
      <trkpt lat="44.76561" lon="5.6642">
        <ele>832</ele>
        <time>2017-08-08T22:08:18Z</time>
      </trkpt>
      <trkpt lat="44.76547" lon="5.66413">
        <ele>834</ele>
        <time>2017-08-08T22:08:33Z</time>
      </trkpt>
      <trkpt lat="44.76535" lon="5.66412">
        <ele>835</ele>
        <time>2017-08-08T22:08:40Z</time>
      </trkpt>
      <trkpt lat="44.76514" lon="5.66419">
        <ele>835</ele>
        <time>2017-08-08T22:08:54Z</time>
      </trkpt>
      <trkpt lat="44.76488" lon="5.66432">
        <ele>837</ele>
        <time>2017-08-08T22:09:12Z</time>
      </trkpt>
      <trkpt lat="44.7648" lon="5.66435">
        <ele>838</ele>
        <time>2017-08-08T22:09:19Z</time>
      </trkpt>
      <trkpt lat="44.76462" lon="5.66442">
        <ele>838</ele>
        <time>2017-08-08T22:09:26Z</time>
      </trkpt>
      <trkpt lat="44.76448" lon="5.66435">
        <ele>839</ele>
        <time>2017-08-08T22:09:30Z</time>
      </trkpt>
      <trkpt lat="44.76434" lon="5.66427">
        <ele>840</ele>
        <time>2017-08-08T22:09:42Z</time>
      </trkpt>
      <trkpt lat="44.76431" lon="5.6643">
        <ele>840</ele>
        <time>2017-08-08T22:10:00Z</time>
      </trkpt>
      <trkpt lat="44.76425" lon="5.66435">
        <ele>840</ele>
        <time>2017-08-08T22:10:04Z</time>
      </trkpt>
      <trkpt lat="44.76411" lon="5.66447">
        <ele>843</ele>
        <time>2017-08-08T22:10:09Z</time>
      </trkpt>
      <trkpt lat="44.76396" lon="5.66467">
        <ele>842</ele>
        <time>2017-08-08T22:10:25Z</time>
      </trkpt>
      <trkpt lat="44.76375" lon="5.66502">
        <ele>839</ele>
        <time>2017-08-08T22:10:42Z</time>
      </trkpt>
      <trkpt lat="44.76354" lon="5.66548">
        <ele>839</ele>
        <time>2017-08-08T22:10:59Z</time>
      </trkpt>
      <trkpt lat="44.76338" lon="5.66579">
        <ele>839</ele>
        <time>2017-08-08T22:11:04Z</time>
      </trkpt>
      <trkpt lat="44.76326" lon="5.66594">
        <ele>839</ele>
        <time>2017-08-08T22:11:10Z</time>
      </trkpt>
      <trkpt lat="44.76279" lon="5.66627">
        <ele>840</ele>
        <time>2017-08-08T22:11:16Z</time>
      </trkpt>
      <trkpt lat="44.76269" lon="5.66638">
        <ele>841</ele>
        <time>2017-08-08T22:11:36Z</time>
      </trkpt>
      <trkpt lat="44.7625" lon="5.66666">
        <ele>842</ele>
        <time>2017-08-08T22:11:46Z</time>
      </trkpt>
      <trkpt lat="44.76208" lon="5.66729">
        <ele>850</ele>
        <time>2017-08-08T22:11:51Z</time>
      </trkpt>
      <trkpt lat="44.76196" lon="5.66763">
        <ele>852</ele>
        <time>2017-08-08T22:11:56Z</time>
      </trkpt>
      <trkpt lat="44.76192" lon="5.66783">
        <ele>852</ele>
        <time>2017-08-08T22:12:05Z</time>
      </trkpt>
      <trkpt lat="44.76191" lon="5.66801">
        <ele>853</ele>
        <time>2017-08-08T22:12:21Z</time>
      </trkpt>
      <trkpt lat="44.76202" lon="5.66839">
        <ele>854</ele>
        <time>2017-08-08T22:12:25Z</time>
      </trkpt>
      <trkpt lat="44.76209" lon="5.66855">
        <ele>853</ele>
        <time>2017-08-08T22:12:39Z</time>
      </trkpt>
      <trkpt lat="44.76212" lon="5.6687">
        <ele>853</ele>
        <time>2017-08-08T22:12:52Z</time>
      </trkpt>
      <trkpt lat="44.76211" lon="5.66901">
        <ele>853</ele>
        <time>2017-08-08T22:12:59Z</time>
      </trkpt>
      <trkpt lat="44.76213" lon="5.66922">
        <ele>855</ele>
        <time>2017-08-08T22:13:19Z</time>
      </trkpt>
      <trkpt lat="44.76224" lon="5.66945">
        <ele>854</ele>
        <time>2017-08-08T22:13:21Z</time>
      </trkpt>
      <trkpt lat="44.76233" lon="5.66957">
        <ele>854</ele>
        <time>2017-08-08T22:13:32Z</time>
      </trkpt>
      <trkpt lat="44.76239" lon="5.66975">
        <ele>855</ele>
        <time>2017-08-08T22:13:47Z</time>
      </trkpt>
      <trkpt lat="44.76247" lon="5.67019">
        <ele>856</ele>
        <time>2017-08-08T22:13:50Z</time>
      </trkpt>
      <trkpt lat="44.76245" lon="5.67039">
        <ele>858</ele>
        <time>2017-08-08T22:13:57Z</time>
      </trkpt>
      <trkpt lat="44.76242" lon="5.67045">
        <ele>858</ele>
        <time>2017-08-08T22:14:17Z</time>
      </trkpt>
      <trkpt lat="44.76233" lon="5.67052">
        <ele>858</ele>
        <time>2017-08-08T22:14:19Z</time>
      </trkpt>
      <trkpt lat="44.76194" lon="5.6705">
        <ele>859</ele>
        <time>2017-08-08T22:14:30Z</time>
      </trkpt>
      <trkpt lat="44.76164" lon="5.6705">
        <ele>857</ele>
        <time>2017-08-08T22:14:37Z</time>
      </trkpt>
      <trkpt lat="44.76136" lon="5.67039">
        <ele>857</ele>
        <time>2017-08-08T22:14:43Z</time>
      </trkpt>
      <trkpt lat="44.76121" lon="5.67027">
        <ele>856</ele>
        <time>2017-08-08T22:14:57Z</time>
      </trkpt>
      <trkpt lat="44.76107" lon="5.67008">
        <ele>857</ele>
        <time>2017-08-08T22:15:17Z</time>
      </trkpt>
      <trkpt lat="44.76085" lon="5.66982">
        <ele>861</ele>
        <time>2017-08-08T22:15:31Z</time>
      </trkpt>
      <trkpt lat="44.76061" lon="5.66969">
        <ele>860</ele>
        <time>2017-08-08T22:15:44Z</time>
      </trkpt>
      <trkpt lat="44.76043" lon="5.66964">
        <ele>860</ele>
        <time>2017-08-08T22:15:53Z</time>
      </trkpt>
      <trkpt lat="44.76024" lon="5.66963">
        <ele>859</ele>
        <time>2017-08-08T22:16:08Z</time>
      </trkpt>
      <trkpt lat="44.7601" lon="5.66964">
        <ele>858</ele>
        <time>2017-08-08T22:16:25Z</time>
      </trkpt>
      <trkpt lat="44.75994" lon="5.66969">
        <ele>857</ele>
        <time>2017-08-08T22:16:33Z</time>
      </trkpt>
      <trkpt lat="44.75981" lon="5.66977">
        <ele>857</ele>
        <time>2017-08-08T22:16:49Z</time>
      </trkpt>
      <trkpt lat="44.75975" lon="5.66984">
        <ele>857</ele>
        <time>2017-08-08T22:16:56Z</time>
      </trkpt>
      <trkpt lat="44.75971" lon="5.66993">
        <ele>857</ele>
        <time>2017-08-08T22:17:03Z</time>
      </trkpt>
      <trkpt lat="44.75964" lon="5.67025">
        <ele>855</ele>
        <time>2017-08-08T22:17:05Z</time>
      </trkpt>
      <trkpt lat="44.75951" lon="5.67104">
        <ele>854</ele>
        <time>2017-08-08T22:17:21Z</time>
      </trkpt>
      <trkpt lat="44.75947" lon="5.67142">
        <ele>854</ele>
        <time>2017-08-08T22:17:37Z</time>
      </trkpt>
      <trkpt lat="44.75947" lon="5.67178">
        <ele>853</ele>
        <time>2017-08-08T22:17:52Z</time>
      </trkpt>
      <trkpt lat="44.75947" lon="5.67254">
        <ele>849</ele>
        <time>2017-08-08T22:18:06Z</time>
      </trkpt>
      <trkpt lat="44.75942" lon="5.6731">
        <ele>848</ele>
        <time>2017-08-08T22:18:08Z</time>
      </trkpt>
      <trkpt lat="44.75934" lon="5.6738">
        <ele>845</ele>
        <time>2017-08-08T22:18:13Z</time>
      </trkpt>
      <trkpt lat="44.75937" lon="5.67438">
        <ele>842</ele>
        <time>2017-08-08T22:18:15Z</time>
      </trkpt>
      <trkpt lat="44.7595" lon="5.67506">
        <ele>837</ele>
        <time>2017-08-08T22:18:26Z</time>
      </trkpt>
      <trkpt lat="44.75955" lon="5.67545">
        <ele>836</ele>
        <time>2017-08-08T22:18:38Z</time>
      </trkpt>
      <trkpt lat="44.75951" lon="5.67567">
        <ele>836</ele>
        <time>2017-08-08T22:18:40Z</time>
      </trkpt>
      <trkpt lat="44.75947" lon="5.67576">
        <ele>837</ele>
        <time>2017-08-08T22:18:58Z</time>
      </trkpt>
      <trkpt lat="44.75934" lon="5.67585">
        <ele>837</ele>
        <time>2017-08-08T22:19:03Z</time>
      </trkpt>
      <trkpt lat="44.75914" lon="5.67598">
        <ele>841</ele>
        <time>2017-08-08T22:19:18Z</time>
      </trkpt>
      <trkpt lat="44.7589" lon="5.6761">
        <ele>841</ele>
        <time>2017-08-08T22:19:36Z</time>
      </trkpt>
      <trkpt lat="44.75836" lon="5.6762">
        <ele>841</ele>
        <time>2017-08-08T22:19:54Z</time>
      </trkpt>
      <trkpt lat="44.75815" lon="5.67624">
        <ele>844</ele>
        <time>2017-08-08T22:20:13Z</time>
      </trkpt>
      <trkpt lat="44.75805" lon="5.67628">
        <ele>845</ele>
        <time>2017-08-08T22:20:25Z</time>
      </trkpt>
      <trkpt lat="44.75801" lon="5.67631">
        <ele>845</ele>
        <time>2017-08-08T22:20:38Z</time>
      </trkpt>
      <trkpt lat="44.75799" lon="5.67653">
        <ele>844</ele>
        <time>2017-08-08T22:20:48Z</time>
      </trkpt>
      <trkpt lat="44.75794" lon="5.67676">
        <ele>841</ele>
        <time>2017-08-08T22:20:55Z</time>
      </trkpt>
      <trkpt lat="44.75791" lon="5.67693">
        <ele>841</ele>
        <time>2017-08-08T22:21:10Z</time>
      </trkpt>
      <trkpt lat="44.75788" lon="5.67713">
        <ele>840</ele>
        <time>2017-08-08T22:21:13Z</time>
      </trkpt>
      <trkpt lat="44.75785" lon="5.67767">
        <ele>836</ele>
        <time>2017-08-08T22:21:22Z</time>
      </trkpt>
      <trkpt lat="44.75785" lon="5.67811">
        <ele>835</ele>
        <time>2017-08-08T22:21:28Z</time>
      </trkpt>
      <trkpt lat="44.75783" lon="5.67831">
        <ele>835</ele>
        <time>2017-08-08T22:21:39Z</time>
      </trkpt>
      <trkpt lat="44.75779" lon="5.67845">
        <ele>832</ele>
        <time>2017-08-08T22:21:47Z</time>
      </trkpt>
      <trkpt lat="44.75761" lon="5.67884">
        <ele>831</ele>
        <time>2017-08-08T22:21:54Z</time>
      </trkpt>
      <trkpt lat="44.75744" lon="5.67921">
        <ele>831</ele>
        <time>2017-08-08T22:22:05Z</time>
      </trkpt>
      <trkpt lat="44.75709" lon="5.67996">
        <ele>829</ele>
        <time>2017-08-08T22:22:07Z</time>
      </trkpt>
      <trkpt lat="44.75687" lon="5.68029">
        <ele>823</ele>
        <time>2017-08-08T22:22:16Z</time>
      </trkpt>
      <trkpt lat="44.75679" lon="5.68034">
        <ele>823</ele>
        <time>2017-08-08T22:22:27Z</time>
      </trkpt>
      <trkpt lat="44.75653" lon="5.68041">
        <ele>819</ele>
        <time>2017-08-08T22:22:47Z</time>
      </trkpt>
      <trkpt lat="44.75618" lon="5.68033">
        <ele>819</ele>
        <time>2017-08-08T22:22:57Z</time>
      </trkpt>
      <trkpt lat="44.75581" lon="5.68022">
        <ele>817</ele>
        <time>2017-08-08T22:23:00Z</time>
      </trkpt>
      <trkpt lat="44.7556" lon="5.68021">
        <ele>816</ele>
        <time>2017-08-08T22:23:11Z</time>
      </trkpt>
      <trkpt lat="44.75544" lon="5.68025">
        <ele>815</ele>
        <time>2017-08-08T22:23:17Z</time>
      </trkpt>
      <trkpt lat="44.75514" lon="5.68033">
        <ele>815</ele>
        <time>2017-08-08T22:23:20Z</time>
      </trkpt>
      <trkpt lat="44.75506" lon="5.68032">
        <ele>815</ele>
        <time>2017-08-08T22:23:38Z</time>
      </trkpt>
      <trkpt lat="44.75492" lon="5.68026">
        <ele>815</ele>
        <time>2017-08-08T22:23:43Z</time>
      </trkpt>
      <trkpt lat="44.7546" lon="5.68003">
        <ele>815</ele>
        <time>2017-08-08T22:23:50Z</time>
      </trkpt>
      <trkpt lat="44.75443" lon="5.67993">
        <ele>822</ele>
        <time>2017-08-08T22:24:09Z</time>
      </trkpt>
      <trkpt lat="44.75427" lon="5.67991">
        <ele>820</ele>
        <time>2017-08-08T22:24:22Z</time>
      </trkpt>
      <trkpt lat="44.75414" lon="5.67997">
        <ele>817</ele>
        <time>2017-08-08T22:24:30Z</time>
      </trkpt>
      <trkpt lat="44.75406" lon="5.68007">
        <ele>815</ele>
        <time>2017-08-08T22:24:44Z</time>
      </trkpt>
      <trkpt lat="44.75401" lon="5.68016">
        <ele>815</ele>
        <time>2017-08-08T22:24:59Z</time>
      </trkpt>
      <trkpt lat="44.75399" lon="5.68023">
        <ele>815</ele>
        <time>2017-08-08T22:25:14Z</time>
      </trkpt>
      <trkpt lat="44.75399" lon="5.68045">
        <ele>815</ele>
        <time>2017-08-08T22:25:25Z</time>
      </trkpt>
      <trkpt lat="44.75402" lon="5.68057">
        <ele>814</ele>
        <time>2017-08-08T22:25:30Z</time>
      </trkpt>
      <trkpt lat="44.75416" lon="5.6808">
        <ele>812</ele>
        <time>2017-08-08T22:25:32Z</time>
      </trkpt>
      <trkpt lat="44.75462" lon="5.68129">
        <ele>817</ele>
        <time>2017-08-08T22:25:39Z</time>
      </trkpt>
      <trkpt lat="44.75493" lon="5.68157">
        <ele>817</ele>
        <time>2017-08-08T22:25:56Z</time>
      </trkpt>
      <trkpt lat="44.75509" lon="5.68168">
        <ele>818</ele>
        <time>2017-08-08T22:26:16Z</time>
      </trkpt>
      <trkpt lat="44.75549" lon="5.68189">
        <ele>819</ele>
        <time>2017-08-08T22:26:20Z</time>
      </trkpt>
      <trkpt lat="44.75591" lon="5.68215">
        <ele>813</ele>
        <time>2017-08-08T22:26:36Z</time>
      </trkpt>
      <trkpt lat="44.75638" lon="5.6824">
        <ele>811</ele>
        <time>2017-08-08T22:26:41Z</time>
      </trkpt>
      <trkpt lat="44.75663" lon="5.68259">
        <ele>815</ele>
        <time>2017-08-08T22:26:56Z</time>
      </trkpt>
      <trkpt lat="44.75677" lon="5.68276">
        <ele>810</ele>
        <time>2017-08-08T22:27:08Z</time>
      </trkpt>
      <trkpt lat="44.75697" lon="5.68326">
        <ele>814</ele>
        <time>2017-08-08T22:27:12Z</time>
      </trkpt>
      <trkpt lat="44.75716" lon="5.68356">
        <ele>823</ele>
        <time>2017-08-08T22:27:28Z</time>
      </trkpt>
      <trkpt lat="44.75727" lon="5.6837">
        <ele>823</ele>
        <time>2017-08-08T22:27:37Z</time>
      </trkpt>
      <trkpt lat="44.75753" lon="5.68386">
        <ele>812</ele>
        <time>2017-08-08T22:27:56Z</time>
      </trkpt>
      <trkpt lat="44.75783" lon="5.68397">
        <ele>811</ele>
        <time>2017-08-08T22:28:07Z</time>
      </trkpt>
      <trkpt lat="44.7581" lon="5.68411">
        <ele>808</ele>
        <time>2017-08-08T22:28:15Z</time>
      </trkpt>
      <trkpt lat="44.75826" lon="5.68425">
        <ele>814</ele>
        <time>2017-08-08T22:28:21Z</time>
      </trkpt>
      <trkpt lat="44.75846" lon="5.68451">
        <ele>805</ele>
        <time>2017-08-08T22:28:23Z</time>
      </trkpt>
      <trkpt lat="44.7586" lon="5.68472">
        <ele>806</ele>
        <time>2017-08-08T22:28:36Z</time>
      </trkpt>
      <trkpt lat="44.7587" lon="5.68496">
        <ele>806</ele>
        <time>2017-08-08T22:28:40Z</time>
      </trkpt>
      <trkpt lat="44.75898" lon="5.68563">
        <ele>811</ele>
        <time>2017-08-08T22:28:52Z</time>
      </trkpt>
      <trkpt lat="44.75909" lon="5.68591">
        <ele>811</ele>
        <time>2017-08-08T22:28:55Z</time>
      </trkpt>
      <trkpt lat="44.75915" lon="5.68617">
        <ele>815</ele>
        <time>2017-08-08T22:29:13Z</time>
      </trkpt>
      <trkpt lat="44.75918" lon="5.68663">
        <ele>808</ele>
        <time>2017-08-08T22:29:28Z</time>
      </trkpt>
      <trkpt lat="44.75916" lon="5.68736">
        <ele>818</ele>
        <time>2017-08-08T22:29:42Z</time>
      </trkpt>
      <trkpt lat="44.7592" lon="5.68781">
        <ele>810</ele>
        <time>2017-08-08T22:30:02Z</time>
      </trkpt>
      <trkpt lat="44.75935" lon="5.68836">
        <ele>810</ele>
        <time>2017-08-08T22:30:10Z</time>
      </trkpt>
      <trkpt lat="44.75945" lon="5.6888">
        <ele>809</ele>
        <time>2017-08-08T22:30:16Z</time>
      </trkpt>
      <trkpt lat="44.75949" lon="5.68913">
        <ele>809</ele>
        <time>2017-08-08T22:30:22Z</time>
      </trkpt>
      <trkpt lat="44.75959" lon="5.68957">
        <ele>809</ele>
        <time>2017-08-08T22:30:28Z</time>
      </trkpt>
      <trkpt lat="44.7599" lon="5.69055">
        <ele>810</ele>
        <time>2017-08-08T22:30:42Z</time>
      </trkpt>
      <trkpt lat="44.76007" lon="5.691">
        <ele>806</ele>
        <time>2017-08-08T22:30:55Z</time>
      </trkpt>
      <trkpt lat="44.76019" lon="5.69123">
        <ele>807</ele>
        <time>2017-08-08T22:31:10Z</time>
      </trkpt>
      <trkpt lat="44.76033" lon="5.69142">
        <ele>807</ele>
        <time>2017-08-08T22:31:22Z</time>
      </trkpt>
      <trkpt lat="44.76046" lon="5.69156">
        <ele>806</ele>
        <time>2017-08-08T22:31:34Z</time>
      </trkpt>
      <trkpt lat="44.76063" lon="5.69174">
        <ele>809</ele>
        <time>2017-08-08T22:31:37Z</time>
      </trkpt>
      <trkpt lat="44.7608" lon="5.69199">
        <ele>810</ele>
        <time>2017-08-08T22:31:42Z</time>
      </trkpt>
      <trkpt lat="44.76094" lon="5.69224">
        <ele>805</ele>
        <time>2017-08-08T22:31:47Z</time>
      </trkpt>
      <trkpt lat="44.76102" lon="5.69243">
        <ele>806</ele>
        <time>2017-08-08T22:31:56Z</time>
      </trkpt>
      <trkpt lat="44.76149" lon="5.6939">
        <ele>812</ele>
        <time>2017-08-08T22:32:09Z</time>
      </trkpt>
      <trkpt lat="44.76161" lon="5.69415">
        <ele>810</ele>
        <time>2017-08-08T22:32:24Z</time>
      </trkpt>
      <trkpt lat="44.76175" lon="5.69436">
        <ele>808</ele>
        <time>2017-08-08T22:32:29Z</time>
      </trkpt>
      <trkpt lat="44.76195" lon="5.69459">
        <ele>807</ele>
        <time>2017-08-08T22:32:45Z</time>
      </trkpt>
      <trkpt lat="44.76246" lon="5.69513">
        <ele>810</ele>
        <time>2017-08-08T22:32:53Z</time>
      </trkpt>
      <trkpt lat="44.76292" lon="5.6956">
        <ele>807</ele>
        <time>2017-08-08T22:32:57Z</time>
      </trkpt>
      <trkpt lat="44.76341" lon="5.696">
        <ele>805</ele>
        <time>2017-08-08T22:33:11Z</time>
      </trkpt>
      <trkpt lat="44.76361" lon="5.69622">
        <ele>805</ele>
        <time>2017-08-08T22:33:13Z</time>
      </trkpt>
      <trkpt lat="44.76373" lon="5.6964">
        <ele>806</ele>
        <time>2017-08-08T22:33:33Z</time>
      </trkpt>
      <trkpt lat="44.76391" lon="5.69674">
        <ele>809</ele>
        <time>2017-08-08T22:33:43Z</time>
      </trkpt>
      <trkpt lat="44.76413" lon="5.69712">
        <ele>810</ele>
        <time>2017-08-08T22:34:03Z</time>
      </trkpt>
      <trkpt lat="44.76434" lon="5.69738">
        <ele>805</ele>
        <time>2017-08-08T22:34:21Z</time>
      </trkpt>
      <trkpt lat="44.76457" lon="5.69759">
        <ele>806</ele>
        <time>2017-08-08T22:34:30Z</time>
      </trkpt>
      <trkpt lat="44.76476" lon="5.69772">
        <ele>805</ele>
        <time>2017-08-08T22:34:35Z</time>
      </trkpt>
      <trkpt lat="44.76503" lon="5.69783">
        <ele>801</ele>
        <time>2017-08-08T22:34:49Z</time>
      </trkpt>
      <trkpt lat="44.76531" lon="5.69789">
        <ele>800</ele>
        <time>2017-08-08T22:35:04Z</time>
      </trkpt>
      <trkpt lat="44.76557" lon="5.69788">
        <ele>799</ele>
        <time>2017-08-08T22:35:18Z</time>
      </trkpt>
      <trkpt lat="44.76617" lon="5.69777">
        <ele>796</ele>
        <time>2017-08-08T22:35:26Z</time>
      </trkpt>
      <trkpt lat="44.76651" lon="5.69777">
        <ele>795</ele>
        <time>2017-08-08T22:35:45Z</time>
      </trkpt>
      <trkpt lat="44.76717" lon="5.69779">
        <ele>795</ele>
        <time>2017-08-08T22:35:55Z</time>
      </trkpt>
      <trkpt lat="44.76789" lon="5.6978">
        <ele>794</ele>
        <time>2017-08-08T22:36:01Z</time>
      </trkpt>
      <trkpt lat="44.76806" lon="5.69782">
        <ele>794</ele>
        <time>2017-08-08T22:36:12Z</time>
      </trkpt>
      <trkpt lat="44.76873" lon="5.69816">
        <ele>793</ele>
        <time>2017-08-08T22:36:24Z</time>
      </trkpt>
      <trkpt lat="44.76925" lon="5.69843">
        <ele>792</ele>
        <time>2017-08-08T22:36:27Z</time>
      </trkpt>
      <trkpt lat="44.76953" lon="5.69863">
        <ele>791</ele>
        <time>2017-08-08T22:36:41Z</time>
      </trkpt>
      <trkpt lat="44.76969" lon="5.6988">
        <ele>790</ele>
        <time>2017-08-08T22:36:57Z</time>
      </trkpt>
      <trkpt lat="44.76979" lon="5.69903">
        <ele>789</ele>
        <time>2017-08-08T22:36:59Z</time>
      </trkpt>
      <trkpt lat="44.76985" lon="5.69941">
        <ele>790</ele>
        <time>2017-08-08T22:37:13Z</time>
      </trkpt>
      <trkpt lat="44.76988" lon="5.69996">
        <ele>789</ele>
        <time>2017-08-08T22:37:30Z</time>
      </trkpt>
      <trkpt lat="44.76989" lon="5.70048">
        <ele>790</ele>
        <time>2017-08-08T22:37:49Z</time>
      </trkpt>
      <trkpt lat="44.76992" lon="5.70083">
        <ele>788</ele>
        <time>2017-08-08T22:37:59Z</time>
      </trkpt>
      <trkpt lat="44.77022" lon="5.70271">
        <ele>789</ele>
        <time>2017-08-08T22:38:01Z</time>
      </trkpt>
      <trkpt lat="44.77026" lon="5.70309">
        <ele>789</ele>
        <time>2017-08-08T22:38:11Z</time>
      </trkpt>
      <trkpt lat="44.77028" lon="5.70349">
        <ele>788</ele>
        <time>2017-08-08T22:38:28Z</time>
      </trkpt>
      <trkpt lat="44.77024" lon="5.70392">
        <ele>788</ele>
        <time>2017-08-08T22:38:38Z</time>
      </trkpt>
      <trkpt lat="44.77019" lon="5.70434">
        <ele>787</ele>
        <time>2017-08-08T22:38:50Z</time>
      </trkpt>
      <trkpt lat="44.77017" lon="5.70452">
        <ele>785</ele>
        <time>2017-08-08T22:39:08Z</time>
      </trkpt>
      <trkpt lat="44.77017" lon="5.70468">
        <ele>785</ele>
        <time>2017-08-08T22:39:16Z</time>
      </trkpt>
      <trkpt lat="44.77012" lon="5.70477">
        <ele>785</ele>
        <time>2017-08-08T22:39:22Z</time>
      </trkpt>
      <trkpt lat="44.77004" lon="5.70498">
        <ele>786</ele>
        <time>2017-08-08T22:39:39Z</time>
      </trkpt>
      <trkpt lat="44.76988" lon="5.7055">
        <ele>790</ele>
        <time>2017-08-08T22:39:50Z</time>
      </trkpt>
      <trkpt lat="44.76948" lon="5.7067">
        <ele>788</ele>
        <time>2017-08-08T22:40:10Z</time>
      </trkpt>
      <trkpt lat="44.7692" lon="5.70757">
        <ele>786</ele>
        <time>2017-08-08T22:40:17Z</time>
      </trkpt>
      <trkpt lat="44.76905" lon="5.70811">
        <ele>792</ele>
        <time>2017-08-08T22:40:23Z</time>
      </trkpt>
      <trkpt lat="44.76896" lon="5.7086">
        <ele>790</ele>
        <time>2017-08-08T22:40:28Z</time>
      </trkpt>
      <trkpt lat="44.7687" lon="5.71061">
        <ele>788</ele>
        <time>2017-08-08T22:40:37Z</time>
      </trkpt>
      <trkpt lat="44.7686" lon="5.71106">
        <ele>788</ele>
        <time>2017-08-08T22:40:39Z</time>
      </trkpt>
      <trkpt lat="44.76843" lon="5.71152">
        <ele>789</ele>
        <time>2017-08-08T22:40:47Z</time>
      </trkpt>
      <trkpt lat="44.76766" lon="5.71314">
        <ele>791</ele>
        <time>2017-08-08T22:41:06Z</time>
      </trkpt>
      <trkpt lat="44.76735" lon="5.71381">
        <ele>799</ele>
        <time>2017-08-08T22:41:18Z</time>
      </trkpt>
      <trkpt lat="44.76724" lon="5.71406">
        <ele>798</ele>
        <time>2017-08-08T22:41:22Z</time>
      </trkpt>
      <trkpt lat="44.76715" lon="5.71438">
        <ele>795</ele>
        <time>2017-08-08T22:41:31Z</time>
      </trkpt>
      <trkpt lat="44.76694" lon="5.71521">
        <ele>794</ele>
        <time>2017-08-08T22:41:45Z</time>
      </trkpt>
      <trkpt lat="44.76683" lon="5.71569">
        <ele>795</ele>
        <time>2017-08-08T22:41:51Z</time>
      </trkpt>
      <trkpt lat="44.76671" lon="5.71613">
        <ele>789</ele>
        <time>2017-08-08T22:42:05Z</time>
      </trkpt>
      <trkpt lat="44.76649" lon="5.71669">
        <ele>794</ele>
        <time>2017-08-08T22:42:11Z</time>
      </trkpt>
      <trkpt lat="44.76637" lon="5.71695">
        <ele>796</ele>
        <time>2017-08-08T22:42:16Z</time>
      </trkpt>
      <trkpt lat="44.76616" lon="5.71727">
        <ele>798</ele>
        <time>2017-08-08T22:42:36Z</time>
      </trkpt>
      <trkpt lat="44.76598" lon="5.71758">
        <ele>795</ele>
        <time>2017-08-08T22:42:56Z</time>
      </trkpt>
      <trkpt lat="44.76578" lon="5.71813">
        <ele>806</ele>
        <time>2017-08-08T22:43:06Z</time>
      </trkpt>
      <trkpt lat="44.76528" lon="5.71953">
        <ele>796</ele>
        <time>2017-08-08T22:43:17Z</time>
      </trkpt>
      <trkpt lat="44.76497" lon="5.72047">
        <ele>801</ele>
        <time>2017-08-08T22:43:32Z</time>
      </trkpt>
      <trkpt lat="44.76462" lon="5.72121">
        <ele>792</ele>
        <time>2017-08-08T22:43:43Z</time>
      </trkpt>
      <trkpt lat="44.76443" lon="5.72175">
        <ele>787</ele>
        <time>2017-08-08T22:43:54Z</time>
      </trkpt>
      <trkpt lat="44.76428" lon="5.72209">
        <ele>785</ele>
        <time>2017-08-08T22:44:07Z</time>
      </trkpt>
      <trkpt lat="44.76415" lon="5.72232">
        <ele>797</ele>
        <time>2017-08-08T22:44:15Z</time>
      </trkpt>
      <trkpt lat="44.76404" lon="5.72246">
        <ele>796</ele>
        <time>2017-08-08T22:44:35Z</time>
      </trkpt>
      <trkpt lat="44.76372" lon="5.72279">
        <ele>796</ele>
        <time>2017-08-08T22:44:44Z</time>
      </trkpt>
      <trkpt lat="44.76358" lon="5.72295">
        <ele>796</ele>
        <time>2017-08-08T22:45:03Z</time>
      </trkpt>
      <trkpt lat="44.76346" lon="5.72312">
        <ele>796</ele>
        <time>2017-08-08T22:45:05Z</time>
      </trkpt>
      <trkpt lat="44.76335" lon="5.7233">
        <ele>796</ele>
        <time>2017-08-08T22:45:25Z</time>
      </trkpt>
      <trkpt lat="44.76324" lon="5.72354">
        <ele>798</ele>
        <time>2017-08-08T22:45:45Z</time>
      </trkpt>
      <trkpt lat="44.76294" lon="5.72427">
        <ele>786</ele>
        <time>2017-08-08T22:45:59Z</time>
      </trkpt>
      <trkpt lat="44.76281" lon="5.72454">
        <ele>785</ele>
        <time>2017-08-08T22:46:08Z</time>
      </trkpt>
      <trkpt lat="44.76281" lon="5.72461">
        <ele>785</ele>
        <time>2017-08-08T22:46:14Z</time>
      </trkpt>
      <trkpt lat="44.76281" lon="5.72468">
        <ele>784</ele>
        <time>2017-08-08T22:46:33Z</time>
      </trkpt>
      <trkpt lat="44.76275" lon="5.72476">
        <ele>784</ele>
        <time>2017-08-08T22:46:35Z</time>
      </trkpt>
      <trkpt lat="44.76252" lon="5.72508">
        <ele>782</ele>
        <time>2017-08-08T22:46:41Z</time>
      </trkpt>
      <trkpt lat="44.76204" lon="5.72569">
        <ele>787</ele>
        <time>2017-08-08T22:46:54Z</time>
      </trkpt>
      <trkpt lat="44.75962" lon="5.72885">
        <ele>805</ele>
        <time>2017-08-08T22:47:03Z</time>
      </trkpt>
      <trkpt lat="44.75925" lon="5.72937">
        <ele>798</ele>
        <time>2017-08-08T22:47:09Z</time>
      </trkpt>
      <trkpt lat="44.7586" lon="5.73055">
        <ele>798</ele>
        <time>2017-08-08T22:47:19Z</time>
      </trkpt>
      <trkpt lat="44.75708" lon="5.73332">
        <ele>813</ele>
        <time>2017-08-08T22:47:34Z</time>
      </trkpt>
      <trkpt lat="44.75576" lon="5.73572">
        <ele>808</ele>
        <time>2017-08-08T22:47:52Z</time>
      </trkpt>
      <trkpt lat="44.75566" lon="5.73587">
        <ele>806</ele>
        <time>2017-08-08T22:48:06Z</time>
      </trkpt>
      <trkpt lat="44.75546" lon="5.73603">
        <ele>807</ele>
        <time>2017-08-08T22:48:19Z</time>
      </trkpt>
      <trkpt lat="44.75525" lon="5.73614">
        <ele>809</ele>
        <time>2017-08-08T22:48:37Z</time>
      </trkpt>
      <trkpt lat="44.75508" lon="5.73625">
        <ele>809</ele>
        <time>2017-08-08T22:48:50Z</time>
      </trkpt>
      <trkpt lat="44.75473" lon="5.73657">
        <ele>815</ele>
        <time>2017-08-08T22:49:09Z</time>
      </trkpt>
      <trkpt lat="44.75433" lon="5.73684">
        <ele>812</ele>
        <time>2017-08-08T22:49:14Z</time>
      </trkpt>
      <trkpt lat="44.75388" lon="5.73713">
        <ele>816</ele>
        <time>2017-08-08T22:49:24Z</time>
      </trkpt>
      <trkpt lat="44.75334" lon="5.73753">
        <ele>815</ele>
        <time>2017-08-08T22:49:26Z</time>
      </trkpt>
      <trkpt lat="44.75284" lon="5.73791">
        <ele>814</ele>
        <time>2017-08-08T22:49:37Z</time>
      </trkpt>
      <trkpt lat="44.75205" lon="5.73851">
        <ele>818</ele>
        <time>2017-08-08T22:49:41Z</time>
      </trkpt>
      <trkpt lat="44.75186" lon="5.73868">
        <ele>818</ele>
        <time>2017-08-08T22:49:46Z</time>
      </trkpt>
      <trkpt lat="44.75149" lon="5.73904">
        <ele>827</ele>
        <time>2017-08-08T22:49:50Z</time>
      </trkpt>
      <trkpt lat="44.75116" lon="5.73943">
        <ele>825</ele>
        <time>2017-08-08T22:50:03Z</time>
      </trkpt>
      <trkpt lat="44.75074" lon="5.74009">
        <ele>828</ele>
        <time>2017-08-08T22:50:12Z</time>
      </trkpt>
      <trkpt lat="44.75035" lon="5.74069">
        <ele>829</ele>
        <time>2017-08-08T22:50:28Z</time>
      </trkpt>
      <trkpt lat="44.74955" lon="5.74175">
        <ele>829</ele>
        <time>2017-08-08T22:50:42Z</time>
      </trkpt>
      <trkpt lat="44.74909" lon="5.74237">
        <ele>835</ele>
        <time>2017-08-08T22:50:44Z</time>
      </trkpt>
      <trkpt lat="44.74888" lon="5.74263">
        <ele>834</ele>
        <time>2017-08-08T22:50:46Z</time>
      </trkpt>
      <trkpt lat="44.74865" lon="5.74288">
        <ele>835</ele>
        <time>2017-08-08T22:51:01Z</time>
      </trkpt>
      <trkpt lat="44.74805" lon="5.74323">
        <ele>839</ele>
        <time>2017-08-08T22:51:08Z</time>
      </trkpt>
      <trkpt lat="44.74723" lon="5.74371">
        <ele>839</ele>
        <time>2017-08-08T22:51:10Z</time>
      </trkpt>
      <trkpt lat="44.74711" lon="5.74377">
        <ele>840</ele>
        <time>2017-08-08T22:51:28Z</time>
      </trkpt>
      <trkpt lat="44.74697" lon="5.74382">
        <ele>840</ele>
        <time>2017-08-08T22:51:39Z</time>
      </trkpt>
      <trkpt lat="44.74668" lon="5.74387">
        <ele>840</ele>
        <time>2017-08-08T22:51:52Z</time>
      </trkpt>
      <trkpt lat="44.74635" lon="5.74404">
        <ele>844</ele>
        <time>2017-08-08T22:52:05Z</time>
      </trkpt>
      <trkpt lat="44.74567" lon="5.74449">
        <ele>848</ele>
        <time>2017-08-08T22:52:07Z</time>
      </trkpt>
      <trkpt lat="44.74546" lon="5.74474">
        <ele>849</ele>
        <time>2017-08-08T22:52:11Z</time>
      </trkpt>
      <trkpt lat="44.74537" lon="5.74487">
        <ele>849</ele>
        <time>2017-08-08T22:52:23Z</time>
      </trkpt>
      <trkpt lat="44.74529" lon="5.74496">
        <ele>849</ele>
        <time>2017-08-08T22:52:26Z</time>
      </trkpt>
      <trkpt lat="44.74518" lon="5.74502">
        <ele>850</ele>
        <time>2017-08-08T22:52:40Z</time>
      </trkpt>
      <trkpt lat="44.74499" lon="5.74508">
        <ele>851</ele>
        <time>2017-08-08T22:52:52Z</time>
      </trkpt>
      <trkpt lat="44.7448" lon="5.74516">
        <ele>852</ele>
        <time>2017-08-08T22:53:06Z</time>
      </trkpt>
      <trkpt lat="44.74474" lon="5.74523">
        <ele>852</ele>
        <time>2017-08-08T22:53:13Z</time>
      </trkpt>
      <trkpt lat="44.74472" lon="5.74536">
        <ele>853</ele>
        <time>2017-08-08T22:53:24Z</time>
      </trkpt>
      <trkpt lat="44.74473" lon="5.74583">
        <ele>852</ele>
        <time>2017-08-08T22:53:34Z</time>
      </trkpt>
      <trkpt lat="44.74471" lon="5.74601">
        <ele>853</ele>
        <time>2017-08-08T22:53:51Z</time>
      </trkpt>
      <trkpt lat="44.74466" lon="5.74624">
        <ele>854</ele>
        <time>2017-08-08T22:54:11Z</time>
      </trkpt>
      <trkpt lat="44.74455" lon="5.74676">
        <ele>858</ele>
        <time>2017-08-08T22:54:30Z</time>
      </trkpt>
      <trkpt lat="44.74447" lon="5.74702">
        <ele>858</ele>
        <time>2017-08-08T22:54:33Z</time>
      </trkpt>
      <trkpt lat="44.7443" lon="5.74735">
        <ele>860</ele>
        <time>2017-08-08T22:54:41Z</time>
      </trkpt>
      <trkpt lat="44.74402" lon="5.74771">
        <ele>862</ele>
        <time>2017-08-08T22:54:46Z</time>
      </trkpt>
      <trkpt lat="44.74376" lon="5.74798">
        <ele>862</ele>
        <time>2017-08-08T22:54:48Z</time>
      </trkpt>
      <trkpt lat="44.74367" lon="5.74811">
        <ele>862</ele>
        <time>2017-08-08T22:54:59Z</time>
      </trkpt>
      <trkpt lat="44.74359" lon="5.74826">
        <ele>863</ele>
        <time>2017-08-08T22:55:15Z</time>
      </trkpt>
      <trkpt lat="44.74354" lon="5.74844">
        <ele>865</ele>
        <time>2017-08-08T22:55:21Z</time>
      </trkpt>
      <trkpt lat="44.74353" lon="5.74863">
        <ele>865</ele>
        <time>2017-08-08T22:55:41Z</time>
      </trkpt>
      <trkpt lat="44.74363" lon="5.74952">
        <ele>865</ele>
        <time>2017-08-08T22:55:51Z</time>
      </trkpt>
      <trkpt lat="44.74363" lon="5.74965">
        <ele>865</ele>
        <time>2017-08-08T22:55:53Z</time>
      </trkpt>
      <trkpt lat="44.74352" lon="5.74994">
        <ele>867</ele>
        <time>2017-08-08T22:55:59Z</time>
      </trkpt>
      <trkpt lat="44.74335" lon="5.7504">
        <ele>864</ele>
        <time>2017-08-08T22:56:18Z</time>
      </trkpt>
      <trkpt lat="44.74331" lon="5.75057">
        <ele>871</ele>
        <time>2017-08-08T22:56:24Z</time>
      </trkpt>
      <trkpt lat="44.74328" lon="5.75089">
        <ele>869</ele>
        <time>2017-08-08T22:56:33Z</time>
      </trkpt>
      <trkpt lat="44.74325" lon="5.75108">
        <ele>871</ele>
        <time>2017-08-08T22:56:49Z</time>
      </trkpt>
      <trkpt lat="44.74318" lon="5.75127">
        <ele>871</ele>
        <time>2017-08-08T22:56:52Z</time>
      </trkpt>
      <trkpt lat="44.74298" lon="5.75169">
        <ele>870</ele>
        <time>2017-08-08T22:57:12Z</time>
      </trkpt>
      <trkpt lat="44.74257" lon="5.75236">
        <ele>876</ele>
        <time>2017-08-08T22:57:31Z</time>
      </trkpt>
      <trkpt lat="44.74231" lon="5.75289">
        <ele>884</ele>
        <time>2017-08-08T22:57:50Z</time>
      </trkpt>
      <trkpt lat="44.74192" lon="5.75363">
        <ele>882</ele>
        <time>2017-08-08T22:58:03Z</time>
      </trkpt>
      <trkpt lat="44.74162" lon="5.75421">
        <ele>887</ele>
        <time>2017-08-08T22:58:19Z</time>
      </trkpt>
      <trkpt lat="44.74142" lon="5.75473">
        <ele>892</ele>
        <time>2017-08-08T22:58:22Z</time>
      </trkpt>
      <trkpt lat="44.74134" lon="5.75497">
        <ele>892</ele>
        <time>2017-08-08T22:58:42Z</time>
      </trkpt>
      <trkpt lat="44.74124" lon="5.75518">
        <ele>888</ele>
        <time>2017-08-08T22:58:52Z</time>
      </trkpt>
      <trkpt lat="44.74115" lon="5.75546">
        <ele>887</ele>
        <time>2017-08-08T22:59:05Z</time>
      </trkpt>
      <trkpt lat="44.74108" lon="5.75577">
        <ele>887</ele>
        <time>2017-08-08T22:59:19Z</time>
      </trkpt>
      <trkpt lat="44.74103" lon="5.75595">
        <ele>881</ele>
        <time>2017-08-08T22:59:26Z</time>
      </trkpt>
      <trkpt lat="44.74095" lon="5.7561">
        <ele>880</ele>
        <time>2017-08-08T22:59:28Z</time>
      </trkpt>
      <trkpt lat="44.74081" lon="5.75628">
        <ele>892</ele>
        <time>2017-08-08T22:59:40Z</time>
      </trkpt>
      <trkpt lat="44.74059" lon="5.75652">
        <ele>891</ele>
        <time>2017-08-08T22:59:52Z</time>
      </trkpt>
      <trkpt lat="44.74046" lon="5.75669">
        <ele>884</ele>
        <time>2017-08-08T23:00:10Z</time>
      </trkpt>
      <trkpt lat="44.74034" lon="5.75692">
        <ele>886</ele>
        <time>2017-08-08T23:00:28Z</time>
      </trkpt>
      <trkpt lat="44.74022" lon="5.75716">
        <ele>885</ele>
        <time>2017-08-08T23:00:34Z</time>
      </trkpt>
      <trkpt lat="44.74013" lon="5.75742">
        <ele>882</ele>
        <time>2017-08-08T23:00:36Z</time>
      </trkpt>
      <trkpt lat="44.74013" lon="5.75756">
        <ele>879</ele>
        <time>2017-08-08T23:00:41Z</time>
      </trkpt>
      <trkpt lat="44.74019" lon="5.75772">
        <ele>878</ele>
        <time>2017-08-08T23:00:46Z</time>
      </trkpt>
      <trkpt lat="44.74048" lon="5.75823">
        <ele>876</ele>
        <time>2017-08-08T23:00:48Z</time>
      </trkpt>
      <trkpt lat="44.74053" lon="5.75834">
        <ele>877</ele>
        <time>2017-08-08T23:00:53Z</time>
      </trkpt>
      <trkpt lat="44.74068" lon="5.75857">
        <ele>877</ele>
        <time>2017-08-08T23:01:04Z</time>
      </trkpt>
      <trkpt lat="44.7408" lon="5.75879">
        <ele>878</ele>
        <time>2017-08-08T23:01:15Z</time>
      </trkpt>
      <trkpt lat="44.74089" lon="5.75905">
        <ele>879</ele>
        <time>2017-08-08T23:01:26Z</time>
      </trkpt>
      <trkpt lat="44.74097" lon="5.75935">
        <ele>881</ele>
        <time>2017-08-08T23:01:39Z</time>
      </trkpt>
      <trkpt lat="44.74111" lon="5.7598">
        <ele>882</ele>
        <time>2017-08-08T23:01:45Z</time>
      </trkpt>
      <trkpt lat="44.74115" lon="5.76017">
        <ele>885</ele>
        <time>2017-08-08T23:01:50Z</time>
      </trkpt>
      <trkpt lat="44.74113" lon="5.76128">
        <ele>891</ele>
        <time>2017-08-08T23:01:58Z</time>
      </trkpt>
      <trkpt lat="44.74114" lon="5.76179">
        <ele>894</ele>
        <time>2017-08-08T23:02:06Z</time>
      </trkpt>
      <trkpt lat="44.74118" lon="5.76211">
        <ele>895</ele>
        <time>2017-08-08T23:02:18Z</time>
      </trkpt>
      <trkpt lat="44.74129" lon="5.76246">
        <ele>895</ele>
        <time>2017-08-08T23:02:24Z</time>
      </trkpt>
      <trkpt lat="44.74142" lon="5.76272">
        <ele>898</ele>
        <time>2017-08-08T23:02:38Z</time>
      </trkpt>
      <trkpt lat="44.74163" lon="5.76303">
        <ele>898</ele>
        <time>2017-08-08T23:02:46Z</time>
      </trkpt>
      <trkpt lat="44.74171" lon="5.76318">
        <ele>898</ele>
        <time>2017-08-08T23:02:59Z</time>
      </trkpt>
      <trkpt lat="44.74175" lon="5.76336">
        <ele>900</ele>
        <time>2017-08-08T23:03:07Z</time>
      </trkpt>
      <trkpt lat="44.74181" lon="5.76381">
        <ele>901</ele>
        <time>2017-08-08T23:03:17Z</time>
      </trkpt>
      <trkpt lat="44.74181" lon="5.76436">
        <ele>905</ele>
        <time>2017-08-08T23:03:27Z</time>
      </trkpt>
      <trkpt lat="44.74168" lon="5.76502">
        <ele>908</ele>
        <time>2017-08-08T23:03:42Z</time>
      </trkpt>
      <trkpt lat="44.74163" lon="5.76542">
        <ele>909</ele>
        <time>2017-08-08T23:03:50Z</time>
      </trkpt>
      <trkpt lat="44.74163" lon="5.76548">
        <ele>910</ele>
        <time>2017-08-08T23:04:07Z</time>
      </trkpt>
      <trkpt lat="44.74166" lon="5.76552">
        <ele>910</ele>
        <time>2017-08-08T23:04:19Z</time>
      </trkpt>
      <trkpt lat="44.74195" lon="5.76565">
        <ele>908</ele>
        <time>2017-08-08T23:04:32Z</time>
      </trkpt>
      <trkpt lat="44.74258" lon="5.76593">
        <ele>907</ele>
        <time>2017-08-08T23:04:44Z</time>
      </trkpt>
      <trkpt lat="44.74291" lon="5.76625">
        <ele>908</ele>
        <time>2017-08-08T23:04:55Z</time>
      </trkpt>
      <trkpt lat="44.74341" lon="5.76677">
        <ele>912</ele>
        <time>2017-08-08T23:05:08Z</time>
      </trkpt>
      <trkpt lat="44.74422" lon="5.76764">
        <ele>915</ele>
        <time>2017-08-08T23:05:23Z</time>
      </trkpt>
      <trkpt lat="44.74454" lon="5.76796">
        <ele>917</ele>
        <time>2017-08-08T23:05:28Z</time>
      </trkpt>
      <trkpt lat="44.7448" lon="5.76816">
        <ele>918</ele>
        <time>2017-08-08T23:05:36Z</time>
      </trkpt>
      <trkpt lat="44.74486" lon="5.76821">
        <ele>919</ele>
        <time>2017-08-08T23:05:49Z</time>
      </trkpt>
      <trkpt lat="44.74499" lon="5.76821">
        <ele>919</ele>
        <time>2017-08-08T23:05:57Z</time>
      </trkpt>
      <trkpt lat="44.74537" lon="5.76814">
        <ele>922</ele>
        <time>2017-08-08T23:06:14Z</time>
      </trkpt>
      <trkpt lat="44.74556" lon="5.76809">
        <ele>923</ele>
        <time>2017-08-08T23:06:18Z</time>
      </trkpt>
      <trkpt lat="44.74575" lon="5.76809">
        <ele>924</ele>
        <time>2017-08-08T23:06:33Z</time>
      </trkpt>
      <trkpt lat="44.7459" lon="5.76806">
        <ele>929</ele>
        <time>2017-08-08T23:06:40Z</time>
      </trkpt>
      <trkpt lat="44.74597" lon="5.76801">
        <ele>929</ele>
        <time>2017-08-08T23:06:52Z</time>
      </trkpt>
      <trkpt lat="44.74603" lon="5.76788">
        <ele>929</ele>
        <time>2017-08-08T23:07:02Z</time>
      </trkpt>
      <trkpt lat="44.74622" lon="5.76749">
        <ele>924</ele>
        <time>2017-08-08T23:07:18Z</time>
      </trkpt>
      <trkpt lat="44.74629" lon="5.76741">
        <ele>924</ele>
        <time>2017-08-08T23:07:25Z</time>
      </trkpt>
      <trkpt lat="44.74638" lon="5.76737">
        <ele>924</ele>
        <time>2017-08-08T23:07:45Z</time>
      </trkpt>
      <trkpt lat="44.74657" lon="5.76743">
        <ele>927</ele>
        <time>2017-08-08T23:08:02Z</time>
      </trkpt>
      <trkpt lat="44.74706" lon="5.7677">
        <ele>932</ele>
        <time>2017-08-08T23:08:05Z</time>
      </trkpt>
      <trkpt lat="44.74759" lon="5.76799">
        <ele>931</ele>
        <time>2017-08-08T23:08:20Z</time>
      </trkpt>
      <trkpt lat="44.74783" lon="5.76809">
        <ele>932</ele>
        <time>2017-08-08T23:08:30Z</time>
      </trkpt>
      <trkpt lat="44.74802" lon="5.76812">
        <ele>931</ele>
        <time>2017-08-08T23:08:32Z</time>
      </trkpt>
      <trkpt lat="44.74855" lon="5.76808">
        <ele>930</ele>
        <time>2017-08-08T23:08:41Z</time>
      </trkpt>
      <trkpt lat="44.7489" lon="5.76805">
        <ele>931</ele>
        <time>2017-08-08T23:08:45Z</time>
      </trkpt>
      <trkpt lat="44.74904" lon="5.768">
        <ele>931</ele>
        <time>2017-08-08T23:08:57Z</time>
      </trkpt>
      <trkpt lat="44.74993" lon="5.76729">
        <ele>932</ele>
        <time>2017-08-08T23:09:12Z</time>
      </trkpt>
      <trkpt lat="44.75033" lon="5.76685">
        <ele>940</ele>
        <time>2017-08-08T23:09:19Z</time>
      </trkpt>
      <trkpt lat="44.75062" lon="5.76662">
        <ele>941</ele>
        <time>2017-08-08T23:09:21Z</time>
      </trkpt>
      <trkpt lat="44.75074" lon="5.76657">
        <ele>942</ele>
        <time>2017-08-08T23:09:29Z</time>
      </trkpt>
      <trkpt lat="44.75114" lon="5.76634">
        <ele>946</ele>
        <time>2017-08-08T23:09:37Z</time>
      </trkpt>
      <trkpt lat="44.75121" lon="5.76628">
        <ele>946</ele>
        <time>2017-08-08T23:09:55Z</time>
      </trkpt>
      <trkpt lat="44.75131" lon="5.76622">
        <ele>947</ele>
        <time>2017-08-08T23:10:10Z</time>
      </trkpt>
      <trkpt lat="44.75151" lon="5.76609">
        <ele>947</ele>
        <time>2017-08-08T23:10:25Z</time>
      </trkpt>
      <trkpt lat="44.7517" lon="5.76596">
        <ele>950</ele>
        <time>2017-08-08T23:10:31Z</time>
      </trkpt>
      <trkpt lat="44.75178" lon="5.76587">
        <ele>950</ele>
        <time>2017-08-08T23:10:42Z</time>
      </trkpt>
      <trkpt lat="44.75186" lon="5.76569">
        <ele>953</ele>
        <time>2017-08-08T23:11:00Z</time>
      </trkpt>
      <trkpt lat="44.75188" lon="5.76542">
        <ele>955</ele>
        <time>2017-08-08T23:11:15Z</time>
      </trkpt>
      <trkpt lat="44.75183" lon="5.76525">
        <ele>956</ele>
        <time>2017-08-08T23:11:34Z</time>
      </trkpt>
      <trkpt lat="44.75169" lon="5.76496">
        <ele>956</ele>
        <time>2017-08-08T23:11:36Z</time>
      </trkpt>
      <trkpt lat="44.75148" lon="5.76454">
        <ele>955</ele>
        <time>2017-08-08T23:11:42Z</time>
      </trkpt>
      <trkpt lat="44.75129" lon="5.76428">
        <ele>954</ele>
        <time>2017-08-08T23:11:51Z</time>
      </trkpt>
      <trkpt lat="44.75115" lon="5.7641">
        <ele>960</ele>
        <time>2017-08-08T23:12:08Z</time>
      </trkpt>
      <trkpt lat="44.7511" lon="5.764">
        <ele>960</ele>
        <time>2017-08-08T23:12:15Z</time>
      </trkpt>
      <trkpt lat="44.75111" lon="5.76383">
        <ele>962</ele>
        <time>2017-08-08T23:12:20Z</time>
      </trkpt>
      <trkpt lat="44.75115" lon="5.76378">
        <ele>963</ele>
        <time>2017-08-08T23:12:24Z</time>
      </trkpt>
      <trkpt lat="44.75122" lon="5.76378">
        <ele>963</ele>
        <time>2017-08-08T23:12:28Z</time>
      </trkpt>
      <trkpt lat="44.75138" lon="5.76399">
        <ele>964</ele>
        <time>2017-08-08T23:12:32Z</time>
      </trkpt>
      <trkpt lat="44.75154" lon="5.76422">
        <ele>961</ele>
        <time>2017-08-08T23:12:52Z</time>
      </trkpt>
      <trkpt lat="44.75179" lon="5.76439">
        <ele>969</ele>
        <time>2017-08-08T23:13:06Z</time>
      </trkpt>
      <trkpt lat="44.75217" lon="5.76467">
        <ele>970</ele>
        <time>2017-08-08T23:13:10Z</time>
      </trkpt>
      <trkpt lat="44.75239" lon="5.76469">
        <ele>971</ele>
        <time>2017-08-08T23:13:27Z</time>
      </trkpt>
      <trkpt lat="44.75251" lon="5.76471">
        <ele>982</ele>
        <time>2017-08-08T23:13:31Z</time>
      </trkpt>
      <trkpt lat="44.75261" lon="5.7648">
        <ele>980</ele>
        <time>2017-08-08T23:13:47Z</time>
      </trkpt>
      <trkpt lat="44.75267" lon="5.76488">
        <ele>980</ele>
        <time>2017-08-08T23:13:53Z</time>
      </trkpt>
      <trkpt lat="44.75272" lon="5.76494">
        <ele>980</ele>
        <time>2017-08-08T23:14:13Z</time>
      </trkpt>
      <trkpt lat="44.75289" lon="5.7651">
        <ele>973</ele>
        <time>2017-08-08T23:14:23Z</time>
      </trkpt>
      <trkpt lat="44.75301" lon="5.76517">
        <ele>975</ele>
        <time>2017-08-08T23:14:27Z</time>
      </trkpt>
      <trkpt lat="44.75305" lon="5.76518">
        <ele>975</ele>
        <time>2017-08-08T23:14:46Z</time>
      </trkpt>
      <trkpt lat="44.75344" lon="5.76524">
        <ele>988</ele>
        <time>2017-08-08T23:15:04Z</time>
      </trkpt>
      <trkpt lat="44.75368" lon="5.76529">
        <ele>991</ele>
        <time>2017-08-08T23:15:20Z</time>
      </trkpt>
      <trkpt lat="44.75382" lon="5.76535">
        <ele>993</ele>
        <time>2017-08-08T23:15:40Z</time>
      </trkpt>
      <trkpt lat="44.75401" lon="5.76554">
        <ele>993</ele>
        <time>2017-08-08T23:15:46Z</time>
      </trkpt>
      <trkpt lat="44.75434" lon="5.76591">
        <ele>998</ele>
        <time>2017-08-08T23:15:55Z</time>
      </trkpt>
      <trkpt lat="44.7545" lon="5.76624">
        <ele>999</ele>
        <time>2017-08-08T23:16:13Z</time>
      </trkpt>
      <trkpt lat="44.75453" lon="5.76637">
        <ele>998</ele>
        <time>2017-08-08T23:16:29Z</time>
      </trkpt>
      <trkpt lat="44.75462" lon="5.76654">
        <ele>998</ele>
        <time>2017-08-08T23:16:42Z</time>
      </trkpt>
      <trkpt lat="44.75468" lon="5.76657">
        <ele>998</ele>
        <time>2017-08-08T23:16:58Z</time>
      </trkpt>
      <trkpt lat="44.75488" lon="5.76662">
        <ele>1000</ele>
        <time>2017-08-08T23:17:18Z</time>
      </trkpt>
      <trkpt lat="44.75552" lon="5.76678">
        <ele>1007</ele>
        <time>2017-08-08T23:17:34Z</time>
      </trkpt>
      <trkpt lat="44.75581" lon="5.76686">
        <ele>1011</ele>
        <time>2017-08-08T23:17:50Z</time>
      </trkpt>
      <trkpt lat="44.75598" lon="5.76689">
        <ele>1024</ele>
        <time>2017-08-08T23:18:08Z</time>
      </trkpt>
      <trkpt lat="44.75602" lon="5.76693">
        <ele>1024</ele>
        <time>2017-08-08T23:18:12Z</time>
      </trkpt>
      <trkpt lat="44.75606" lon="5.76704">
        <ele>1025</ele>
        <time>2017-08-08T23:18:25Z</time>
      </trkpt>
      <trkpt lat="44.75606" lon="5.76718">
        <ele>1024</ele>
        <time>2017-08-08T23:18:36Z</time>
      </trkpt>
      <trkpt lat="44.756" lon="5.76727">
        <ele>1022</ele>
        <time>2017-08-08T23:18:52Z</time>
      </trkpt>
      <trkpt lat="44.75593" lon="5.76758">
        <ele>1013</ele>
        <time>2017-08-08T23:19:06Z</time>
      </trkpt>
      <trkpt lat="44.75603" lon="5.76782">
        <ele>1017</ele>
        <time>2017-08-08T23:19:17Z</time>
      </trkpt>
      <trkpt lat="44.75617" lon="5.76804">
        <ele>1018</ele>
        <time>2017-08-08T23:19:27Z</time>
      </trkpt>
      <trkpt lat="44.75634" lon="5.76826">
        <ele>1020</ele>
        <time>2017-08-08T23:19:37Z</time>
      </trkpt>
      <trkpt lat="44.75654" lon="5.76843">
        <ele>1019</ele>
        <time>2017-08-08T23:19:49Z</time>
      </trkpt>
      <trkpt lat="44.7566" lon="5.76847">
        <ele>1019</ele>
        <time>2017-08-08T23:20:03Z</time>
      </trkpt>
      <trkpt lat="44.75666" lon="5.76847">
        <ele>1020</ele>
        <time>2017-08-08T23:20:10Z</time>
      </trkpt>
      <trkpt lat="44.75679" lon="5.76841">
        <ele>1031</ele>
        <time>2017-08-08T23:20:19Z</time>
      </trkpt>
      <trkpt lat="44.75692" lon="5.76837">
        <ele>1033</ele>
        <time>2017-08-08T23:20:25Z</time>
      </trkpt>
      <trkpt lat="44.75712" lon="5.76843">
        <ele>1038</ele>
        <time>2017-08-08T23:20:40Z</time>
      </trkpt>
      <trkpt lat="44.75716" lon="5.76852">
        <ele>1038</ele>
        <time>2017-08-08T23:20:43Z</time>
      </trkpt>
      <trkpt lat="44.75717" lon="5.76868">
        <ele>1036</ele>
        <time>2017-08-08T23:21:02Z</time>
      </trkpt>
      <trkpt lat="44.75715" lon="5.76908">
        <ele>1033</ele>
        <time>2017-08-08T23:21:11Z</time>
      </trkpt>
      <trkpt lat="44.75731" lon="5.76951">
        <ele>1026</ele>
        <time>2017-08-08T23:21:31Z</time>
      </trkpt>
      <trkpt lat="44.7574" lon="5.76956">
        <ele>1026</ele>
        <time>2017-08-08T23:21:41Z</time>
      </trkpt>
      <trkpt lat="44.75746" lon="5.76956">
        <ele>1026</ele>
        <time>2017-08-08T23:21:47Z</time>
      </trkpt>
      <trkpt lat="44.75756" lon="5.76954">
        <ele>1040</ele>
        <time>2017-08-08T23:22:04Z</time>
      </trkpt>
      <trkpt lat="44.75769" lon="5.76945">
        <ele>1042</ele>
        <time>2017-08-08T23:22:10Z</time>
      </trkpt>
      <trkpt lat="44.75775" lon="5.76937">
        <ele>1043</ele>
        <time>2017-08-08T23:22:23Z</time>
      </trkpt>
      <trkpt lat="44.75792" lon="5.76922">
        <ele>1046</ele>
        <time>2017-08-08T23:22:27Z</time>
      </trkpt>
      <trkpt lat="44.75802" lon="5.7692">
        <ele>1048</ele>
        <time>2017-08-08T23:22:34Z</time>
      </trkpt>
      <trkpt lat="44.75811" lon="5.76926">
        <ele>1050</ele>
        <time>2017-08-08T23:22:50Z</time>
      </trkpt>
      <trkpt lat="44.75824" lon="5.76952">
        <ele>1047</ele>
        <time>2017-08-08T23:22:54Z</time>
      </trkpt>
      <trkpt lat="44.75869" lon="5.77036">
        <ele>1062</ele>
        <time>2017-08-08T23:23:01Z</time>
      </trkpt>
      <trkpt lat="44.75878" lon="5.77068">
        <ele>1062</ele>
        <time>2017-08-08T23:23:09Z</time>
      </trkpt>
      <trkpt lat="44.75878" lon="5.77101">
        <ele>1061</ele>
        <time>2017-08-08T23:23:24Z</time>
      </trkpt>
      <trkpt lat="44.75866" lon="5.77137">
        <ele>1061</ele>
        <time>2017-08-08T23:23:29Z</time>
      </trkpt>
      <trkpt lat="44.75843" lon="5.77187">
        <ele>1067</ele>
        <time>2017-08-08T23:23:33Z</time>
      </trkpt>
      <trkpt lat="44.75838" lon="5.77192">
        <ele>1068</ele>
        <time>2017-08-08T23:23:40Z</time>
      </trkpt>
      <trkpt lat="44.7583" lon="5.77195">
        <ele>1057</ele>
        <time>2017-08-08T23:23:57Z</time>
      </trkpt>
      <trkpt lat="44.75803" lon="5.77199">
        <ele>1056</ele>
        <time>2017-08-08T23:23:59Z</time>
      </trkpt>
      <trkpt lat="44.75799" lon="5.77204">
        <ele>1056</ele>
        <time>2017-08-08T23:24:04Z</time>
      </trkpt>
      <trkpt lat="44.75797" lon="5.77213">
        <ele>1057</ele>
        <time>2017-08-08T23:24:08Z</time>
      </trkpt>
      <trkpt lat="44.75794" lon="5.77243">
        <ele>1059</ele>
        <time>2017-08-08T23:24:10Z</time>
      </trkpt>
      <trkpt lat="44.75775" lon="5.77393">
        <ele>1085</ele>
        <time>2017-08-08T23:24:30Z</time>
      </trkpt>
      <trkpt lat="44.75769" lon="5.77408">
        <ele>1084</ele>
        <time>2017-08-08T23:24:34Z</time>
      </trkpt>
      <trkpt lat="44.75738" lon="5.77434">
        <ele>1081</ele>
        <time>2017-08-08T23:24:38Z</time>
      </trkpt>
      <trkpt lat="44.75732" lon="5.77443">
        <ele>1083</ele>
        <time>2017-08-08T23:24:41Z</time>
      </trkpt>
      <trkpt lat="44.75732" lon="5.77452">
        <ele>1084</ele>
        <time>2017-08-08T23:24:52Z</time>
      </trkpt>
      <trkpt lat="44.75735" lon="5.77466">
        <ele>1086</ele>
        <time>2017-08-08T23:25:04Z</time>
      </trkpt>
      <trkpt lat="44.75742" lon="5.77469">
        <ele>1087</ele>
        <time>2017-08-08T23:25:07Z</time>
      </trkpt>
      <trkpt lat="44.75751" lon="5.77465">
        <ele>1101</ele>
        <time>2017-08-08T23:25:27Z</time>
      </trkpt>
      <trkpt lat="44.75782" lon="5.77427">
        <ele>1101</ele>
        <time>2017-08-08T23:25:43Z</time>
      </trkpt>
      <trkpt lat="44.75792" lon="5.77414">
        <ele>1091</ele>
        <time>2017-08-08T23:25:51Z</time>
      </trkpt>
      <trkpt lat="44.75796" lon="5.77404">
        <ele>1091</ele>
        <time>2017-08-08T23:25:55Z</time>
      </trkpt>
      <trkpt lat="44.758" lon="5.77367">
        <ele>1088</ele>
        <time>2017-08-08T23:25:59Z</time>
      </trkpt>
      <trkpt lat="44.75807" lon="5.77342">
        <ele>1087</ele>
        <time>2017-08-08T23:26:02Z</time>
      </trkpt>
      <trkpt lat="44.75815" lon="5.77312">
        <ele>1077</ele>
        <time>2017-08-08T23:26:17Z</time>
      </trkpt>
      <trkpt lat="44.75821" lon="5.77299">
        <ele>1076</ele>
        <time>2017-08-08T23:26:23Z</time>
      </trkpt>
      <trkpt lat="44.75829" lon="5.77296">
        <ele>1076</ele>
        <time>2017-08-08T23:26:41Z</time>
      </trkpt>
      <trkpt lat="44.75834" lon="5.77299">
        <ele>1092</ele>
        <time>2017-08-08T23:26:50Z</time>
      </trkpt>
      <trkpt lat="44.75838" lon="5.77305">
        <ele>1092</ele>
        <time>2017-08-08T23:27:10Z</time>
      </trkpt>
      <trkpt lat="44.75846" lon="5.77322">
        <ele>1094</ele>
        <time>2017-08-08T23:27:14Z</time>
      </trkpt>
      <trkpt lat="44.75857" lon="5.77335">
        <ele>1109</ele>
        <time>2017-08-08T23:27:21Z</time>
      </trkpt>
      <trkpt lat="44.75867" lon="5.77338">
        <ele>1113</ele>
        <time>2017-08-08T23:27:26Z</time>
      </trkpt>
      <trkpt lat="44.75884" lon="5.77337">
        <ele>1117</ele>
        <time>2017-08-08T23:27:34Z</time>
      </trkpt>
      <trkpt lat="44.75914" lon="5.77324">
        <ele>1111</ele>
        <time>2017-08-08T23:27:41Z</time>
      </trkpt>
      <trkpt lat="44.75926" lon="5.77315">
        <ele>1120</ele>
        <time>2017-08-08T23:27:43Z</time>
      </trkpt>
      <trkpt lat="44.75934" lon="5.77305">
        <ele>1120</ele>
        <time>2017-08-08T23:27:55Z</time>
      </trkpt>
      <trkpt lat="44.7595" lon="5.77262">
        <ele>1116</ele>
        <time>2017-08-08T23:28:13Z</time>
      </trkpt>
      <trkpt lat="44.76005" lon="5.77182">
        <ele>1112</ele>
        <time>2017-08-08T23:28:24Z</time>
      </trkpt>
      <trkpt lat="44.76019" lon="5.77161">
        <ele>1111</ele>
        <time>2017-08-08T23:28:41Z</time>
      </trkpt>
      <trkpt lat="44.76037" lon="5.77157">
        <ele>1112</ele>
        <time>2017-08-08T23:29:01Z</time>
      </trkpt>
      <trkpt lat="44.76041" lon="5.77157">
        <ele>1112</ele>
        <time>2017-08-08T23:29:15Z</time>
      </trkpt>
      <trkpt lat="44.76044" lon="5.77159">
        <ele>1112</ele>
        <time>2017-08-08T23:29:31Z</time>
      </trkpt>
      <trkpt lat="44.76048" lon="5.77169">
        <ele>1112</ele>
        <time>2017-08-08T23:29:50Z</time>
      </trkpt>
      <trkpt lat="44.76052" lon="5.772">
        <ele>1113</ele>
        <time>2017-08-08T23:29:55Z</time>
      </trkpt>
      <trkpt lat="44.76059" lon="5.77227">
        <ele>1115</ele>
        <time>2017-08-08T23:30:13Z</time>
      </trkpt>
      <trkpt lat="44.76063" lon="5.77237">
        <ele>1115</ele>
        <time>2017-08-08T23:30:29Z</time>
      </trkpt>
      <trkpt lat="44.76081" lon="5.77264">
        <ele>1120</ele>
        <time>2017-08-08T23:30:34Z</time>
      </trkpt>
      <trkpt lat="44.76101" lon="5.77305">
        <ele>1101</ele>
        <time>2017-08-08T23:30:41Z</time>
      </trkpt>
      <trkpt lat="44.76104" lon="5.7733">
        <ele>1105</ele>
        <time>2017-08-08T23:30:44Z</time>
      </trkpt>
      <trkpt lat="44.76102" lon="5.77347">
        <ele>1102</ele>
        <time>2017-08-08T23:30:51Z</time>
      </trkpt>
      <trkpt lat="44.76096" lon="5.77358">
        <ele>1101</ele>
        <time>2017-08-08T23:31:04Z</time>
      </trkpt>
      <trkpt lat="44.76079" lon="5.77403">
        <ele>1120</ele>
        <time>2017-08-08T23:31:24Z</time>
      </trkpt>
      <trkpt lat="44.76074" lon="5.7742">
        <ele>1115</ele>
        <time>2017-08-08T23:31:33Z</time>
      </trkpt>
      <trkpt lat="44.76073" lon="5.7744">
        <ele>1119</ele>
        <time>2017-08-08T23:31:46Z</time>
      </trkpt>
      <trkpt lat="44.76064" lon="5.77483">
        <ele>1117</ele>
        <time>2017-08-08T23:31:51Z</time>
      </trkpt>
      <trkpt lat="44.76058" lon="5.77503">
        <ele>1116</ele>
        <time>2017-08-08T23:31:59Z</time>
      </trkpt>
      <trkpt lat="44.76057" lon="5.77512">
        <ele>1118</ele>
        <time>2017-08-08T23:32:08Z</time>
      </trkpt>
      <trkpt lat="44.7606" lon="5.77521">
        <ele>1118</ele>
        <time>2017-08-08T23:32:21Z</time>
      </trkpt>
      <trkpt lat="44.76085" lon="5.77561">
        <ele>1090</ele>
        <time>2017-08-08T23:32:40Z</time>
      </trkpt>
      <trkpt lat="44.76104" lon="5.77589">
        <ele>1094</ele>
        <time>2017-08-08T23:32:54Z</time>
      </trkpt>
      <trkpt lat="44.7612" lon="5.7761">
        <ele>1090</ele>
        <time>2017-08-08T23:33:09Z</time>
      </trkpt>
      <trkpt lat="44.76126" lon="5.77615">
        <ele>1089</ele>
        <time>2017-08-08T23:33:20Z</time>
      </trkpt>
      <trkpt lat="44.76135" lon="5.7762">
        <ele>1087</ele>
        <time>2017-08-08T23:33:26Z</time>
      </trkpt>
      <trkpt lat="44.7614" lon="5.77621">
        <ele>1086</ele>
        <time>2017-08-08T23:33:44Z</time>
      </trkpt>
      <trkpt lat="44.76144" lon="5.77631">
        <ele>1086</ele>
        <time>2017-08-08T23:33:47Z</time>
      </trkpt>
      <trkpt lat="44.76144" lon="5.77639">
        <ele>1086</ele>
        <time>2017-08-08T23:34:04Z</time>
      </trkpt>
      <trkpt lat="44.76139" lon="5.77653">
        <ele>1087</ele>
        <time>2017-08-08T23:34:10Z</time>
      </trkpt>
      <trkpt lat="44.76125" lon="5.77703">
        <ele>1105</ele>
        <time>2017-08-08T23:34:14Z</time>
      </trkpt>
      <trkpt lat="44.76124" lon="5.77726">
        <ele>1108</ele>
        <time>2017-08-08T23:34:16Z</time>
      </trkpt>
      <trkpt lat="44.76124" lon="5.77737">
        <ele>1108</ele>
        <time>2017-08-08T23:34:21Z</time>
      </trkpt>
      <trkpt lat="44.7613" lon="5.77749">
        <ele>1107</ele>
        <time>2017-08-08T23:34:34Z</time>
      </trkpt>
      <trkpt lat="44.76141" lon="5.77753">
        <ele>1115</ele>
        <time>2017-08-08T23:34:51Z</time>
      </trkpt>
      <trkpt lat="44.76163" lon="5.77749">
        <ele>1093</ele>
        <time>2017-08-08T23:35:00Z</time>
      </trkpt>
      <trkpt lat="44.7618" lon="5.77739">
        <ele>1086</ele>
        <time>2017-08-08T23:35:03Z</time>
      </trkpt>
      <trkpt lat="44.76191" lon="5.77733">
        <ele>1084</ele>
        <time>2017-08-08T23:35:10Z</time>
      </trkpt>
      <trkpt lat="44.76198" lon="5.77732">
        <ele>1083</ele>
        <time>2017-08-08T23:35:24Z</time>
      </trkpt>
      <trkpt lat="44.76204" lon="5.77735">
        <ele>1083</ele>
        <time>2017-08-08T23:35:44Z</time>
      </trkpt>
      <trkpt lat="44.76214" lon="5.77749">
        <ele>1084</ele>
        <time>2017-08-08T23:35:52Z</time>
      </trkpt>
      <trkpt lat="44.76224" lon="5.77752">
        <ele>1102</ele>
        <time>2017-08-08T23:36:05Z</time>
      </trkpt>
      <trkpt lat="44.76231" lon="5.77748">
        <ele>1086</ele>
        <time>2017-08-08T23:36:19Z</time>
      </trkpt>
      <trkpt lat="44.76236" lon="5.77742">
        <ele>1087</ele>
        <time>2017-08-08T23:36:36Z</time>
      </trkpt>
      <trkpt lat="44.76256" lon="5.77705">
        <ele>1080</ele>
        <time>2017-08-08T23:36:49Z</time>
      </trkpt>
      <trkpt lat="44.76264" lon="5.777">
        <ele>1079</ele>
        <time>2017-08-08T23:37:09Z</time>
      </trkpt>
      <trkpt lat="44.76271" lon="5.77704">
        <ele>1081</ele>
        <time>2017-08-08T23:37:17Z</time>
      </trkpt>
      <trkpt lat="44.76276" lon="5.77711">
        <ele>1083</ele>
        <time>2017-08-08T23:37:31Z</time>
      </trkpt>
      <trkpt lat="44.76286" lon="5.77723">
        <ele>1085</ele>
        <time>2017-08-08T23:37:42Z</time>
      </trkpt>
      <trkpt lat="44.76296" lon="5.7772">
        <ele>1085</ele>
        <time>2017-08-08T23:37:50Z</time>
      </trkpt>
      <trkpt lat="44.76303" lon="5.77701">
        <ele>1083</ele>
        <time>2017-08-08T23:37:54Z</time>
      </trkpt>
      <trkpt lat="44.76306" lon="5.77663">
        <ele>1064</ele>
        <time>2017-08-08T23:38:00Z</time>
      </trkpt>
      <trkpt lat="44.76317" lon="5.77645">
        <ele>1063</ele>
        <time>2017-08-08T23:38:05Z</time>
      </trkpt>
      <trkpt lat="44.76335" lon="5.77629">
        <ele>1065</ele>
        <time>2017-08-08T23:38:08Z</time>
      </trkpt>
      <trkpt lat="44.76362" lon="5.7761">
        <ele>1062</ele>
        <time>2017-08-08T23:38:17Z</time>
      </trkpt>
      <trkpt lat="44.76378" lon="5.7761">
        <ele>1063</ele>
        <time>2017-08-08T23:38:21Z</time>
      </trkpt>
      <trkpt lat="44.76407" lon="5.77599">
        <ele>1061</ele>
        <time>2017-08-08T23:38:29Z</time>
      </trkpt>
      <trkpt lat="44.76455" lon="5.77572">
        <ele>1046</ele>
        <time>2017-08-08T23:38:48Z</time>
      </trkpt>
      <trkpt lat="44.76481" lon="5.77552">
        <ele>1044</ele>
        <time>2017-08-08T23:38:55Z</time>
      </trkpt>
      <trkpt lat="44.76508" lon="5.77546">
        <ele>1040</ele>
        <time>2017-08-08T23:39:10Z</time>
      </trkpt>
      <trkpt lat="44.76526" lon="5.77531">
        <ele>1037</ele>
        <time>2017-08-08T23:39:19Z</time>
      </trkpt>
      <trkpt lat="44.76547" lon="5.77515">
        <ele>1036</ele>
        <time>2017-08-08T23:39:39Z</time>
      </trkpt>
      <trkpt lat="44.76578" lon="5.77497">
        <ele>1033</ele>
        <time>2017-08-08T23:39:43Z</time>
      </trkpt>
      <trkpt lat="44.76595" lon="5.77476">
        <ele>1029</ele>
        <time>2017-08-08T23:39:47Z</time>
      </trkpt>
      <trkpt lat="44.76622" lon="5.77445">
        <ele>1026</ele>
        <time>2017-08-08T23:39:56Z</time>
      </trkpt>
      <trkpt lat="44.76638" lon="5.77436">
        <ele>1026</ele>
        <time>2017-08-08T23:40:14Z</time>
      </trkpt>
      <trkpt lat="44.76657" lon="5.77437">
        <ele>1026</ele>
        <time>2017-08-08T23:40:23Z</time>
      </trkpt>
      <trkpt lat="44.76696" lon="5.77445">
        <ele>1023</ele>
        <time>2017-08-08T23:40:43Z</time>
      </trkpt>
      <trkpt lat="44.76711" lon="5.77446">
        <ele>1022</ele>
        <time>2017-08-08T23:41:03Z</time>
      </trkpt>
      <trkpt lat="44.76724" lon="5.7744">
        <ele>1022</ele>
        <time>2017-08-08T23:41:23Z</time>
      </trkpt>
      <trkpt lat="44.7675" lon="5.77419">
        <ele>1024</ele>
        <time>2017-08-08T23:41:39Z</time>
      </trkpt>
      <trkpt lat="44.76756" lon="5.77416">
        <ele>1024</ele>
        <time>2017-08-08T23:41:52Z</time>
      </trkpt>
      <trkpt lat="44.76767" lon="5.77416">
        <ele>1024</ele>
        <time>2017-08-08T23:42:02Z</time>
      </trkpt>
      <trkpt lat="44.76779" lon="5.77421">
        <ele>1022</ele>
        <time>2017-08-08T23:42:06Z</time>
      </trkpt>
      <trkpt lat="44.76786" lon="5.77429">
        <ele>1022</ele>
        <time>2017-08-08T23:42:15Z</time>
      </trkpt>
      <trkpt lat="44.7681" lon="5.77464">
        <ele>1020</ele>
        <time>2017-08-08T23:42:35Z</time>
      </trkpt>
      <trkpt lat="44.76864" lon="5.77534">
        <ele>1010</ele>
        <time>2017-08-08T23:42:49Z</time>
      </trkpt>
      <trkpt lat="44.76924" lon="5.77612">
        <ele>1006</ele>
        <time>2017-08-08T23:42:51Z</time>
      </trkpt>
      <trkpt lat="44.76952" lon="5.77635">
        <ele>1005</ele>
        <time>2017-08-08T23:43:11Z</time>
      </trkpt>
      <trkpt lat="44.76964" lon="5.77646">
        <ele>1005</ele>
        <time>2017-08-08T23:43:30Z</time>
      </trkpt>
      <trkpt lat="44.76965" lon="5.77659">
        <ele>1004</ele>
        <time>2017-08-08T23:43:43Z</time>
      </trkpt>
      <trkpt lat="44.7696" lon="5.77671">
        <ele>995</ele>
        <time>2017-08-08T23:43:49Z</time>
      </trkpt>
      <trkpt lat="44.76948" lon="5.77674">
        <ele>995</ele>
        <time>2017-08-08T23:43:54Z</time>
      </trkpt>
      <trkpt lat="44.76896" lon="5.77643">
        <ele>998</ele>
        <time>2017-08-08T23:44:12Z</time>
      </trkpt>
      <trkpt lat="44.76844" lon="5.77622">
        <ele>996</ele>
        <time>2017-08-08T23:44:25Z</time>
      </trkpt>
      <trkpt lat="44.76829" lon="5.77623">
        <ele>992</ele>
        <time>2017-08-08T23:44:40Z</time>
      </trkpt>
      <trkpt lat="44.76792" lon="5.77636">
        <ele>991</ele>
        <time>2017-08-08T23:44:44Z</time>
      </trkpt>
      <trkpt lat="44.76752" lon="5.77643">
        <ele>989</ele>
        <time>2017-08-08T23:44:49Z</time>
      </trkpt>
      <trkpt lat="44.76735" lon="5.77654">
        <ele>991</ele>
        <time>2017-08-08T23:45:08Z</time>
      </trkpt>
      <trkpt lat="44.76715" lon="5.77676">
        <ele>988</ele>
        <time>2017-08-08T23:45:28Z</time>
      </trkpt>
      <trkpt lat="44.767" lon="5.777">
        <ele>989</ele>
        <time>2017-08-08T23:45:37Z</time>
      </trkpt>
      <trkpt lat="44.76688" lon="5.7773">
        <ele>989</ele>
        <time>2017-08-08T23:45:40Z</time>
      </trkpt>
      <trkpt lat="44.76684" lon="5.77769">
        <ele>986</ele>
        <time>2017-08-08T23:45:43Z</time>
      </trkpt>
      <trkpt lat="44.7669" lon="5.77844">
        <ele>979</ele>
        <time>2017-08-08T23:45:47Z</time>
      </trkpt>
      <trkpt lat="44.76692" lon="5.77894">
        <ele>975</ele>
        <time>2017-08-08T23:45:57Z</time>
      </trkpt>
      <trkpt lat="44.76688" lon="5.7791">
        <ele>975</ele>
        <time>2017-08-08T23:46:07Z</time>
      </trkpt>
      <trkpt lat="44.76667" lon="5.77946">
        <ele>968</ele>
        <time>2017-08-08T23:46:26Z</time>
      </trkpt>
      <trkpt lat="44.76648" lon="5.77991">
        <ele>967</ele>
        <time>2017-08-08T23:46:38Z</time>
      </trkpt>
      <trkpt lat="44.76642" lon="5.78018">
        <ele>964</ele>
        <time>2017-08-08T23:46:41Z</time>
      </trkpt>
      <trkpt lat="44.76644" lon="5.78034">
        <ele>964</ele>
        <time>2017-08-08T23:46:43Z</time>
      </trkpt>
      <trkpt lat="44.76657" lon="5.78055">
        <ele>963</ele>
        <time>2017-08-08T23:47:03Z</time>
      </trkpt>
      <trkpt lat="44.76698" lon="5.78104">
        <ele>955</ele>
        <time>2017-08-08T23:47:15Z</time>
      </trkpt>
      <trkpt lat="44.76708" lon="5.78112">
        <ele>954</ele>
        <time>2017-08-08T23:47:31Z</time>
      </trkpt>
      <trkpt lat="44.76738" lon="5.78129">
        <ele>952</ele>
        <time>2017-08-08T23:47:44Z</time>
      </trkpt>
      <trkpt lat="44.76748" lon="5.78136">
        <ele>952</ele>
        <time>2017-08-08T23:47:58Z</time>
      </trkpt>
      <trkpt lat="44.76756" lon="5.78142">
        <ele>948</ele>
        <time>2017-08-08T23:48:09Z</time>
      </trkpt>
      <trkpt lat="44.76818" lon="5.78174">
        <ele>947</ele>
        <time>2017-08-08T23:48:17Z</time>
      </trkpt>
      <trkpt lat="44.76839" lon="5.78177">
        <ele>945</ele>
        <time>2017-08-08T23:48:24Z</time>
      </trkpt>
      <trkpt lat="44.76893" lon="5.78173">
        <ele>943</ele>
        <time>2017-08-08T23:48:42Z</time>
      </trkpt>
      <trkpt lat="44.76942" lon="5.78171">
        <ele>939</ele>
        <time>2017-08-08T23:48:50Z</time>
      </trkpt>
      <trkpt lat="44.76984" lon="5.78177">
        <ele>936</ele>
        <time>2017-08-08T23:48:56Z</time>
      </trkpt>
      <trkpt lat="44.77036" lon="5.78184">
        <ele>931</ele>
        <time>2017-08-08T23:49:05Z</time>
      </trkpt>
      <trkpt lat="44.77059" lon="5.78185">
        <ele>930</ele>
        <time>2017-08-08T23:49:25Z</time>
      </trkpt>
      <trkpt lat="44.77114" lon="5.78183">
        <ele>923</ele>
        <time>2017-08-08T23:49:34Z</time>
      </trkpt>
      <trkpt lat="44.77206" lon="5.78192">
        <ele>915</ele>
        <time>2017-08-08T23:49:46Z</time>
      </trkpt>
      <trkpt lat="44.77236" lon="5.78187">
        <ele>913</ele>
        <time>2017-08-08T23:49:56Z</time>
      </trkpt>
      <trkpt lat="44.77279" lon="5.78175">
        <ele>908</ele>
        <time>2017-08-08T23:49:59Z</time>
      </trkpt>
      <trkpt lat="44.77294" lon="5.78174">
        <ele>908</ele>
        <time>2017-08-08T23:50:18Z</time>
      </trkpt>
      <trkpt lat="44.7733" lon="5.78179">
        <ele>907</ele>
        <time>2017-08-08T23:50:22Z</time>
      </trkpt>
      <trkpt lat="44.77376" lon="5.78177">
        <ele>904</ele>
        <time>2017-08-08T23:50:29Z</time>
      </trkpt>
      <trkpt lat="44.77407" lon="5.78171">
        <ele>902</ele>
        <time>2017-08-08T23:50:47Z</time>
      </trkpt>
      <trkpt lat="44.77419" lon="5.78174">
        <ele>901</ele>
        <time>2017-08-08T23:51:04Z</time>
      </trkpt>
      <trkpt lat="44.77451" lon="5.78195">
        <ele>901</ele>
        <time>2017-08-08T23:51:10Z</time>
      </trkpt>
      <trkpt lat="44.77482" lon="5.78212">
        <ele>901</ele>
        <time>2017-08-08T23:51:15Z</time>
      </trkpt>
      <trkpt lat="44.77524" lon="5.78216">
        <ele>898</ele>
        <time>2017-08-08T23:51:31Z</time>
      </trkpt>
      <trkpt lat="44.77565" lon="5.78209">
        <ele>897</ele>
        <time>2017-08-08T23:51:36Z</time>
      </trkpt>
      <trkpt lat="44.776" lon="5.78198">
        <ele>893</ele>
        <time>2017-08-08T23:51:42Z</time>
      </trkpt>
      <trkpt lat="44.77604" lon="5.78197">
        <ele>893</ele>
        <time>2017-08-08T23:52:02Z</time>
      </trkpt>
      <trkpt lat="44.77639" lon="5.78177">
        <ele>892</ele>
        <time>2017-08-08T23:52:06Z</time>
      </trkpt>
      <trkpt lat="44.77649" lon="5.78172">
        <ele>892</ele>
        <time>2017-08-08T23:52:13Z</time>
      </trkpt>
      <trkpt lat="44.77662" lon="5.78172">
        <ele>891</ele>
        <time>2017-08-08T23:52:23Z</time>
      </trkpt>
      <trkpt lat="44.77669" lon="5.78173">
        <ele>890</ele>
        <time>2017-08-08T23:52:41Z</time>
      </trkpt>
      <trkpt lat="44.77682" lon="5.78181">
        <ele>891</ele>
        <time>2017-08-08T23:52:48Z</time>
      </trkpt>
      <trkpt lat="44.77713" lon="5.78198">
        <ele>891</ele>
        <time>2017-08-08T23:52:50Z</time>
      </trkpt>
      <trkpt lat="44.77751" lon="5.78193">
        <ele>890</ele>
        <time>2017-08-08T23:53:00Z</time>
      </trkpt>
      <trkpt lat="44.7782" lon="5.78173">
        <ele>890</ele>
        <time>2017-08-08T23:53:08Z</time>
      </trkpt>
      <trkpt lat="44.77856" lon="5.78154">
        <ele>888</ele>
        <time>2017-08-08T23:53:14Z</time>
      </trkpt>
      <trkpt lat="44.77926" lon="5.78114">
        <ele>887</ele>
        <time>2017-08-08T23:53:28Z</time>
      </trkpt>
      <trkpt lat="44.77948" lon="5.78097">
        <ele>887</ele>
        <time>2017-08-08T23:53:30Z</time>
      </trkpt>
      <trkpt lat="44.77954" lon="5.78088">
        <ele>887</ele>
        <time>2017-08-08T23:53:37Z</time>
      </trkpt>
      <trkpt lat="44.77978" lon="5.78055">
        <ele>884</ele>
        <time>2017-08-08T23:53:53Z</time>
      </trkpt>
      <trkpt lat="44.77985" lon="5.78048">
        <ele>883</ele>
        <time>2017-08-08T23:54:13Z</time>
      </trkpt>
      <trkpt lat="44.77997" lon="5.78042">
        <ele>883</ele>
        <time>2017-08-08T23:54:22Z</time>
      </trkpt>
      <trkpt lat="44.78067" lon="5.78011">
        <ele>884</ele>
        <time>2017-08-08T23:54:32Z</time>
      </trkpt>
      <trkpt lat="44.78074" lon="5.78007">
        <ele>885</ele>
        <time>2017-08-08T23:54:51Z</time>
      </trkpt>
      <trkpt lat="44.78082" lon="5.77998">
        <ele>885</ele>
        <time>2017-08-08T23:55:03Z</time>
      </trkpt>
      <trkpt lat="44.78086" lon="5.77977">
        <ele>893</ele>
        <time>2017-08-08T23:55:20Z</time>
      </trkpt>
      <trkpt lat="44.78077" lon="5.77763">
        <ele>876</ele>
        <time>2017-08-08T23:55:40Z</time>
      </trkpt>
      <trkpt lat="44.78075" lon="5.77732">
        <ele>874</ele>
        <time>2017-08-08T23:55:57Z</time>
      </trkpt>
      <trkpt lat="44.78076" lon="5.77702">
        <ele>872</ele>
        <time>2017-08-08T23:56:09Z</time>
      </trkpt>
      <trkpt lat="44.7808" lon="5.77648">
        <ele>869</ele>
        <time>2017-08-08T23:56:23Z</time>
      </trkpt>
      <trkpt lat="44.78073" lon="5.77495">
        <ele>864</ele>
        <time>2017-08-08T23:56:27Z</time>
      </trkpt>
      <trkpt lat="44.78072" lon="5.77446">
        <ele>862</ele>
        <time>2017-08-08T23:56:33Z</time>
      </trkpt>
      <trkpt lat="44.78075" lon="5.77411">
        <ele>861</ele>
        <time>2017-08-08T23:56:36Z</time>
      </trkpt>
      <trkpt lat="44.78082" lon="5.77374">
        <ele>859</ele>
        <time>2017-08-08T23:56:52Z</time>
      </trkpt>
      <trkpt lat="44.78088" lon="5.77353">
        <ele>860</ele>
        <time>2017-08-08T23:57:04Z</time>
      </trkpt>
      <trkpt lat="44.78097" lon="5.77334">
        <ele>860</ele>
        <time>2017-08-08T23:57:21Z</time>
      </trkpt>
      <trkpt lat="44.78135" lon="5.77278">
        <ele>858</ele>
        <time>2017-08-08T23:57:29Z</time>
      </trkpt>
      <trkpt lat="44.78141" lon="5.77269">
        <ele>858</ele>
        <time>2017-08-08T23:57:31Z</time>
      </trkpt>
      <trkpt lat="44.78163" lon="5.77213">
        <ele>854</ele>
        <time>2017-08-08T23:57:48Z</time>
      </trkpt>
      <trkpt lat="44.78181" lon="5.77168">
        <ele>855</ele>
        <time>2017-08-08T23:57:52Z</time>
      </trkpt>
      <trkpt lat="44.78192" lon="5.77149">
        <ele>852</ele>
        <time>2017-08-08T23:58:06Z</time>
      </trkpt>
      <trkpt lat="44.7821" lon="5.77129">
        <ele>851</ele>
        <time>2017-08-08T23:58:26Z</time>
      </trkpt>
      <trkpt lat="44.78229" lon="5.77113">
        <ele>851</ele>
        <time>2017-08-08T23:58:34Z</time>
      </trkpt>
      <trkpt lat="44.7824" lon="5.77091">
        <ele>850</ele>
        <time>2017-08-08T23:58:41Z</time>
      </trkpt>
      <trkpt lat="44.78257" lon="5.77047">
        <ele>849</ele>
        <time>2017-08-08T23:58:57Z</time>
      </trkpt>
      <trkpt lat="44.78271" lon="5.77022">
        <ele>848</ele>
        <time>2017-08-08T23:58:59Z</time>
      </trkpt>
      <trkpt lat="44.78306" lon="5.76974">
        <ele>847</ele>
        <time>2017-08-08T23:59:14Z</time>
      </trkpt>
      <trkpt lat="44.7832" lon="5.76957">
        <ele>847</ele>
        <time>2017-08-08T23:59:24Z</time>
      </trkpt>
      <trkpt lat="44.78331" lon="5.76947">
        <ele>847</ele>
        <time>2017-08-08T23:59:44Z</time>
      </trkpt>
      <trkpt lat="44.7834" lon="5.76942">
        <ele>850</ele>
        <time>2017-08-09T00:00:00Z</time>
      </trkpt>
      <trkpt lat="44.78364" lon="5.76934">
        <ele>850</ele>
        <time>2017-08-09T00:00:08Z</time>
      </trkpt>
      <trkpt lat="44.78383" lon="5.76924">
        <ele>850</ele>
        <time>2017-08-09T00:00:13Z</time>
      </trkpt>
      <trkpt lat="44.78411" lon="5.76905">
        <ele>849</ele>
        <time>2017-08-09T00:00:30Z</time>
      </trkpt>
      <trkpt lat="44.78437" lon="5.76879">
        <ele>850</ele>
        <time>2017-08-09T00:00:35Z</time>
      </trkpt>
      <trkpt lat="44.78452" lon="5.7686">
        <ele>850</ele>
        <time>2017-08-09T00:00:41Z</time>
      </trkpt>
      <trkpt lat="44.78467" lon="5.76841">
        <ele>850</ele>
        <time>2017-08-09T00:00:52Z</time>
      </trkpt>
      <trkpt lat="44.78481" lon="5.76829">
        <ele>848</ele>
        <time>2017-08-09T00:00:58Z</time>
      </trkpt>
      <trkpt lat="44.78569" lon="5.76776">
        <ele>847</ele>
        <time>2017-08-09T00:01:08Z</time>
      </trkpt>
      <trkpt lat="44.7863" lon="5.76749">
        <ele>844</ele>
        <time>2017-08-09T00:01:28Z</time>
      </trkpt>
      <trkpt lat="44.78653" lon="5.76742">
        <ele>844</ele>
        <time>2017-08-09T00:01:44Z</time>
      </trkpt>
      <trkpt lat="44.78735" lon="5.76718">
        <ele>844</ele>
        <time>2017-08-09T00:02:02Z</time>
      </trkpt>
      <trkpt lat="44.78783" lon="5.76698">
        <ele>846</ele>
        <time>2017-08-09T00:02:12Z</time>
      </trkpt>
      <trkpt lat="44.78803" lon="5.76684">
        <ele>847</ele>
        <time>2017-08-09T00:02:27Z</time>
      </trkpt>
      <trkpt lat="44.78815" lon="5.76669">
        <ele>848</ele>
        <time>2017-08-09T00:02:32Z</time>
      </trkpt>
      <trkpt lat="44.78828" lon="5.76638">
        <ele>845</ele>
        <time>2017-08-09T00:02:49Z</time>
      </trkpt>
      <trkpt lat="44.7884" lon="5.76592">
        <ele>847</ele>
        <time>2017-08-09T00:03:00Z</time>
      </trkpt>
      <trkpt lat="44.7885" lon="5.76565">
        <ele>845</ele>
        <time>2017-08-09T00:03:02Z</time>
      </trkpt>
      <trkpt lat="44.78864" lon="5.76533">
        <ele>844</ele>
        <time>2017-08-09T00:03:17Z</time>
      </trkpt>
      <trkpt lat="44.78882" lon="5.76498">
        <ele>839</ele>
        <time>2017-08-09T00:03:29Z</time>
      </trkpt>
      <trkpt lat="44.789" lon="5.76472">
        <ele>839</ele>
        <time>2017-08-09T00:03:46Z</time>
      </trkpt>
      <trkpt lat="44.78927" lon="5.76442">
        <ele>841</ele>
        <time>2017-08-09T00:03:50Z</time>
      </trkpt>
      <trkpt lat="44.78953" lon="5.76407">
        <ele>837</ele>
        <time>2017-08-09T00:03:52Z</time>
      </trkpt>
      <trkpt lat="44.79013" lon="5.76303">
        <ele>836</ele>
        <time>2017-08-09T00:04:11Z</time>
      </trkpt>
      <trkpt lat="44.79053" lon="5.7624">
        <ele>830</ele>
        <time>2017-08-09T00:04:20Z</time>
      </trkpt>
      <trkpt lat="44.79066" lon="5.76225">
        <ele>830</ele>
        <time>2017-08-09T00:04:26Z</time>
      </trkpt>
      <trkpt lat="44.79105" lon="5.76181">
        <ele>832</ele>
        <time>2017-08-09T00:04:35Z</time>
      </trkpt>
      <trkpt lat="44.79154" lon="5.76134">
        <ele>828</ele>
        <time>2017-08-09T00:04:51Z</time>
      </trkpt>
      <trkpt lat="44.79184" lon="5.76099">
        <ele>832</ele>
        <time>2017-08-09T00:05:08Z</time>
      </trkpt>
      <trkpt lat="44.79207" lon="5.76062">
        <ele>826</ele>
        <time>2017-08-09T00:05:14Z</time>
      </trkpt>
      <trkpt lat="44.79232" lon="5.76017">
        <ele>825</ele>
        <time>2017-08-09T00:05:25Z</time>
      </trkpt>
      <trkpt lat="44.7925" lon="5.75991">
        <ele>822</ele>
        <time>2017-08-09T00:05:41Z</time>
      </trkpt>
      <trkpt lat="44.79258" lon="5.75984">
        <ele>826</ele>
        <time>2017-08-09T00:05:59Z</time>
      </trkpt>
      <trkpt lat="44.79269" lon="5.75977">
        <ele>827</ele>
        <time>2017-08-09T00:06:09Z</time>
      </trkpt>
      <trkpt lat="44.79283" lon="5.75967">
        <ele>827</ele>
        <time>2017-08-09T00:06:29Z</time>
      </trkpt>
      <trkpt lat="44.79286" lon="5.75962">
        <ele>827</ele>
        <time>2017-08-09T00:06:37Z</time>
      </trkpt>
      <trkpt lat="44.79288" lon="5.75952">
        <ele>826</ele>
        <time>2017-08-09T00:06:43Z</time>
      </trkpt>
      <trkpt lat="44.79295" lon="5.75949">
        <ele>827</ele>
        <time>2017-08-09T00:06:59Z</time>
      </trkpt>
      <trkpt lat="44.79317" lon="5.75935">
        <ele>827</ele>
        <time>2017-08-09T00:07:17Z</time>
      </trkpt>
      <trkpt lat="44.79348" lon="5.7591">
        <ele>826</ele>
        <time>2017-08-09T00:07:27Z</time>
      </trkpt>
      <trkpt lat="44.79396" lon="5.75866">
        <ele>825</ele>
        <time>2017-08-09T00:07:41Z</time>
      </trkpt>
      <trkpt lat="44.79414" lon="5.75844">
        <ele>823</ele>
        <time>2017-08-09T00:08:01Z</time>
      </trkpt>
      <trkpt lat="44.79447" lon="5.75796">
        <ele>824</ele>
        <time>2017-08-09T00:08:13Z</time>
      </trkpt>
      <trkpt lat="44.79481" lon="5.75751">
        <ele>826</ele>
        <time>2017-08-09T00:08:28Z</time>
      </trkpt>
      <trkpt lat="44.79521" lon="5.75707">
        <ele>819</ele>
        <time>2017-08-09T00:08:30Z</time>
      </trkpt>
      <trkpt lat="44.79554" lon="5.7568">
        <ele>819</ele>
        <time>2017-08-09T00:08:42Z</time>
      </trkpt>
      <trkpt lat="44.7959" lon="5.75664">
        <ele>816</ele>
        <time>2017-08-09T00:08:45Z</time>
      </trkpt>
      <trkpt lat="44.79608" lon="5.75653">
        <ele>814</ele>
        <time>2017-08-09T00:08:49Z</time>
      </trkpt>
      <trkpt lat="44.79617" lon="5.75646">
        <ele>814</ele>
        <time>2017-08-09T00:09:05Z</time>
      </trkpt>
      <trkpt lat="44.79632" lon="5.7563">
        <ele>813</ele>
        <time>2017-08-09T00:09:09Z</time>
      </trkpt>
      <trkpt lat="44.79646" lon="5.75611">
        <ele>812</ele>
        <time>2017-08-09T00:09:12Z</time>
      </trkpt>
      <trkpt lat="44.7966" lon="5.75592">
        <ele>813</ele>
        <time>2017-08-09T00:09:30Z</time>
      </trkpt>
      <trkpt lat="44.79675" lon="5.75576">
        <ele>810</ele>
        <time>2017-08-09T00:09:38Z</time>
      </trkpt>
      <trkpt lat="44.79711" lon="5.75551">
        <ele>806</ele>
        <time>2017-08-09T00:09:42Z</time>
      </trkpt>
      <trkpt lat="44.79756" lon="5.75516">
        <ele>805</ele>
        <time>2017-08-09T00:09:50Z</time>
      </trkpt>
      <trkpt lat="44.79773" lon="5.75505">
        <ele>806</ele>
        <time>2017-08-09T00:10:10Z</time>
      </trkpt>
      <trkpt lat="44.7979" lon="5.75498">
        <ele>807</ele>
        <time>2017-08-09T00:10:25Z</time>
      </trkpt>
      <trkpt lat="44.79828" lon="5.75491">
        <ele>807</ele>
        <time>2017-08-09T00:10:44Z</time>
      </trkpt>
      <trkpt lat="44.79891" lon="5.75482">
        <ele>812</ele>
        <time>2017-08-09T00:11:04Z</time>
      </trkpt>
      <trkpt lat="44.79962" lon="5.75473">
        <ele>809</ele>
        <time>2017-08-09T00:11:23Z</time>
      </trkpt>
      <trkpt lat="44.79989" lon="5.75466">
        <ele>808</ele>
        <time>2017-08-09T00:11:28Z</time>
      </trkpt>
      <trkpt lat="44.80015" lon="5.75458">
        <ele>803</ele>
        <time>2017-08-09T00:11:30Z</time>
      </trkpt>
      <trkpt lat="44.80041" lon="5.75455">
        <ele>802</ele>
        <time>2017-08-09T00:11:49Z</time>
      </trkpt>
      <trkpt lat="44.80061" lon="5.75455">
        <ele>801</ele>
        <time>2017-08-09T00:11:57Z</time>
      </trkpt>
      <trkpt lat="44.80101" lon="5.75462">
        <ele>798</ele>
        <time>2017-08-09T00:12:02Z</time>
      </trkpt>
      <trkpt lat="44.80115" lon="5.75463">
        <ele>797</ele>
        <time>2017-08-09T00:12:22Z</time>
      </trkpt>
      <trkpt lat="44.80142" lon="5.7546">
        <ele>796</ele>
        <time>2017-08-09T00:12:26Z</time>
      </trkpt>
      <trkpt lat="44.80175" lon="5.75451">
        <ele>794</ele>
        <time>2017-08-09T00:12:45Z</time>
      </trkpt>
      <trkpt lat="44.80192" lon="5.75444">
        <ele>794</ele>
        <time>2017-08-09T00:12:53Z</time>
      </trkpt>
      <trkpt lat="44.80209" lon="5.75431">
        <ele>795</ele>
        <time>2017-08-09T00:13:07Z</time>
      </trkpt>
      <trkpt lat="44.80252" lon="5.7539">
        <ele>800</ele>
        <time>2017-08-09T00:13:23Z</time>
      </trkpt>
      <trkpt lat="44.80276" lon="5.75359">
        <ele>802</ele>
        <time>2017-08-09T00:13:33Z</time>
      </trkpt>
      <trkpt lat="44.80301" lon="5.75302">
        <ele>802</ele>
        <time>2017-08-09T00:13:49Z</time>
      </trkpt>
      <trkpt lat="44.80334" lon="5.75218">
        <ele>810</ele>
        <time>2017-08-09T00:14:00Z</time>
      </trkpt>
      <trkpt lat="44.80357" lon="5.75168">
        <ele>808</ele>
        <time>2017-08-09T00:14:14Z</time>
      </trkpt>
      <trkpt lat="44.80371" lon="5.75148">
        <ele>805</ele>
        <time>2017-08-09T00:14:20Z</time>
      </trkpt>
      <trkpt lat="44.80386" lon="5.75129">
        <ele>806</ele>
        <time>2017-08-09T00:14:22Z</time>
      </trkpt>
      <trkpt lat="44.80401" lon="5.7511">
        <ele>807</ele>
        <time>2017-08-09T00:14:41Z</time>
      </trkpt>
      <trkpt lat="44.80413" lon="5.75087">
        <ele>809</ele>
        <time>2017-08-09T00:14:51Z</time>
      </trkpt>
      <trkpt lat="44.80437" lon="5.75031">
        <ele>810</ele>
        <time>2017-08-09T00:14:53Z</time>
      </trkpt>
      <trkpt lat="44.80449" lon="5.75014">
        <ele>810</ele>
        <time>2017-08-09T00:15:02Z</time>
      </trkpt>
      <trkpt lat="44.80462" lon="5.75">
        <ele>806</ele>
        <time>2017-08-09T00:15:09Z</time>
      </trkpt>
      <trkpt lat="44.8049" lon="5.74977">
        <ele>809</ele>
        <time>2017-08-09T00:15:23Z</time>
      </trkpt>
      <trkpt lat="44.80504" lon="5.74969">
        <ele>815</ele>
        <time>2017-08-09T00:15:33Z</time>
      </trkpt>
      <trkpt lat="44.80518" lon="5.74966">
        <ele>815</ele>
        <time>2017-08-09T00:15:48Z</time>
      </trkpt>
      <trkpt lat="44.80531" lon="5.74966">
        <ele>815</ele>
        <time>2017-08-09T00:15:59Z</time>
      </trkpt>
      <trkpt lat="44.80544" lon="5.74969">
        <ele>815</ele>
        <time>2017-08-09T00:16:05Z</time>
      </trkpt>
      <trkpt lat="44.8057" lon="5.7498">
        <ele>817</ele>
        <time>2017-08-09T00:16:09Z</time>
      </trkpt>
      <trkpt lat="44.80582" lon="5.74985">
        <ele>817</ele>
        <time>2017-08-09T00:16:18Z</time>
      </trkpt>
      <trkpt lat="44.80591" lon="5.74987">
        <ele>818</ele>
        <time>2017-08-09T00:16:25Z</time>
      </trkpt>
      <trkpt lat="44.80604" lon="5.74984">
        <ele>818</ele>
        <time>2017-08-09T00:16:34Z</time>
      </trkpt>
      <trkpt lat="44.80624" lon="5.74969">
        <ele>818</ele>
        <time>2017-08-09T00:16:53Z</time>
      </trkpt>
      <trkpt lat="44.80666" lon="5.74924">
        <ele>818</ele>
        <time>2017-08-09T00:17:07Z</time>
      </trkpt>
      <trkpt lat="44.8069" lon="5.74899">
        <ele>817</ele>
        <time>2017-08-09T00:17:14Z</time>
      </trkpt>
      <trkpt lat="44.80739" lon="5.74857">
        <ele>816</ele>
        <time>2017-08-09T00:17:30Z</time>
      </trkpt>
      <trkpt lat="44.80759" lon="5.74844">
        <ele>815</ele>
        <time>2017-08-09T00:17:45Z</time>
      </trkpt>
      <trkpt lat="44.80778" lon="5.74835">
        <ele>814</ele>
        <time>2017-08-09T00:17:58Z</time>
      </trkpt>
      <trkpt lat="44.80812" lon="5.74823">
        <ele>810</ele>
        <time>2017-08-09T00:18:05Z</time>
      </trkpt>
      <trkpt lat="44.80836" lon="5.74815">
        <ele>808</ele>
        <time>2017-08-09T00:18:12Z</time>
      </trkpt>
      <trkpt lat="44.80883" lon="5.74808">
        <ele>806</ele>
        <time>2017-08-09T00:18:29Z</time>
      </trkpt>
      <trkpt lat="44.809" lon="5.74808">
        <ele>806</ele>
        <time>2017-08-09T00:18:34Z</time>
      </trkpt>
      <trkpt lat="44.80915" lon="5.7481">
        <ele>806</ele>
        <time>2017-08-09T00:18:48Z</time>
      </trkpt>
      <trkpt lat="44.8093" lon="5.74817">
        <ele>802</ele>
        <time>2017-08-09T00:19:02Z</time>
      </trkpt>
      <trkpt lat="44.80975" lon="5.74847">
        <ele>804</ele>
        <time>2017-08-09T00:19:16Z</time>
      </trkpt>
      <trkpt lat="44.81029" lon="5.74886">
        <ele>799</ele>
        <time>2017-08-09T00:19:25Z</time>
      </trkpt>
      <trkpt lat="44.81056" lon="5.74906">
        <ele>798</ele>
        <time>2017-08-09T00:19:43Z</time>
      </trkpt>
      <trkpt lat="44.8107" lon="5.7491">
        <ele>797</ele>
        <time>2017-08-09T00:20:01Z</time>
      </trkpt>
      <trkpt lat="44.81084" lon="5.74908">
        <ele>796</ele>
        <time>2017-08-09T00:20:07Z</time>
      </trkpt>
      <trkpt lat="44.81099" lon="5.74899">
        <ele>795</ele>
        <time>2017-08-09T00:20:18Z</time>
      </trkpt>
      <trkpt lat="44.81114" lon="5.74886">
        <ele>794</ele>
        <time>2017-08-09T00:20:24Z</time>
      </trkpt>
      <trkpt lat="44.81139" lon="5.74869">
        <ele>793</ele>
        <time>2017-08-09T00:20:27Z</time>
      </trkpt>
      <trkpt lat="44.81207" lon="5.74837">
        <ele>791</ele>
        <time>2017-08-09T00:20:44Z</time>
      </trkpt>
      <trkpt lat="44.81241" lon="5.74818">
        <ele>787</ele>
        <time>2017-08-09T00:20:55Z</time>
      </trkpt>
      <trkpt lat="44.8125" lon="5.74815">
        <ele>787</ele>
        <time>2017-08-09T00:21:11Z</time>
      </trkpt>
      <trkpt lat="44.81259" lon="5.74816">
        <ele>785</ele>
        <time>2017-08-09T00:21:30Z</time>
      </trkpt>
      <trkpt lat="44.81269" lon="5.74822">
        <ele>785</ele>
        <time>2017-08-09T00:21:38Z</time>
      </trkpt>
      <trkpt lat="44.81276" lon="5.74828">
        <ele>784</ele>
        <time>2017-08-09T00:21:52Z</time>
      </trkpt>
      <trkpt lat="44.81297" lon="5.74861">
        <ele>786</ele>
        <time>2017-08-09T00:21:54Z</time>
      </trkpt>
      <trkpt lat="44.81309" lon="5.74885">
        <ele>786</ele>
        <time>2017-08-09T00:22:03Z</time>
      </trkpt>
      <trkpt lat="44.8132" lon="5.74916">
        <ele>785</ele>
        <time>2017-08-09T00:22:08Z</time>
      </trkpt>
      <trkpt lat="44.81365" lon="5.75064">
        <ele>779</ele>
        <time>2017-08-09T00:22:15Z</time>
      </trkpt>
      <trkpt lat="44.81372" lon="5.75079">
        <ele>778</ele>
        <time>2017-08-09T00:22:22Z</time>
      </trkpt>
      <trkpt lat="44.81381" lon="5.75091">
        <ele>779</ele>
        <time>2017-08-09T00:22:30Z</time>
      </trkpt>
      <trkpt lat="44.81393" lon="5.75099">
        <ele>778</ele>
        <time>2017-08-09T00:22:47Z</time>
      </trkpt>
      <trkpt lat="44.81407" lon="5.75104">
        <ele>777</ele>
        <time>2017-08-09T00:23:03Z</time>
      </trkpt>
      <trkpt lat="44.8143" lon="5.75105">
        <ele>775</ele>
        <time>2017-08-09T00:23:12Z</time>
      </trkpt>
      <trkpt lat="44.81467" lon="5.751">
        <ele>775</ele>
        <time>2017-08-09T00:23:31Z</time>
      </trkpt>
      <trkpt lat="44.81488" lon="5.75098">
        <ele>775</ele>
        <time>2017-08-09T00:23:35Z</time>
      </trkpt>
      <trkpt lat="44.8155" lon="5.75086">
        <ele>775</ele>
        <time>2017-08-09T00:23:37Z</time>
      </trkpt>
      <trkpt lat="44.81609" lon="5.75074">
        <ele>775</ele>
        <time>2017-08-09T00:23:47Z</time>
      </trkpt>
      <trkpt lat="44.81664" lon="5.75061">
        <ele>776</ele>
        <time>2017-08-09T00:23:59Z</time>
      </trkpt>
      <trkpt lat="44.81682" lon="5.75056">
        <ele>778</ele>
        <time>2017-08-09T00:24:11Z</time>
      </trkpt>
      <trkpt lat="44.81691" lon="5.75051">
        <ele>778</ele>
        <time>2017-08-09T00:24:14Z</time>
      </trkpt>
      <trkpt lat="44.81696" lon="5.75047">
        <ele>778</ele>
        <time>2017-08-09T00:24:30Z</time>
      </trkpt>
      <trkpt lat="44.81705" lon="5.75045">
        <ele>778</ele>
        <time>2017-08-09T00:24:38Z</time>
      </trkpt>
    </trkseg>
  </trk>
</gpx>